<?xml version="1.0" encoding="UTF-8" standalone="no" ?>
<gpx xmlns="http://www.topografix.com/GPX/1/1" xmlns:xsi="http://www.w3.org/2001/XMLSchema-instance" xsi:schemaLocation="http://www.topografix.com/GPX/1/1 http://www.topografix.com/GPX/1/1/gpx.xsd" version="1.1" creator="VisuGPX - https://www.visugpx.com">
  <metadata>
    <name>M\'hamid-Fm Zg par sud Madouar</name>
    <desc><![CDATA[Evite liaison Iriki / Foum z\" ... légèrement bosselé !!!
!!!  40km en   !!!!

[img]http://imageshack.us/photo/my-images/14/grandsud.jpg/[/img]]]></desc>
  </metadata>
  <wpt lat="29.84979" lon="-6.04394">
    <ele>514</ele>
    <name><![CDATA[0425]]></name>
    <desc><![CDATA[puits]]></desc>
  </wpt>
  <wpt lat="29.85804" lon="-6.2204">
    <ele>489</ele>
    <name><![CDATA[0426]]></name>
    <desc><![CDATA[tamaris]]></desc>
  </wpt>
  <wpt lat="30.02828" lon="-6.9013">
    <ele>622</ele>
    <name><![CDATA[0575]]></name>
    <desc><![CDATA[20-OCT-11 10:16<br>Début piste Iriki]]></desc>
  </wpt>
  <wpt lat="29.78776" lon="-6.91951">
    <ele>480</ele>
    <name><![CDATA[0577]]></name>
    <desc><![CDATA[20-OCT-11 11:26]]></desc>
  </wpt>
  <wpt lat="29.72586" lon="-6.91037">
    <ele>443</ele>
    <name><![CDATA[0578]]></name>
    <desc><![CDATA[20-OCT-11 11:40<br>Croist important]]></desc>
  </wpt>
  <wpt lat="29.75097" lon="-6.59188">
    <ele>479</ele>
    <name><![CDATA[0579]]></name>
    <desc><![CDATA[20-OCT-11 12:38]]></desc>
  </wpt>
  <wpt lat="29.83509" lon="-5.87494">
    <name><![CDATA[Bif]]></name>
    <desc><![CDATA[DB HORS PIST]]></desc>
  </wpt>
  <wpt lat="29.84023" lon="-6.2026">
    <ele>503</ele>
    <name><![CDATA[Biv H]]></name>
    <desc><![CDATA[Bivouac Habib]]></desc>
  </wpt>
  <wpt lat="29.82123" lon="-6.12998">
    <ele>496</ele>
    <name><![CDATA[Chigaga1]]></name>
    <desc><![CDATA[25-MAR-06 09:55]]></desc>
  </wpt>
  <wpt lat="29.83685" lon="-6.19432">
    <ele>491</ele>
    <name><![CDATA[Chigaga2]]></name>
    <desc><![CDATA[25-MAR-06 10:25]]></desc>
  </wpt>
  <wpt lat="30.09019" lon="-6.87767">
    <ele>654</ele>
    <name><![CDATA[Fm Zguid]]></name>
    <desc><![CDATA[24-MAR-06 07:47]]></desc>
  </wpt>
  <wpt lat="29.87799" lon="-6.57756">
    <ele>474</ele>
    <name><![CDATA[Fort]]></name>
    <desc><![CDATA[23-MAR-06 17:20]]></desc>
  </wpt>
  <wpt lat="29.85387" lon="-6.56887">
    <ele>469</ele>
    <name><![CDATA[fossiles]]></name>
    <desc><![CDATA[zone de fossiles et dunettes]]></desc>
  </wpt>
  <wpt lat="29.94733" lon="-6.36994">
    <ele>473</ele>
    <name><![CDATA[Iriki déb]]></name>
    <desc><![CDATA[ARRIVE SUR IRIKI]]></desc>
  </wpt>
  <wpt lat="29.88521" lon="-6.54151">
    <ele>470</ele>
    <name><![CDATA[Iriki fin]]></name>
    <desc><![CDATA[AUTRE CT IRIKI]]></desc>
  </wpt>
  <wpt lat="29.86155" lon="-6.01">
    <name><![CDATA[Laatach]]></name>
    <desc><![CDATA[Oued]]></desc>
  </wpt>
  <wpt lat="29.82586" lon="-6.68282">
    <name><![CDATA[Madouar]]></name>
    <desc><![CDATA[PIST  DROITE DU MADO]]></desc>
  </wpt>
  <wpt lat="29.82663" lon="-5.72121">
    <name><![CDATA[M'hamid]]></name>
    <desc><![CDATA[23-MAR-06 13:28]]></desc>
  </wpt>
  <wpt lat="29.8105" lon="-6.93707">
    <ele>514</ele>
    <name><![CDATA[Militaire]]></name>
    <desc><![CDATA[20-OCT-11 11:06<br>Poste militaire]]></desc>
  </wpt>
  <wpt lat="29.84413" lon="-6.20298">
    <name><![CDATA[Naji]]></name>
    <desc><![CDATA[biv Naji]]></desc>
  </wpt>
  <wpt lat="29.8831" lon="-6.11834">
    <ele>534</ele>
    <name><![CDATA[Oasis sacrée]]></name>
    <desc><![CDATA[23-MAR-06 15:43]]></desc>
  </wpt>
  <trk>
    <name><![CDATA[Biv H]]></name>
    <trkseg>
      <trkpt lat="29.84016" lon="-6.2026">
        <ele>510.116699</ele>
        <time>2010-10-16T08:05:54Z</time>
      </trkpt>
      <trkpt lat="29.84032" lon="-6.20261">
        <ele>497.138916</ele>
        <time>2010-10-16T08:47:16Z</time>
      </trkpt>
      <trkpt lat="29.84026" lon="-6.20268">
        <ele>496.177734</ele>
        <time>2010-10-16T08:47:23Z</time>
      </trkpt>
      <trkpt lat="29.84008" lon="-6.20251">
        <ele>496.177734</ele>
        <time>2010-10-16T08:47:28Z</time>
      </trkpt>
      <trkpt lat="29.84018" lon="-6.20199">
        <ele>499.542236</ele>
        <time>2010-10-16T08:47:34Z</time>
      </trkpt>
      <trkpt lat="29.84033" lon="-6.20192">
        <ele>499.061523</ele>
        <time>2010-10-16T08:47:36Z</time>
      </trkpt>
      <trkpt lat="29.84081" lon="-6.20188">
        <ele>498.100342</ele>
        <time>2010-10-16T08:47:41Z</time>
      </trkpt>
      <trkpt lat="29.841" lon="-6.20184">
        <ele>497.619629</ele>
        <time>2010-10-16T08:47:43Z</time>
      </trkpt>
      <trkpt lat="29.8421" lon="-6.20207">
        <ele>499.542236</ele>
        <time>2010-10-16T08:47:53Z</time>
      </trkpt>
      <trkpt lat="29.84268" lon="-6.20261">
        <ele>495.696899</ele>
        <time>2010-10-16T08:48:07Z</time>
      </trkpt>
      <trkpt lat="29.84277" lon="-6.20264">
        <ele>492.812988</ele>
        <time>2010-10-16T08:52:11Z</time>
      </trkpt>
      <trkpt lat="29.84299" lon="-6.20261">
        <ele>493.293579</ele>
        <time>2010-10-16T08:52:15Z</time>
      </trkpt>
      <trkpt lat="29.84364" lon="-6.2025">
        <ele>493.293579</ele>
        <time>2010-10-16T08:52:23Z</time>
      </trkpt>
      <trkpt lat="29.84396" lon="-6.20198">
        <ele>493.774292</ele>
        <time>2010-10-16T08:52:30Z</time>
      </trkpt>
      <trkpt lat="29.84398" lon="-6.20158">
        <ele>494.255005</ele>
        <time>2010-10-16T08:52:34Z</time>
      </trkpt>
      <trkpt lat="29.84394" lon="-6.2011">
        <ele>494.735596</ele>
        <time>2010-10-16T08:52:38Z</time>
      </trkpt>
      <trkpt lat="29.84378" lon="-6.20057">
        <ele>494.735596</ele>
        <time>2010-10-16T08:52:43Z</time>
      </trkpt>
      <trkpt lat="29.84357" lon="-6.20001">
        <ele>495.216187</ele>
        <time>2010-10-16T08:52:50Z</time>
      </trkpt>
      <trkpt lat="29.84342" lon="-6.19981">
        <ele>495.216187</ele>
        <time>2010-10-16T08:52:53Z</time>
      </trkpt>
      <trkpt lat="29.84322" lon="-6.1996">
        <ele>495.216187</ele>
        <time>2010-10-16T08:52:56Z</time>
      </trkpt>
      <trkpt lat="29.84233" lon="-6.19862">
        <ele>495.216187</ele>
        <time>2010-10-16T08:53:13Z</time>
      </trkpt>
      <trkpt lat="29.8422" lon="-6.19856">
        <ele>494.255005</ele>
        <time>2010-10-16T08:53:22Z</time>
      </trkpt>
      <trkpt lat="29.84207" lon="-6.19854">
        <ele>493.774292</ele>
        <time>2010-10-16T08:53:24Z</time>
      </trkpt>
      <trkpt lat="29.84161" lon="-6.19839">
        <ele>492.812988</ele>
        <time>2010-10-16T08:53:29Z</time>
      </trkpt>
      <trkpt lat="29.84125" lon="-6.19817">
        <ele>492.332397</ele>
        <time>2010-10-16T08:53:33Z</time>
      </trkpt>
      <trkpt lat="29.84076" lon="-6.19794">
        <ele>491.851685</ele>
        <time>2010-10-16T08:53:38Z</time>
      </trkpt>
      <trkpt lat="29.84026" lon="-6.1976">
        <ele>490.890381</ele>
        <time>2010-10-16T08:53:44Z</time>
      </trkpt>
      <trkpt lat="29.84001" lon="-6.1975">
        <ele>490.890381</ele>
        <time>2010-10-16T08:53:47Z</time>
      </trkpt>
      <trkpt lat="29.83936" lon="-6.19706">
        <ele>490.40979</ele>
        <time>2010-10-16T08:53:55Z</time>
      </trkpt>
      <trkpt lat="29.83921" lon="-6.1969">
        <ele>490.40979</ele>
        <time>2010-10-16T08:53:57Z</time>
      </trkpt>
      <trkpt lat="29.83888" lon="-6.19662">
        <ele>489.929077</ele>
        <time>2010-10-16T08:54:01Z</time>
      </trkpt>
      <trkpt lat="29.83872" lon="-6.19646">
        <ele>489.929077</ele>
        <time>2010-10-16T08:54:03Z</time>
      </trkpt>
      <trkpt lat="29.83835" lon="-6.19623">
        <ele>489.929077</ele>
        <time>2010-10-16T08:54:07Z</time>
      </trkpt>
      <trkpt lat="29.83813" lon="-6.19594">
        <ele>489.448364</ele>
        <time>2010-10-16T08:54:11Z</time>
      </trkpt>
      <trkpt lat="29.83782" lon="-6.19582">
        <ele>489.929077</ele>
        <time>2010-10-16T08:54:15Z</time>
      </trkpt>
      <trkpt lat="29.83751" lon="-6.19571">
        <ele>489.929077</ele>
        <time>2010-10-16T08:54:23Z</time>
      </trkpt>
      <trkpt lat="29.83751" lon="-6.19555">
        <ele>489.929077</ele>
        <time>2010-10-16T08:54:26Z</time>
      </trkpt>
      <trkpt lat="29.8372" lon="-6.19483">
        <ele>490.890381</ele>
        <time>2010-10-16T08:54:43Z</time>
      </trkpt>
      <trkpt lat="29.83685" lon="-6.19435">
        <ele>491.370972</ele>
        <time>2010-10-16T08:54:49Z</time>
      </trkpt>
      <trkpt lat="29.83432" lon="-6.19247">
        <ele>490.890381</ele>
        <time>2010-10-16T08:55:13Z</time>
      </trkpt>
      <trkpt lat="29.83364" lon="-6.19204">
        <ele>490.40979</ele>
        <time>2010-10-16T08:55:20Z</time>
      </trkpt>
    </trkseg>
  </trk>
  <trk>
    <name><![CDATA[MF01]]></name>
    <trkseg>
      <trkpt lat="29.8265" lon="-5.72302">
        <ele>552.895264</ele>
        <time>2010-01-21T09:51:07Z</time>
      </trkpt>
      <trkpt lat="29.82652" lon="-5.72307">
        <ele>547.608154</ele>
        <time>2010-01-21T09:51:40Z</time>
      </trkpt>
      <trkpt lat="29.82651" lon="-5.7231">
        <ele>558.66333</ele>
        <time>2010-01-21T09:55:35Z</time>
      </trkpt>
      <trkpt lat="29.82695" lon="-5.72407">
        <ele>554.817871</ele>
        <time>2010-01-21T09:55:56Z</time>
      </trkpt>
      <trkpt lat="29.82761" lon="-5.72635">
        <ele>551.934082</ele>
        <time>2010-01-21T09:56:22Z</time>
      </trkpt>
      <trkpt lat="29.82812" lon="-5.72908">
        <ele>553.856689</ele>
        <time>2010-01-21T09:56:49Z</time>
      </trkpt>
      <trkpt lat="29.82842" lon="-5.7295">
        <ele>555.298584</ele>
        <time>2010-01-21T09:56:54Z</time>
      </trkpt>
      <trkpt lat="29.82877" lon="-5.73099">
        <ele>553.375977</ele>
        <time>2010-01-21T09:57:08Z</time>
      </trkpt>
      <trkpt lat="29.82892" lon="-5.73135">
        <ele>551.934082</ele>
        <time>2010-01-21T09:57:12Z</time>
      </trkpt>
      <trkpt lat="29.829" lon="-5.73154">
        <ele>551.934082</ele>
        <time>2010-01-21T09:57:14Z</time>
      </trkpt>
      <trkpt lat="29.82947" lon="-5.73311">
        <ele>550.011475</ele>
        <time>2010-01-21T09:57:30Z</time>
      </trkpt>
      <trkpt lat="29.82942" lon="-5.73422">
        <ele>549.050049</ele>
        <time>2010-01-21T09:57:41Z</time>
      </trkpt>
      <trkpt lat="29.82935" lon="-5.73452">
        <ele>548.569336</ele>
        <time>2010-01-21T09:57:45Z</time>
      </trkpt>
      <trkpt lat="29.82937" lon="-5.7352">
        <ele>547.608154</ele>
        <time>2010-01-21T09:57:53Z</time>
      </trkpt>
      <trkpt lat="29.82948" lon="-5.7356">
        <ele>548.088867</ele>
        <time>2010-01-21T09:57:58Z</time>
      </trkpt>
      <trkpt lat="29.82954" lon="-5.73597">
        <ele>548.088867</ele>
        <time>2010-01-21T09:58:02Z</time>
      </trkpt>
      <trkpt lat="29.82969" lon="-5.7367">
        <ele>548.569336</ele>
        <time>2010-01-21T09:58:10Z</time>
      </trkpt>
      <trkpt lat="29.82976" lon="-5.73843">
        <ele>548.569336</ele>
        <time>2010-01-21T09:58:28Z</time>
      </trkpt>
      <trkpt lat="29.82965" lon="-5.7394">
        <ele>547.608154</ele>
        <time>2010-01-21T09:58:39Z</time>
      </trkpt>
      <trkpt lat="29.82973" lon="-5.73983">
        <ele>547.608154</ele>
        <time>2010-01-21T09:58:44Z</time>
      </trkpt>
      <trkpt lat="29.82981" lon="-5.74">
        <ele>547.608154</ele>
        <time>2010-01-21T09:58:46Z</time>
      </trkpt>
      <trkpt lat="29.82998" lon="-5.74059">
        <ele>548.088867</ele>
        <time>2010-01-21T09:58:53Z</time>
      </trkpt>
      <trkpt lat="29.83064" lon="-5.74282">
        <ele>546.646851</ele>
        <time>2010-01-21T09:59:17Z</time>
      </trkpt>
      <trkpt lat="29.83127" lon="-5.74541">
        <ele>545.685547</ele>
        <time>2010-01-21T09:59:44Z</time>
      </trkpt>
      <trkpt lat="29.83177" lon="-5.74707">
        <ele>545.685547</ele>
        <time>2010-01-21T10:00:04Z</time>
      </trkpt>
      <trkpt lat="29.83178" lon="-5.7473">
        <ele>545.685547</ele>
        <time>2010-01-21T10:00:07Z</time>
      </trkpt>
      <trkpt lat="29.83188" lon="-5.74769">
        <ele>546.16626</ele>
        <time>2010-01-21T10:00:12Z</time>
      </trkpt>
      <trkpt lat="29.83255" lon="-5.74983">
        <ele>544.243652</ele>
        <time>2010-01-21T10:00:37Z</time>
      </trkpt>
      <trkpt lat="29.83304" lon="-5.7511">
        <ele>544.243652</ele>
        <time>2010-01-21T10:00:51Z</time>
      </trkpt>
      <trkpt lat="29.83312" lon="-5.75145">
        <ele>544.724243</ele>
        <time>2010-01-21T10:00:55Z</time>
      </trkpt>
      <trkpt lat="29.83349" lon="-5.75212">
        <ele>544.724243</ele>
        <time>2010-01-21T10:01:05Z</time>
      </trkpt>
      <trkpt lat="29.83365" lon="-5.75248">
        <ele>544.724243</ele>
        <time>2010-01-21T10:01:10Z</time>
      </trkpt>
      <trkpt lat="29.8338" lon="-5.75302">
        <ele>544.724243</ele>
        <time>2010-01-21T10:01:17Z</time>
      </trkpt>
      <trkpt lat="29.83446" lon="-5.75438">
        <ele>544.243652</ele>
        <time>2010-01-21T10:01:38Z</time>
      </trkpt>
      <trkpt lat="29.83448" lon="-5.75445">
        <ele>544.243652</ele>
        <time>2010-01-21T10:02:07Z</time>
      </trkpt>
      <trkpt lat="29.83483" lon="-5.75531">
        <ele>543.282104</ele>
        <time>2010-01-21T10:03:00Z</time>
      </trkpt>
      <trkpt lat="29.83502" lon="-5.75584">
        <ele>544.243652</ele>
        <time>2010-01-21T10:03:08Z</time>
      </trkpt>
      <trkpt lat="29.8351" lon="-5.75605">
        <ele>543.282104</ele>
        <time>2010-01-21T10:03:11Z</time>
      </trkpt>
      <trkpt lat="29.8355" lon="-5.75671">
        <ele>543.282104</ele>
        <time>2010-01-21T10:03:22Z</time>
      </trkpt>
      <trkpt lat="29.83575" lon="-5.75721">
        <ele>543.762817</ele>
        <time>2010-01-21T10:03:30Z</time>
      </trkpt>
      <trkpt lat="29.8359" lon="-5.75737">
        <ele>542.801514</ele>
        <time>2010-01-21T10:03:34Z</time>
      </trkpt>
      <trkpt lat="29.83613" lon="-5.75755">
        <ele>543.282104</ele>
        <time>2010-01-21T10:03:39Z</time>
      </trkpt>
      <trkpt lat="29.83635" lon="-5.75788">
        <ele>543.762817</ele>
        <time>2010-01-21T10:03:45Z</time>
      </trkpt>
      <trkpt lat="29.83644" lon="-5.75812">
        <ele>543.282104</ele>
        <time>2010-01-21T10:03:49Z</time>
      </trkpt>
      <trkpt lat="29.83662" lon="-5.75831">
        <ele>544.243652</ele>
        <time>2010-01-21T10:03:53Z</time>
      </trkpt>
      <trkpt lat="29.83679" lon="-5.75844">
        <ele>544.243652</ele>
        <time>2010-01-21T10:03:57Z</time>
      </trkpt>
      <trkpt lat="29.83699" lon="-5.75853">
        <ele>543.762817</ele>
        <time>2010-01-21T10:04:01Z</time>
      </trkpt>
      <trkpt lat="29.83716" lon="-5.75895">
        <ele>542.320923</ele>
        <time>2010-01-21T10:04:09Z</time>
      </trkpt>
      <trkpt lat="29.83716" lon="-5.75908">
        <ele>542.320923</ele>
        <time>2010-01-21T10:04:11Z</time>
      </trkpt>
      <trkpt lat="29.83726" lon="-5.75927">
        <ele>543.282104</ele>
        <time>2010-01-21T10:04:15Z</time>
      </trkpt>
      <trkpt lat="29.83749" lon="-5.75954">
        <ele>543.762817</ele>
        <time>2010-01-21T10:04:21Z</time>
      </trkpt>
      <trkpt lat="29.83777" lon="-5.76054">
        <ele>542.801514</ele>
        <time>2010-01-21T10:04:36Z</time>
      </trkpt>
      <trkpt lat="29.83784" lon="-5.7608">
        <ele>542.801514</ele>
        <time>2010-01-21T10:04:40Z</time>
      </trkpt>
      <trkpt lat="29.83797" lon="-5.76104">
        <ele>543.282104</ele>
        <time>2010-01-21T10:04:44Z</time>
      </trkpt>
      <trkpt lat="29.83798" lon="-5.7615">
        <ele>542.801514</ele>
        <time>2010-01-21T10:04:50Z</time>
      </trkpt>
      <trkpt lat="29.83795" lon="-5.76171">
        <ele>542.320923</ele>
        <time>2010-01-21T10:04:53Z</time>
      </trkpt>
      <trkpt lat="29.83802" lon="-5.76203">
        <ele>543.282104</ele>
        <time>2010-01-21T10:04:58Z</time>
      </trkpt>
      <trkpt lat="29.83799" lon="-5.7624">
        <ele>542.801514</ele>
        <time>2010-01-21T10:05:03Z</time>
      </trkpt>
      <trkpt lat="29.83787" lon="-5.76274">
        <ele>542.320923</ele>
        <time>2010-01-21T10:05:08Z</time>
      </trkpt>
      <trkpt lat="29.83783" lon="-5.7635">
        <ele>541.359497</ele>
        <time>2010-01-21T10:05:19Z</time>
      </trkpt>
      <trkpt lat="29.83764" lon="-5.76378">
        <ele>540.878906</ele>
        <time>2010-01-21T10:05:24Z</time>
      </trkpt>
      <trkpt lat="29.83751" lon="-5.76404">
        <ele>539.917603</ele>
        <time>2010-01-21T10:05:28Z</time>
      </trkpt>
      <trkpt lat="29.83732" lon="-5.76423">
        <ele>539.917603</ele>
        <time>2010-01-21T10:05:32Z</time>
      </trkpt>
      <trkpt lat="29.83723" lon="-5.76449">
        <ele>540.398315</ele>
        <time>2010-01-21T10:05:36Z</time>
      </trkpt>
      <trkpt lat="29.83722" lon="-5.76472">
        <ele>539.917603</ele>
        <time>2010-01-21T10:05:39Z</time>
      </trkpt>
      <trkpt lat="29.83718" lon="-5.76505">
        <ele>540.398315</ele>
        <time>2010-01-21T10:05:43Z</time>
      </trkpt>
      <trkpt lat="29.8371" lon="-5.76525">
        <ele>540.398315</ele>
        <time>2010-01-21T10:05:46Z</time>
      </trkpt>
      <trkpt lat="29.8371" lon="-5.76552">
        <ele>540.398315</ele>
        <time>2010-01-21T10:05:50Z</time>
      </trkpt>
      <trkpt lat="29.83712" lon="-5.76566">
        <ele>539.43689</ele>
        <time>2010-01-21T10:05:52Z</time>
      </trkpt>
      <trkpt lat="29.83707" lon="-5.76596">
        <ele>540.398315</ele>
        <time>2010-01-21T10:05:56Z</time>
      </trkpt>
      <trkpt lat="29.83701" lon="-5.76619">
        <ele>540.398315</ele>
        <time>2010-01-21T10:05:59Z</time>
      </trkpt>
      <trkpt lat="29.83698" lon="-5.76633">
        <ele>541.84021</ele>
        <time>2010-01-21T10:06:01Z</time>
      </trkpt>
      <trkpt lat="29.83696" lon="-5.76661">
        <ele>540.878906</ele>
        <time>2010-01-21T10:06:05Z</time>
      </trkpt>
      <trkpt lat="29.8369" lon="-5.7669">
        <ele>541.359497</ele>
        <time>2010-01-21T10:06:09Z</time>
      </trkpt>
      <trkpt lat="29.83675" lon="-5.76712">
        <ele>540.398315</ele>
        <time>2010-01-21T10:06:13Z</time>
      </trkpt>
      <trkpt lat="29.83667" lon="-5.7672">
        <ele>541.84021</ele>
        <time>2010-01-21T10:06:15Z</time>
      </trkpt>
      <trkpt lat="29.83657" lon="-5.7676">
        <ele>539.917603</ele>
        <time>2010-01-21T10:06:22Z</time>
      </trkpt>
      <trkpt lat="29.83658" lon="-5.76779">
        <ele>540.398315</ele>
        <time>2010-01-21T10:06:25Z</time>
      </trkpt>
      <trkpt lat="29.83663" lon="-5.76797">
        <ele>540.878906</ele>
        <time>2010-01-21T10:06:28Z</time>
      </trkpt>
      <trkpt lat="29.83663" lon="-5.76824">
        <ele>540.398315</ele>
        <time>2010-01-21T10:06:32Z</time>
      </trkpt>
      <trkpt lat="29.83661" lon="-5.76837">
        <ele>540.878906</ele>
        <time>2010-01-21T10:06:34Z</time>
      </trkpt>
      <trkpt lat="29.83663" lon="-5.76866">
        <ele>541.359497</ele>
        <time>2010-01-21T10:06:38Z</time>
      </trkpt>
      <trkpt lat="29.83663" lon="-5.76895">
        <ele>541.359497</ele>
        <time>2010-01-21T10:06:42Z</time>
      </trkpt>
      <trkpt lat="29.83681" lon="-5.76951">
        <ele>540.878906</ele>
        <time>2010-01-21T10:06:51Z</time>
      </trkpt>
      <trkpt lat="29.83683" lon="-5.76964">
        <ele>541.359497</ele>
        <time>2010-01-21T10:06:53Z</time>
      </trkpt>
      <trkpt lat="29.83684" lon="-5.76978">
        <ele>541.84021</ele>
        <time>2010-01-21T10:06:55Z</time>
      </trkpt>
      <trkpt lat="29.83682" lon="-5.77007">
        <ele>540.878906</ele>
        <time>2010-01-21T10:06:59Z</time>
      </trkpt>
      <trkpt lat="29.83668" lon="-5.77063">
        <ele>540.398315</ele>
        <time>2010-01-21T10:07:07Z</time>
      </trkpt>
      <trkpt lat="29.83659" lon="-5.7708">
        <ele>539.917603</ele>
        <time>2010-01-21T10:07:10Z</time>
      </trkpt>
      <trkpt lat="29.83655" lon="-5.77122">
        <ele>539.43689</ele>
        <time>2010-01-21T10:07:16Z</time>
      </trkpt>
      <trkpt lat="29.83654" lon="-5.77136">
        <ele>539.917603</ele>
        <time>2010-01-21T10:07:18Z</time>
      </trkpt>
      <trkpt lat="29.83658" lon="-5.77195">
        <ele>539.43689</ele>
        <time>2010-01-21T10:07:27Z</time>
      </trkpt>
      <trkpt lat="29.83652" lon="-5.77213">
        <ele>539.917603</ele>
        <time>2010-01-21T10:07:30Z</time>
      </trkpt>
      <trkpt lat="29.83642" lon="-5.77272">
        <ele>539.917603</ele>
        <time>2010-01-21T10:07:39Z</time>
      </trkpt>
      <trkpt lat="29.83641" lon="-5.77316">
        <ele>540.398315</ele>
        <time>2010-01-21T10:07:45Z</time>
      </trkpt>
      <trkpt lat="29.83637" lon="-5.77349">
        <ele>540.398315</ele>
        <time>2010-01-21T10:07:50Z</time>
      </trkpt>
      <trkpt lat="29.83634" lon="-5.77405">
        <ele>539.43689</ele>
        <time>2010-01-21T10:07:57Z</time>
      </trkpt>
      <trkpt lat="29.83638" lon="-5.77426">
        <ele>538.956299</ele>
        <time>2010-01-21T10:08:00Z</time>
      </trkpt>
      <trkpt lat="29.83639" lon="-5.77459">
        <ele>539.43689</ele>
        <time>2010-01-21T10:08:05Z</time>
      </trkpt>
      <trkpt lat="29.83643" lon="-5.77488">
        <ele>539.43689</ele>
        <time>2010-01-21T10:08:09Z</time>
      </trkpt>
      <trkpt lat="29.83643" lon="-5.77511">
        <ele>539.43689</ele>
        <time>2010-01-21T10:08:12Z</time>
      </trkpt>
      <trkpt lat="29.83646" lon="-5.77533">
        <ele>539.917603</ele>
        <time>2010-01-21T10:08:15Z</time>
      </trkpt>
      <trkpt lat="29.83644" lon="-5.77574">
        <ele>539.917603</ele>
        <time>2010-01-21T10:08:20Z</time>
      </trkpt>
      <trkpt lat="29.83643" lon="-5.77606">
        <ele>539.917603</ele>
        <time>2010-01-21T10:08:24Z</time>
      </trkpt>
      <trkpt lat="29.83631" lon="-5.77643">
        <ele>538.956299</ele>
        <time>2010-01-21T10:08:29Z</time>
      </trkpt>
      <trkpt lat="29.83623" lon="-5.77688">
        <ele>538.475708</ele>
        <time>2010-01-21T10:08:35Z</time>
      </trkpt>
      <trkpt lat="29.83614" lon="-5.77779">
        <ele>538.956299</ele>
        <time>2010-01-21T10:08:47Z</time>
      </trkpt>
      <trkpt lat="29.83616" lon="-5.77802">
        <ele>538.475708</ele>
        <time>2010-01-21T10:08:50Z</time>
      </trkpt>
      <trkpt lat="29.83609" lon="-5.77841">
        <ele>538.475708</ele>
        <time>2010-01-21T10:08:55Z</time>
      </trkpt>
      <trkpt lat="29.83588" lon="-5.77989">
        <ele>540.398315</ele>
        <time>2010-01-21T10:09:13Z</time>
      </trkpt>
      <trkpt lat="29.83588" lon="-5.77999">
        <ele>539.917603</ele>
        <time>2010-01-21T10:09:15Z</time>
      </trkpt>
      <trkpt lat="29.83587" lon="-5.7802">
        <ele>538.956299</ele>
        <time>2010-01-21T10:09:18Z</time>
      </trkpt>
      <trkpt lat="29.83592" lon="-5.78086">
        <ele>539.43689</ele>
        <time>2010-01-21T10:09:27Z</time>
      </trkpt>
      <trkpt lat="29.83588" lon="-5.78108">
        <ele>539.43689</ele>
        <time>2010-01-21T10:09:30Z</time>
      </trkpt>
      <trkpt lat="29.83576" lon="-5.78135">
        <ele>539.43689</ele>
        <time>2010-01-21T10:09:34Z</time>
      </trkpt>
      <trkpt lat="29.83572" lon="-5.78156">
        <ele>538.956299</ele>
        <time>2010-01-21T10:09:37Z</time>
      </trkpt>
      <trkpt lat="29.83571" lon="-5.78189">
        <ele>538.475708</ele>
        <time>2010-01-21T10:09:42Z</time>
      </trkpt>
      <trkpt lat="29.83567" lon="-5.78202">
        <ele>538.475708</ele>
        <time>2010-01-21T10:09:44Z</time>
      </trkpt>
      <trkpt lat="29.83567" lon="-5.78228">
        <ele>538.956299</ele>
        <time>2010-01-21T10:09:48Z</time>
      </trkpt>
      <trkpt lat="29.83569" lon="-5.78239">
        <ele>538.475708</ele>
        <time>2010-01-21T10:09:50Z</time>
      </trkpt>
      <trkpt lat="29.83571" lon="-5.78261">
        <ele>537.994995</ele>
        <time>2010-01-21T10:09:53Z</time>
      </trkpt>
      <trkpt lat="29.83568" lon="-5.78302">
        <ele>537.033691</ele>
        <time>2010-01-21T10:09:59Z</time>
      </trkpt>
      <trkpt lat="29.83565" lon="-5.78315">
        <ele>537.994995</ele>
        <time>2010-01-21T10:10:01Z</time>
      </trkpt>
      <trkpt lat="29.83562" lon="-5.78365">
        <ele>537.514282</ele>
        <time>2010-01-21T10:10:08Z</time>
      </trkpt>
      <trkpt lat="29.83565" lon="-5.7838">
        <ele>537.994995</ele>
        <time>2010-01-21T10:10:10Z</time>
      </trkpt>
      <trkpt lat="29.83564" lon="-5.78411">
        <ele>537.514282</ele>
        <time>2010-01-21T10:10:14Z</time>
      </trkpt>
      <trkpt lat="29.83569" lon="-5.78437">
        <ele>537.514282</ele>
        <time>2010-01-21T10:10:18Z</time>
      </trkpt>
      <trkpt lat="29.8357" lon="-5.78458">
        <ele>537.994995</ele>
        <time>2010-01-21T10:10:21Z</time>
      </trkpt>
      <trkpt lat="29.83581" lon="-5.7848">
        <ele>538.956299</ele>
        <time>2010-01-21T10:10:25Z</time>
      </trkpt>
      <trkpt lat="29.83588" lon="-5.78508">
        <ele>537.994995</ele>
        <time>2010-01-21T10:10:30Z</time>
      </trkpt>
      <trkpt lat="29.83616" lon="-5.7858">
        <ele>538.475708</ele>
        <time>2010-01-21T10:10:42Z</time>
      </trkpt>
      <trkpt lat="29.83613" lon="-5.78648">
        <ele>538.475708</ele>
        <time>2010-01-21T10:10:53Z</time>
      </trkpt>
      <trkpt lat="29.83619" lon="-5.78671">
        <ele>538.475708</ele>
        <time>2010-01-21T10:10:57Z</time>
      </trkpt>
      <trkpt lat="29.83623" lon="-5.78688">
        <ele>538.956299</ele>
        <time>2010-01-21T10:11:00Z</time>
      </trkpt>
      <trkpt lat="29.83619" lon="-5.7872">
        <ele>538.475708</ele>
        <time>2010-01-21T10:11:05Z</time>
      </trkpt>
      <trkpt lat="29.83622" lon="-5.78746">
        <ele>538.475708</ele>
        <time>2010-01-21T10:11:09Z</time>
      </trkpt>
      <trkpt lat="29.83627" lon="-5.78798">
        <ele>538.475708</ele>
        <time>2010-01-21T10:11:17Z</time>
      </trkpt>
      <trkpt lat="29.83631" lon="-5.78826">
        <ele>538.475708</ele>
        <time>2010-01-21T10:11:21Z</time>
      </trkpt>
      <trkpt lat="29.83629" lon="-5.78864">
        <ele>537.994995</ele>
        <time>2010-01-21T10:11:26Z</time>
      </trkpt>
      <trkpt lat="29.83631" lon="-5.78888">
        <ele>537.994995</ele>
        <time>2010-01-21T10:11:29Z</time>
      </trkpt>
      <trkpt lat="29.83626" lon="-5.78927">
        <ele>537.994995</ele>
        <time>2010-01-21T10:11:34Z</time>
      </trkpt>
      <trkpt lat="29.83626" lon="-5.78951">
        <ele>537.994995</ele>
        <time>2010-01-21T10:11:37Z</time>
      </trkpt>
      <trkpt lat="29.83641" lon="-5.79068">
        <ele>537.994995</ele>
        <time>2010-01-21T10:11:52Z</time>
      </trkpt>
      <trkpt lat="29.8365" lon="-5.7913">
        <ele>537.514282</ele>
        <time>2010-01-21T10:12:00Z</time>
      </trkpt>
      <trkpt lat="29.83648" lon="-5.79154">
        <ele>537.514282</ele>
        <time>2010-01-21T10:12:03Z</time>
      </trkpt>
      <trkpt lat="29.83642" lon="-5.79185">
        <ele>537.514282</ele>
        <time>2010-01-21T10:12:07Z</time>
      </trkpt>
      <trkpt lat="29.83646" lon="-5.79213">
        <ele>537.033691</ele>
        <time>2010-01-21T10:12:11Z</time>
      </trkpt>
      <trkpt lat="29.83661" lon="-5.7926">
        <ele>537.033691</ele>
        <time>2010-01-21T10:12:18Z</time>
      </trkpt>
      <trkpt lat="29.83671" lon="-5.79314">
        <ele>537.033691</ele>
        <time>2010-01-21T10:12:28Z</time>
      </trkpt>
      <trkpt lat="29.8366" lon="-5.79342">
        <ele>536.553101</ele>
        <time>2010-01-21T10:12:33Z</time>
      </trkpt>
      <trkpt lat="29.83653" lon="-5.79392">
        <ele>537.033691</ele>
        <time>2010-01-21T10:12:40Z</time>
      </trkpt>
      <trkpt lat="29.83638" lon="-5.79486">
        <ele>536.553101</ele>
        <time>2010-01-21T10:12:52Z</time>
      </trkpt>
      <trkpt lat="29.83639" lon="-5.79583">
        <ele>536.553101</ele>
        <time>2010-01-21T10:13:05Z</time>
      </trkpt>
      <trkpt lat="29.83633" lon="-5.79615">
        <ele>536.553101</ele>
        <time>2010-01-21T10:13:09Z</time>
      </trkpt>
      <trkpt lat="29.83628" lon="-5.79632">
        <ele>536.553101</ele>
        <time>2010-01-21T10:13:11Z</time>
      </trkpt>
      <trkpt lat="29.83611" lon="-5.79718">
        <ele>536.553101</ele>
        <time>2010-01-21T10:13:21Z</time>
      </trkpt>
      <trkpt lat="29.83601" lon="-5.79775">
        <ele>536.072388</ele>
        <time>2010-01-21T10:13:28Z</time>
      </trkpt>
      <trkpt lat="29.83592" lon="-5.79809">
        <ele>536.072388</ele>
        <time>2010-01-21T10:13:32Z</time>
      </trkpt>
      <trkpt lat="29.83585" lon="-5.79905">
        <ele>536.553101</ele>
        <time>2010-01-21T10:13:43Z</time>
      </trkpt>
      <trkpt lat="29.83577" lon="-5.79981">
        <ele>536.553101</ele>
        <time>2010-01-21T10:13:53Z</time>
      </trkpt>
      <trkpt lat="29.8357" lon="-5.79995">
        <ele>536.072388</ele>
        <time>2010-01-21T10:13:55Z</time>
      </trkpt>
      <trkpt lat="29.83564" lon="-5.80035">
        <ele>536.072388</ele>
        <time>2010-01-21T10:14:00Z</time>
      </trkpt>
      <trkpt lat="29.83562" lon="-5.80049">
        <ele>536.553101</ele>
        <time>2010-01-21T10:14:02Z</time>
      </trkpt>
      <trkpt lat="29.83551" lon="-5.80072">
        <ele>536.553101</ele>
        <time>2010-01-21T10:14:06Z</time>
      </trkpt>
      <trkpt lat="29.83523" lon="-5.80107">
        <ele>535.591553</ele>
        <time>2010-01-21T10:14:13Z</time>
      </trkpt>
      <trkpt lat="29.83533" lon="-5.80162">
        <ele>535.591553</ele>
        <time>2010-01-21T10:14:22Z</time>
      </trkpt>
      <trkpt lat="29.83537" lon="-5.80181">
        <ele>535.110962</ele>
        <time>2010-01-21T10:14:25Z</time>
      </trkpt>
      <trkpt lat="29.83554" lon="-5.80224">
        <ele>535.591553</ele>
        <time>2010-01-21T10:14:32Z</time>
      </trkpt>
      <trkpt lat="29.83558" lon="-5.80246">
        <ele>535.591553</ele>
        <time>2010-01-21T10:14:36Z</time>
      </trkpt>
      <trkpt lat="29.83552" lon="-5.80277">
        <ele>535.110962</ele>
        <time>2010-01-21T10:14:41Z</time>
      </trkpt>
      <trkpt lat="29.8355" lon="-5.80391">
        <ele>534.630371</ele>
        <time>2010-01-21T10:14:56Z</time>
      </trkpt>
      <trkpt lat="29.83556" lon="-5.80438">
        <ele>534.630371</ele>
        <time>2010-01-21T10:15:04Z</time>
      </trkpt>
      <trkpt lat="29.83554" lon="-5.80457">
        <ele>534.630371</ele>
        <time>2010-01-21T10:15:07Z</time>
      </trkpt>
      <trkpt lat="29.83576" lon="-5.80556">
        <ele>535.110962</ele>
        <time>2010-01-21T10:15:22Z</time>
      </trkpt>
      <trkpt lat="29.83577" lon="-5.80589">
        <ele>535.110962</ele>
        <time>2010-01-21T10:15:27Z</time>
      </trkpt>
      <trkpt lat="29.83583" lon="-5.80621">
        <ele>535.110962</ele>
        <time>2010-01-21T10:15:32Z</time>
      </trkpt>
      <trkpt lat="29.83584" lon="-5.80745">
        <ele>534.630371</ele>
        <time>2010-01-21T10:15:54Z</time>
      </trkpt>
      <trkpt lat="29.83577" lon="-5.80797">
        <ele>534.630371</ele>
        <time>2010-01-21T10:16:02Z</time>
      </trkpt>
      <trkpt lat="29.83577" lon="-5.80822">
        <ele>534.630371</ele>
        <time>2010-01-21T10:16:06Z</time>
      </trkpt>
      <trkpt lat="29.83571" lon="-5.80845">
        <ele>534.630371</ele>
        <time>2010-01-21T10:16:10Z</time>
      </trkpt>
      <trkpt lat="29.83568" lon="-5.80857">
        <ele>534.630371</ele>
        <time>2010-01-21T10:16:12Z</time>
      </trkpt>
      <trkpt lat="29.83568" lon="-5.80869">
        <ele>534.630371</ele>
        <time>2010-01-21T10:16:14Z</time>
      </trkpt>
      <trkpt lat="29.83569" lon="-5.80891">
        <ele>534.630371</ele>
        <time>2010-01-21T10:16:17Z</time>
      </trkpt>
      <trkpt lat="29.83569" lon="-5.80918">
        <ele>534.630371</ele>
        <time>2010-01-21T10:16:21Z</time>
      </trkpt>
      <trkpt lat="29.8357" lon="-5.81109">
        <ele>535.110962</ele>
        <time>2010-01-21T10:16:49Z</time>
      </trkpt>
      <trkpt lat="29.83566" lon="-5.8115">
        <ele>535.110962</ele>
        <time>2010-01-21T10:16:55Z</time>
      </trkpt>
      <trkpt lat="29.83526" lon="-5.81228">
        <ele>534.149658</ele>
        <time>2010-01-21T10:17:09Z</time>
      </trkpt>
      <trkpt lat="29.83467" lon="-5.81313">
        <ele>534.149658</ele>
        <time>2010-01-21T10:17:24Z</time>
      </trkpt>
      <trkpt lat="29.83408" lon="-5.81395">
        <ele>533.188354</ele>
        <time>2010-01-21T10:17:38Z</time>
      </trkpt>
      <trkpt lat="29.83385" lon="-5.81444">
        <ele>533.188354</ele>
        <time>2010-01-21T10:17:45Z</time>
      </trkpt>
      <trkpt lat="29.83357" lon="-5.81531">
        <ele>532.707764</ele>
        <time>2010-01-21T10:17:56Z</time>
      </trkpt>
      <trkpt lat="29.83339" lon="-5.81566">
        <ele>532.707764</ele>
        <time>2010-01-21T10:18:01Z</time>
      </trkpt>
      <trkpt lat="29.83329" lon="-5.8161">
        <ele>532.707764</ele>
        <time>2010-01-21T10:18:07Z</time>
      </trkpt>
      <trkpt lat="29.83315" lon="-5.81642">
        <ele>532.227051</ele>
        <time>2010-01-21T10:18:12Z</time>
      </trkpt>
      <trkpt lat="29.83298" lon="-5.81699">
        <ele>532.227051</ele>
        <time>2010-01-21T10:18:20Z</time>
      </trkpt>
      <trkpt lat="29.83268" lon="-5.81786">
        <ele>531.746338</ele>
        <time>2010-01-21T10:18:32Z</time>
      </trkpt>
      <trkpt lat="29.83258" lon="-5.81836">
        <ele>531.746338</ele>
        <time>2010-01-21T10:18:39Z</time>
      </trkpt>
      <trkpt lat="29.83199" lon="-5.81971">
        <ele>531.265747</ele>
        <time>2010-01-21T10:18:59Z</time>
      </trkpt>
      <trkpt lat="29.83185" lon="-5.81989">
        <ele>532.227051</ele>
        <time>2010-01-21T10:19:20Z</time>
      </trkpt>
      <trkpt lat="29.83172" lon="-5.82026">
        <ele>531.265747</ele>
        <time>2010-01-21T10:29:19Z</time>
      </trkpt>
      <trkpt lat="29.83158" lon="-5.82051">
        <ele>531.746338</ele>
        <time>2010-01-21T10:29:25Z</time>
      </trkpt>
      <trkpt lat="29.83118" lon="-5.82167">
        <ele>532.227051</ele>
        <time>2010-01-21T10:29:44Z</time>
      </trkpt>
      <trkpt lat="29.83102" lon="-5.82212">
        <ele>532.227051</ele>
        <time>2010-01-21T10:29:51Z</time>
      </trkpt>
      <trkpt lat="29.83099" lon="-5.82256">
        <ele>532.227051</ele>
        <time>2010-01-21T10:29:57Z</time>
      </trkpt>
      <trkpt lat="29.83088" lon="-5.82362">
        <ele>531.746338</ele>
        <time>2010-01-21T10:30:11Z</time>
      </trkpt>
      <trkpt lat="29.83078" lon="-5.82588">
        <ele>531.746338</ele>
        <time>2010-01-21T10:30:39Z</time>
      </trkpt>
      <trkpt lat="29.83091" lon="-5.82639">
        <ele>531.746338</ele>
        <time>2010-01-21T10:30:45Z</time>
      </trkpt>
      <trkpt lat="29.83095" lon="-5.82744">
        <ele>531.746338</ele>
        <time>2010-01-21T10:30:58Z</time>
      </trkpt>
      <trkpt lat="29.83096" lon="-5.8276">
        <ele>531.265747</ele>
        <time>2010-01-21T10:31:00Z</time>
      </trkpt>
      <trkpt lat="29.83095" lon="-5.82791">
        <ele>531.265747</ele>
        <time>2010-01-21T10:31:04Z</time>
      </trkpt>
      <trkpt lat="29.83098" lon="-5.82825">
        <ele>531.265747</ele>
        <time>2010-01-21T10:31:08Z</time>
      </trkpt>
      <trkpt lat="29.83111" lon="-5.83039">
        <ele>530.785156</ele>
        <time>2010-01-21T10:31:30Z</time>
      </trkpt>
      <trkpt lat="29.83113" lon="-5.83084">
        <ele>530.785156</ele>
        <time>2010-01-21T10:31:35Z</time>
      </trkpt>
      <trkpt lat="29.83114" lon="-5.83134">
        <ele>531.265747</ele>
        <time>2010-01-21T10:31:40Z</time>
      </trkpt>
      <trkpt lat="29.83121" lon="-5.83238">
        <ele>530.785156</ele>
        <time>2010-01-21T10:31:49Z</time>
      </trkpt>
      <trkpt lat="29.83136" lon="-5.83291">
        <ele>531.265747</ele>
        <time>2010-01-21T10:31:55Z</time>
      </trkpt>
      <trkpt lat="29.83137" lon="-5.83334">
        <ele>531.265747</ele>
        <time>2010-01-21T10:32:00Z</time>
      </trkpt>
      <trkpt lat="29.83117" lon="-5.83498">
        <ele>530.785156</ele>
        <time>2010-01-21T10:32:22Z</time>
      </trkpt>
      <trkpt lat="29.83114" lon="-5.8352">
        <ele>530.785156</ele>
        <time>2010-01-21T10:32:26Z</time>
      </trkpt>
      <trkpt lat="29.83106" lon="-5.83552">
        <ele>530.785156</ele>
        <time>2010-01-21T10:32:31Z</time>
      </trkpt>
      <trkpt lat="29.83103" lon="-5.83768">
        <ele>530.304443</ele>
        <time>2010-01-21T10:32:59Z</time>
      </trkpt>
      <trkpt lat="29.83097" lon="-5.83913">
        <ele>529.82373</ele>
        <time>2010-01-21T10:33:16Z</time>
      </trkpt>
      <trkpt lat="29.83092" lon="-5.83952">
        <ele>529.34314</ele>
        <time>2010-01-21T10:33:21Z</time>
      </trkpt>
      <trkpt lat="29.83094" lon="-5.83974">
        <ele>529.34314</ele>
        <time>2010-01-21T10:33:24Z</time>
      </trkpt>
      <trkpt lat="29.83097" lon="-5.84003">
        <ele>529.34314</ele>
        <time>2010-01-21T10:33:28Z</time>
      </trkpt>
      <trkpt lat="29.83092" lon="-5.84041">
        <ele>529.34314</ele>
        <time>2010-01-21T10:33:33Z</time>
      </trkpt>
      <trkpt lat="29.83087" lon="-5.8407">
        <ele>529.34314</ele>
        <time>2010-01-21T10:33:37Z</time>
      </trkpt>
      <trkpt lat="29.83087" lon="-5.84086">
        <ele>529.34314</ele>
        <time>2010-01-21T10:33:39Z</time>
      </trkpt>
      <trkpt lat="29.83071" lon="-5.84158">
        <ele>529.82373</ele>
        <time>2010-01-21T10:33:49Z</time>
      </trkpt>
      <trkpt lat="29.83074" lon="-5.84188">
        <ele>529.82373</ele>
        <time>2010-01-21T10:33:53Z</time>
      </trkpt>
      <trkpt lat="29.83088" lon="-5.84222">
        <ele>530.304443</ele>
        <time>2010-01-21T10:33:58Z</time>
      </trkpt>
      <trkpt lat="29.831" lon="-5.84264">
        <ele>530.785156</ele>
        <time>2010-01-21T10:34:04Z</time>
      </trkpt>
      <trkpt lat="29.83113" lon="-5.8439">
        <ele>530.304443</ele>
        <time>2010-01-21T10:34:21Z</time>
      </trkpt>
      <trkpt lat="29.83151" lon="-5.84645">
        <ele>529.82373</ele>
        <time>2010-01-21T10:34:43Z</time>
      </trkpt>
      <trkpt lat="29.83148" lon="-5.84676">
        <ele>529.82373</ele>
        <time>2010-01-21T10:34:46Z</time>
      </trkpt>
      <trkpt lat="29.83167" lon="-5.84963">
        <ele>529.34314</ele>
        <time>2010-01-21T10:35:11Z</time>
      </trkpt>
      <trkpt lat="29.83156" lon="-5.85233">
        <ele>527.901001</ele>
        <time>2010-01-21T10:35:35Z</time>
      </trkpt>
      <trkpt lat="29.83147" lon="-5.85528">
        <ele>527.42041</ele>
        <time>2010-01-21T10:36:01Z</time>
      </trkpt>
      <trkpt lat="29.83102" lon="-5.85822">
        <ele>527.901001</ele>
        <time>2010-01-21T10:36:25Z</time>
      </trkpt>
      <trkpt lat="29.83109" lon="-5.8587">
        <ele>527.42041</ele>
        <time>2010-01-21T10:36:29Z</time>
      </trkpt>
      <trkpt lat="29.83191" lon="-5.8611">
        <ele>529.34314</ele>
        <time>2010-01-21T10:36:50Z</time>
      </trkpt>
      <trkpt lat="29.833" lon="-5.86329">
        <ele>530.304443</ele>
        <time>2010-01-21T10:37:11Z</time>
      </trkpt>
      <trkpt lat="29.83373" lon="-5.8655">
        <ele>529.82373</ele>
        <time>2010-01-21T10:37:32Z</time>
      </trkpt>
      <trkpt lat="29.83422" lon="-5.86866">
        <ele>528.862549</ele>
        <time>2010-01-21T10:37:54Z</time>
      </trkpt>
      <trkpt lat="29.83402" lon="-5.87257">
        <ele>527.901001</ele>
        <time>2010-01-21T10:38:17Z</time>
      </trkpt>
      <trkpt lat="29.83433" lon="-5.87541">
        <ele>527.42041</ele>
        <time>2010-01-21T10:38:35Z</time>
      </trkpt>
      <trkpt lat="29.83443" lon="-5.87616">
        <ele>527.901001</ele>
        <time>2010-01-21T10:38:41Z</time>
      </trkpt>
      <trkpt lat="29.83518" lon="-5.87813">
        <ele>528.381836</ele>
        <time>2010-01-21T10:38:57Z</time>
      </trkpt>
      <trkpt lat="29.83527" lon="-5.87859">
        <ele>528.381836</ele>
        <time>2010-01-21T10:39:01Z</time>
      </trkpt>
      <trkpt lat="29.83555" lon="-5.88038">
        <ele>528.381836</ele>
        <time>2010-01-21T10:39:15Z</time>
      </trkpt>
      <trkpt lat="29.83587" lon="-5.88115">
        <ele>528.381836</ele>
        <time>2010-01-21T10:39:23Z</time>
      </trkpt>
      <trkpt lat="29.83592" lon="-5.88134">
        <ele>528.381836</ele>
        <time>2010-01-21T10:39:25Z</time>
      </trkpt>
      <trkpt lat="29.8365" lon="-5.88232">
        <ele>528.862549</ele>
        <time>2010-01-21T10:39:38Z</time>
      </trkpt>
      <trkpt lat="29.83656" lon="-5.88243">
        <ele>528.381836</ele>
        <time>2010-01-21T10:39:40Z</time>
      </trkpt>
      <trkpt lat="29.83667" lon="-5.88256">
        <ele>528.381836</ele>
        <time>2010-01-21T10:39:43Z</time>
      </trkpt>
      <trkpt lat="29.83686" lon="-5.88309">
        <ele>528.862549</ele>
        <time>2010-01-21T10:39:59Z</time>
      </trkpt>
      <trkpt lat="29.8371" lon="-5.88413">
        <ele>529.34314</ele>
        <time>2010-01-21T10:40:40Z</time>
      </trkpt>
      <trkpt lat="29.83716" lon="-5.88446">
        <ele>528.862549</ele>
        <time>2010-01-21T10:40:43Z</time>
      </trkpt>
      <trkpt lat="29.83717" lon="-5.88467">
        <ele>528.862549</ele>
        <time>2010-01-21T10:40:45Z</time>
      </trkpt>
      <trkpt lat="29.83726" lon="-5.88505">
        <ele>528.381836</ele>
        <time>2010-01-21T10:40:49Z</time>
      </trkpt>
      <trkpt lat="29.83787" lon="-5.88748">
        <ele>527.901001</ele>
        <time>2010-01-21T10:41:10Z</time>
      </trkpt>
      <trkpt lat="29.83872" lon="-5.89124">
        <ele>527.42041</ele>
        <time>2010-01-21T10:41:39Z</time>
      </trkpt>
      <trkpt lat="29.83921" lon="-5.89428">
        <ele>526.459106</ele>
        <time>2010-01-21T10:42:03Z</time>
      </trkpt>
      <trkpt lat="29.83935" lon="-5.8952">
        <ele>526.459106</ele>
        <time>2010-01-21T10:42:11Z</time>
      </trkpt>
      <trkpt lat="29.83952" lon="-5.89549">
        <ele>526.939819</ele>
        <time>2010-01-21T10:42:16Z</time>
      </trkpt>
      <trkpt lat="29.83969" lon="-5.89566">
        <ele>527.42041</ele>
        <time>2010-01-21T10:42:20Z</time>
      </trkpt>
      <trkpt lat="29.83984" lon="-5.89592">
        <ele>527.42041</ele>
        <time>2010-01-21T10:42:25Z</time>
      </trkpt>
      <trkpt lat="29.83993" lon="-5.89627">
        <ele>527.901001</ele>
        <time>2010-01-21T10:42:30Z</time>
      </trkpt>
      <trkpt lat="29.84006" lon="-5.89934">
        <ele>526.939819</ele>
        <time>2010-01-21T10:43:01Z</time>
      </trkpt>
      <trkpt lat="29.84001" lon="-5.90101">
        <ele>526.459106</ele>
        <time>2010-01-21T10:43:17Z</time>
      </trkpt>
    </trkseg>
  </trk>
  <trk>
    <name><![CDATA[MF03]]></name>
    <trkseg>
      <trkpt lat="29.84001" lon="-5.90101">
        <ele>526.459106</ele>
        <time>2010-01-21T10:43:17Z</time>
      </trkpt>
      <trkpt lat="29.83948" lon="-5.90337">
        <ele>528.381836</ele>
        <time>2010-01-21T10:43:40Z</time>
      </trkpt>
      <trkpt lat="29.83945" lon="-5.90639">
        <ele>528.381836</ele>
        <time>2010-01-21T10:44:07Z</time>
      </trkpt>
      <trkpt lat="29.83947" lon="-5.9065">
        <ele>528.381836</ele>
        <time>2010-01-21T10:44:08Z</time>
      </trkpt>
      <trkpt lat="29.83942" lon="-5.90868">
        <ele>528.381836</ele>
        <time>2010-01-21T10:44:31Z</time>
      </trkpt>
      <trkpt lat="29.83942" lon="-5.90896">
        <ele>528.862549</ele>
        <time>2010-01-21T10:44:34Z</time>
      </trkpt>
      <trkpt lat="29.84014" lon="-5.91132">
        <ele>529.34314</ele>
        <time>2010-01-21T10:44:59Z</time>
      </trkpt>
      <trkpt lat="29.84048" lon="-5.91346">
        <ele>529.34314</ele>
        <time>2010-01-21T10:45:18Z</time>
      </trkpt>
      <trkpt lat="29.84051" lon="-5.91392">
        <ele>528.862549</ele>
        <time>2010-01-21T10:45:22Z</time>
      </trkpt>
      <trkpt lat="29.84091" lon="-5.91653">
        <ele>529.34314</ele>
        <time>2010-01-21T10:45:44Z</time>
      </trkpt>
      <trkpt lat="29.84121" lon="-5.92043">
        <ele>530.785156</ele>
        <time>2010-01-21T10:46:13Z</time>
      </trkpt>
      <trkpt lat="29.84172" lon="-5.92412">
        <ele>529.34314</ele>
        <time>2010-01-21T10:46:39Z</time>
      </trkpt>
      <trkpt lat="29.84181" lon="-5.9258">
        <ele>527.901001</ele>
        <time>2010-01-21T10:46:52Z</time>
      </trkpt>
      <trkpt lat="29.84191" lon="-5.92721">
        <ele>527.42041</ele>
        <time>2010-01-21T10:47:06Z</time>
      </trkpt>
      <trkpt lat="29.84273" lon="-5.92952">
        <ele>530.785156</ele>
        <time>2010-01-21T10:47:29Z</time>
      </trkpt>
      <trkpt lat="29.84329" lon="-5.93164">
        <ele>530.304443</ele>
        <time>2010-01-21T10:47:48Z</time>
      </trkpt>
      <trkpt lat="29.84371" lon="-5.93419">
        <ele>530.304443</ele>
        <time>2010-01-21T10:48:10Z</time>
      </trkpt>
      <trkpt lat="29.84425" lon="-5.93666">
        <ele>530.785156</ele>
        <time>2010-01-21T10:48:33Z</time>
      </trkpt>
      <trkpt lat="29.84463" lon="-5.94098">
        <ele>529.82373</ele>
        <time>2010-01-21T10:49:07Z</time>
      </trkpt>
      <trkpt lat="29.84526" lon="-5.94412">
        <ele>529.82373</ele>
        <time>2010-01-21T10:49:33Z</time>
      </trkpt>
      <trkpt lat="29.84646" lon="-5.94744">
        <ele>529.82373</ele>
        <time>2010-01-21T10:49:57Z</time>
      </trkpt>
      <trkpt lat="29.84674" lon="-5.94823">
        <ele>530.304443</ele>
        <time>2010-01-21T10:50:03Z</time>
      </trkpt>
      <trkpt lat="29.84709" lon="-5.95023">
        <ele>530.785156</ele>
        <time>2010-01-21T10:50:17Z</time>
      </trkpt>
      <trkpt lat="29.84739" lon="-5.95197">
        <ele>530.785156</ele>
        <time>2010-01-21T10:50:34Z</time>
      </trkpt>
      <trkpt lat="29.84796" lon="-5.95499">
        <ele>530.304443</ele>
        <time>2010-01-21T10:50:59Z</time>
      </trkpt>
      <trkpt lat="29.84822" lon="-5.95832">
        <ele>530.304443</ele>
        <time>2010-01-21T10:51:22Z</time>
      </trkpt>
      <trkpt lat="29.84823" lon="-5.96196">
        <ele>531.265747</ele>
        <time>2010-01-21T10:51:45Z</time>
      </trkpt>
      <trkpt lat="29.8483" lon="-5.96237">
        <ele>530.304443</ele>
        <time>2010-01-21T10:51:48Z</time>
      </trkpt>
      <trkpt lat="29.84853" lon="-5.96285">
        <ele>530.304443</ele>
        <time>2010-01-21T10:52:03Z</time>
      </trkpt>
      <trkpt lat="29.84906" lon="-5.9637">
        <ele>530.785156</ele>
        <time>2010-01-21T10:52:33Z</time>
      </trkpt>
      <trkpt lat="29.8501" lon="-5.96703">
        <ele>530.304443</ele>
        <time>2010-01-21T10:53:04Z</time>
      </trkpt>
      <trkpt lat="29.85053" lon="-5.97042">
        <ele>529.82373</ele>
        <time>2010-01-21T10:53:27Z</time>
      </trkpt>
      <trkpt lat="29.85136" lon="-5.97316">
        <ele>530.304443</ele>
        <time>2010-01-21T10:53:47Z</time>
      </trkpt>
      <trkpt lat="29.85209" lon="-5.97666">
        <ele>530.785156</ele>
        <time>2010-01-21T10:54:10Z</time>
      </trkpt>
      <trkpt lat="29.85212" lon="-5.97845">
        <ele>530.785156</ele>
        <time>2010-01-21T10:54:21Z</time>
      </trkpt>
      <trkpt lat="29.85204" lon="-5.97885">
        <ele>530.785156</ele>
        <time>2010-01-21T10:54:25Z</time>
      </trkpt>
      <trkpt lat="29.85179" lon="-5.98109">
        <ele>527.901001</ele>
        <time>2010-01-21T10:54:51Z</time>
      </trkpt>
      <trkpt lat="29.85166" lon="-5.98266">
        <ele>526.939819</ele>
        <time>2010-01-21T10:55:07Z</time>
      </trkpt>
      <trkpt lat="29.85187" lon="-5.98327">
        <ele>527.42041</ele>
        <time>2010-01-21T10:55:14Z</time>
      </trkpt>
      <trkpt lat="29.85198" lon="-5.98569">
        <ele>528.381836</ele>
        <time>2010-01-21T10:55:36Z</time>
      </trkpt>
      <trkpt lat="29.85169" lon="-5.98918">
        <ele>531.265747</ele>
        <time>2010-01-21T10:56:05Z</time>
      </trkpt>
      <trkpt lat="29.85169" lon="-5.99215">
        <ele>530.304443</ele>
        <time>2010-01-21T10:56:30Z</time>
      </trkpt>
      <trkpt lat="29.85202" lon="-5.99642">
        <ele>530.785156</ele>
        <time>2010-01-21T10:56:56Z</time>
      </trkpt>
      <trkpt lat="29.85223" lon="-5.99934">
        <ele>531.746338</ele>
        <time>2010-01-21T10:57:15Z</time>
      </trkpt>
      <trkpt lat="29.85217" lon="-6.00116">
        <ele>530.785156</ele>
        <time>2010-01-21T10:57:33Z</time>
      </trkpt>
      <trkpt lat="29.85215" lon="-6.00149">
        <ele>530.785156</ele>
        <time>2010-01-21T10:57:36Z</time>
      </trkpt>
      <trkpt lat="29.85202" lon="-6.00192">
        <ele>530.785156</ele>
        <time>2010-01-21T10:57:40Z</time>
      </trkpt>
      <trkpt lat="29.85159" lon="-6.0049">
        <ele>530.785156</ele>
        <time>2010-01-21T10:58:04Z</time>
      </trkpt>
      <trkpt lat="29.85153" lon="-6.01025">
        <ele>528.381836</ele>
        <time>2010-01-21T10:58:39Z</time>
      </trkpt>
      <trkpt lat="29.85191" lon="-6.01443">
        <ele>527.42041</ele>
        <time>2010-01-21T10:59:04Z</time>
      </trkpt>
      <trkpt lat="29.85112" lon="-6.01919">
        <ele>527.42041</ele>
        <time>2010-01-21T10:59:32Z</time>
      </trkpt>
      <trkpt lat="29.8507" lon="-6.02067">
        <ele>527.42041</ele>
        <time>2010-01-21T10:59:42Z</time>
      </trkpt>
      <trkpt lat="29.85021" lon="-6.02364">
        <ele>527.42041</ele>
        <time>2010-01-21T11:00:00Z</time>
      </trkpt>
      <trkpt lat="29.85011" lon="-6.02595">
        <ele>528.381836</ele>
        <time>2010-01-21T11:00:16Z</time>
      </trkpt>
      <trkpt lat="29.85004" lon="-6.0305">
        <ele>527.42041</ele>
        <time>2010-01-21T11:00:43Z</time>
      </trkpt>
      <trkpt lat="29.84967" lon="-6.03415">
        <ele>528.381836</ele>
        <time>2010-01-21T11:01:06Z</time>
      </trkpt>
      <trkpt lat="29.84959" lon="-6.03491">
        <ele>527.42041</ele>
        <time>2010-01-21T11:01:15Z</time>
      </trkpt>
      <trkpt lat="29.84943" lon="-6.03596">
        <ele>527.42041</ele>
        <time>2010-01-21T11:01:28Z</time>
      </trkpt>
      <trkpt lat="29.84916" lon="-6.03642">
        <ele>527.901001</ele>
        <time>2010-01-21T11:01:36Z</time>
      </trkpt>
      <trkpt lat="29.84911" lon="-6.03671">
        <ele>527.42041</ele>
        <time>2010-01-21T11:01:42Z</time>
      </trkpt>
      <trkpt lat="29.84912" lon="-6.03687">
        <ele>524.536499</ele>
        <time>2010-01-21T11:02:29Z</time>
      </trkpt>
      <trkpt lat="29.84909" lon="-6.03766">
        <ele>518.287842</ele>
        <time>2010-01-21T11:02:44Z</time>
      </trkpt>
      <trkpt lat="29.84914" lon="-6.03793">
        <ele>517.807251</ele>
        <time>2010-01-21T11:02:48Z</time>
      </trkpt>
      <trkpt lat="29.8494" lon="-6.03887">
        <ele>515.884644</ele>
        <time>2010-01-21T11:03:02Z</time>
      </trkpt>
      <trkpt lat="29.84955" lon="-6.03912">
        <ele>515.404053</ele>
        <time>2010-01-21T11:03:06Z</time>
      </trkpt>
      <trkpt lat="29.84986" lon="-6.03953">
        <ele>514.92334</ele>
        <time>2010-01-21T11:03:13Z</time>
      </trkpt>
      <trkpt lat="29.85018" lon="-6.03997">
        <ele>513.962036</ele>
        <time>2010-01-21T11:03:21Z</time>
      </trkpt>
      <trkpt lat="29.85023" lon="-6.0401">
        <ele>513.962036</ele>
        <time>2010-01-21T11:03:23Z</time>
      </trkpt>
      <trkpt lat="29.85014" lon="-6.041">
        <ele>513.962036</ele>
        <time>2010-01-21T11:03:34Z</time>
      </trkpt>
      <trkpt lat="29.84987" lon="-6.04359">
        <ele>513.000732</ele>
        <time>2010-01-21T11:03:59Z</time>
      </trkpt>
      <trkpt lat="29.84982" lon="-6.04378">
        <ele>513.000732</ele>
        <time>2010-01-21T11:04:01Z</time>
      </trkpt>
      <trkpt lat="29.84974" lon="-6.04414">
        <ele>512.52002</ele>
        <time>2010-01-21T11:04:05Z</time>
      </trkpt>
      <trkpt lat="29.8497" lon="-6.04441">
        <ele>513.000732</ele>
        <time>2010-01-21T11:04:08Z</time>
      </trkpt>
      <trkpt lat="29.84964" lon="-6.0447">
        <ele>514.442627</ele>
        <time>2010-01-21T11:04:12Z</time>
      </trkpt>
      <trkpt lat="29.8494" lon="-6.04532">
        <ele>517.32666</ele>
        <time>2010-01-21T11:04:22Z</time>
      </trkpt>
      <trkpt lat="29.84852" lon="-6.04731">
        <ele>515.404053</ele>
        <time>2010-01-21T11:04:45Z</time>
      </trkpt>
      <trkpt lat="29.84847" lon="-6.04741">
        <ele>515.404053</ele>
        <time>2010-01-21T11:04:46Z</time>
      </trkpt>
      <trkpt lat="29.8472" lon="-6.05005">
        <ele>516.365234</ele>
        <time>2010-01-21T11:05:13Z</time>
      </trkpt>
      <trkpt lat="29.8459" lon="-6.05221">
        <ele>513.000732</ele>
        <time>2010-01-21T11:05:39Z</time>
      </trkpt>
      <trkpt lat="29.84529" lon="-6.05432">
        <ele>512.52002</ele>
        <time>2010-01-21T11:06:02Z</time>
      </trkpt>
      <trkpt lat="29.84523" lon="-6.05442">
        <ele>512.039429</ele>
        <time>2010-01-21T11:06:21Z</time>
      </trkpt>
      <trkpt lat="29.84479" lon="-6.05534">
        <ele>511.078003</ele>
        <time>2010-01-21T11:07:45Z</time>
      </trkpt>
      <trkpt lat="29.84476" lon="-6.05549">
        <ele>510.59729</ele>
        <time>2010-01-21T11:07:47Z</time>
      </trkpt>
      <trkpt lat="29.84477" lon="-6.05582">
        <ele>510.59729</ele>
        <time>2010-01-21T11:07:51Z</time>
      </trkpt>
      <trkpt lat="29.84484" lon="-6.05625">
        <ele>510.116699</ele>
        <time>2010-01-21T11:07:56Z</time>
      </trkpt>
      <trkpt lat="29.84488" lon="-6.05649">
        <ele>510.116699</ele>
        <time>2010-01-21T11:07:59Z</time>
      </trkpt>
      <trkpt lat="29.84495" lon="-6.05669">
        <ele>510.116699</ele>
        <time>2010-01-21T11:08:02Z</time>
      </trkpt>
      <trkpt lat="29.84492" lon="-6.05708">
        <ele>510.116699</ele>
        <time>2010-01-21T11:08:08Z</time>
      </trkpt>
      <trkpt lat="29.84436" lon="-6.05834">
        <ele>512.039429</ele>
        <time>2010-01-21T11:08:27Z</time>
      </trkpt>
      <trkpt lat="29.84415" lon="-6.05855">
        <ele>512.52002</ele>
        <time>2010-01-21T11:08:31Z</time>
      </trkpt>
      <trkpt lat="29.84247" lon="-6.05977">
        <ele>513.000732</ele>
        <time>2010-01-21T11:08:55Z</time>
      </trkpt>
      <trkpt lat="29.84236" lon="-6.05992">
        <ele>513.000732</ele>
        <time>2010-01-21T11:08:57Z</time>
      </trkpt>
      <trkpt lat="29.84213" lon="-6.06034">
        <ele>512.52002</ele>
        <time>2010-01-21T11:09:03Z</time>
      </trkpt>
      <trkpt lat="29.84081" lon="-6.06238">
        <ele>511.078003</ele>
        <time>2010-01-21T11:09:23Z</time>
      </trkpt>
      <trkpt lat="29.83867" lon="-6.06535">
        <ele>509.636108</ele>
        <time>2010-01-21T11:09:51Z</time>
      </trkpt>
      <trkpt lat="29.83825" lon="-6.06593">
        <ele>509.636108</ele>
        <time>2010-01-21T11:09:58Z</time>
      </trkpt>
      <trkpt lat="29.83765" lon="-6.06649">
        <ele>509.636108</ele>
        <time>2010-01-21T11:10:08Z</time>
      </trkpt>
      <trkpt lat="29.83753" lon="-6.06663">
        <ele>509.636108</ele>
        <time>2010-01-21T11:10:10Z</time>
      </trkpt>
      <trkpt lat="29.8373" lon="-6.067">
        <ele>510.59729</ele>
        <time>2010-01-21T11:10:15Z</time>
      </trkpt>
      <trkpt lat="29.83601" lon="-6.0683">
        <ele>510.116699</ele>
        <time>2010-01-21T11:10:36Z</time>
      </trkpt>
      <trkpt lat="29.83561" lon="-6.06877">
        <ele>509.636108</ele>
        <time>2010-01-21T11:10:43Z</time>
      </trkpt>
      <trkpt lat="29.83522" lon="-6.0697">
        <ele>509.636108</ele>
        <time>2010-01-21T11:10:54Z</time>
      </trkpt>
      <trkpt lat="29.83482" lon="-6.07087">
        <ele>509.636108</ele>
        <time>2010-01-21T11:11:08Z</time>
      </trkpt>
      <trkpt lat="29.83463" lon="-6.07118">
        <ele>509.636108</ele>
        <time>2010-01-21T11:11:12Z</time>
      </trkpt>
      <trkpt lat="29.83442" lon="-6.07147">
        <ele>509.636108</ele>
        <time>2010-01-21T11:11:16Z</time>
      </trkpt>
      <trkpt lat="29.83385" lon="-6.07188">
        <ele>510.116699</ele>
        <time>2010-01-21T11:11:25Z</time>
      </trkpt>
      <trkpt lat="29.83334" lon="-6.07253">
        <ele>512.039429</ele>
        <time>2010-01-21T11:11:36Z</time>
      </trkpt>
      <trkpt lat="29.83322" lon="-6.07273">
        <ele>512.039429</ele>
        <time>2010-01-21T11:11:40Z</time>
      </trkpt>
      <trkpt lat="29.83303" lon="-6.07295">
        <ele>512.039429</ele>
        <time>2010-01-21T11:11:45Z</time>
      </trkpt>
      <trkpt lat="29.83268" lon="-6.07345">
        <ele>513.000732</ele>
        <time>2010-01-21T11:11:54Z</time>
      </trkpt>
      <trkpt lat="29.83226" lon="-6.07412">
        <ele>513.481445</ele>
        <time>2010-01-21T11:12:06Z</time>
      </trkpt>
      <trkpt lat="29.83217" lon="-6.07439">
        <ele>511.558716</ele>
        <time>2010-01-21T11:12:12Z</time>
      </trkpt>
      <trkpt lat="29.83203" lon="-6.07466">
        <ele>511.078003</ele>
        <time>2010-01-21T11:12:17Z</time>
      </trkpt>
      <trkpt lat="29.8319" lon="-6.07511">
        <ele>510.116699</ele>
        <time>2010-01-21T11:12:35Z</time>
      </trkpt>
      <trkpt lat="29.83184" lon="-6.07568">
        <ele>507.713501</ele>
        <time>2010-01-21T11:13:00Z</time>
      </trkpt>
      <trkpt lat="29.83177" lon="-6.07684">
        <ele>507.232788</ele>
        <time>2010-01-21T11:13:14Z</time>
      </trkpt>
      <trkpt lat="29.83159" lon="-6.07722">
        <ele>507.713501</ele>
        <time>2010-01-21T11:13:19Z</time>
      </trkpt>
      <trkpt lat="29.83116" lon="-6.07803">
        <ele>510.116699</ele>
        <time>2010-01-21T11:13:29Z</time>
      </trkpt>
      <trkpt lat="29.83112" lon="-6.07839">
        <ele>509.636108</ele>
        <time>2010-01-21T11:13:33Z</time>
      </trkpt>
      <trkpt lat="29.83105" lon="-6.0802">
        <ele>507.232788</ele>
        <time>2010-01-21T11:13:52Z</time>
      </trkpt>
      <trkpt lat="29.83129" lon="-6.08155">
        <ele>507.232788</ele>
        <time>2010-01-21T11:14:05Z</time>
      </trkpt>
      <trkpt lat="29.8315" lon="-6.08205">
        <ele>508.194092</ele>
        <time>2010-01-21T11:14:10Z</time>
      </trkpt>
      <trkpt lat="29.83192" lon="-6.08271">
        <ele>507.713501</ele>
        <time>2010-01-21T11:14:18Z</time>
      </trkpt>
      <trkpt lat="29.83224" lon="-6.08327">
        <ele>507.713501</ele>
        <time>2010-01-21T11:14:26Z</time>
      </trkpt>
      <trkpt lat="29.83392" lon="-6.08461">
        <ele>507.713501</ele>
        <time>2010-01-21T11:14:48Z</time>
      </trkpt>
      <trkpt lat="29.8346" lon="-6.08534">
        <ele>507.713501</ele>
        <time>2010-01-21T11:14:57Z</time>
      </trkpt>
      <trkpt lat="29.83473" lon="-6.08552">
        <ele>507.713501</ele>
        <time>2010-01-21T11:14:59Z</time>
      </trkpt>
      <trkpt lat="29.83592" lon="-6.08649">
        <ele>508.194092</ele>
        <time>2010-01-21T11:15:16Z</time>
      </trkpt>
      <trkpt lat="29.83638" lon="-6.08691">
        <ele>508.194092</ele>
        <time>2010-01-21T11:15:23Z</time>
      </trkpt>
      <trkpt lat="29.83729" lon="-6.08822">
        <ele>508.194092</ele>
        <time>2010-01-21T11:15:43Z</time>
      </trkpt>
      <trkpt lat="29.83816" lon="-6.08995">
        <ele>508.674683</ele>
        <time>2010-01-21T11:16:09Z</time>
      </trkpt>
      <trkpt lat="29.83823" lon="-6.09008">
        <ele>508.674683</ele>
        <time>2010-01-21T11:16:11Z</time>
      </trkpt>
      <trkpt lat="29.83851" lon="-6.09042">
        <ele>509.636108</ele>
        <time>2010-01-21T11:16:17Z</time>
      </trkpt>
      <trkpt lat="29.83861" lon="-6.09074">
        <ele>510.116699</ele>
        <time>2010-01-21T11:16:22Z</time>
      </trkpt>
      <trkpt lat="29.83857" lon="-6.09104">
        <ele>511.078003</ele>
        <time>2010-01-21T11:16:28Z</time>
      </trkpt>
      <trkpt lat="29.8387" lon="-6.09129">
        <ele>513.481445</ele>
        <time>2010-01-21T11:16:34Z</time>
      </trkpt>
      <trkpt lat="29.8388" lon="-6.09145">
        <ele>514.442627</ele>
        <time>2010-01-21T11:16:43Z</time>
      </trkpt>
      <trkpt lat="29.83877" lon="-6.09163">
        <ele>513.000732</ele>
        <time>2010-01-21T11:17:08Z</time>
      </trkpt>
      <trkpt lat="29.83885" lon="-6.09188">
        <ele>512.52002</ele>
        <time>2010-01-21T11:17:14Z</time>
      </trkpt>
      <trkpt lat="29.83894" lon="-6.09217">
        <ele>512.039429</ele>
        <time>2010-01-21T11:17:20Z</time>
      </trkpt>
      <trkpt lat="29.83909" lon="-6.09274">
        <ele>510.59729</ele>
        <time>2010-01-21T11:17:29Z</time>
      </trkpt>
      <trkpt lat="29.83951" lon="-6.09363">
        <ele>510.116699</ele>
        <time>2010-01-21T11:17:44Z</time>
      </trkpt>
      <trkpt lat="29.83982" lon="-6.09415">
        <ele>509.636108</ele>
        <time>2010-01-21T11:17:53Z</time>
      </trkpt>
      <trkpt lat="29.83992" lon="-6.09448">
        <ele>508.674683</ele>
        <time>2010-01-21T11:17:59Z</time>
      </trkpt>
      <trkpt lat="29.83992" lon="-6.09533">
        <ele>507.713501</ele>
        <time>2010-01-21T11:18:10Z</time>
      </trkpt>
      <trkpt lat="29.83985" lon="-6.09569">
        <ele>507.713501</ele>
        <time>2010-01-21T11:18:14Z</time>
      </trkpt>
      <trkpt lat="29.83976" lon="-6.09598">
        <ele>508.194092</ele>
        <time>2010-01-21T11:18:18Z</time>
      </trkpt>
      <trkpt lat="29.83966" lon="-6.09661">
        <ele>507.713501</ele>
        <time>2010-01-21T11:18:27Z</time>
      </trkpt>
      <trkpt lat="29.83954" lon="-6.09729">
        <ele>507.713501</ele>
        <time>2010-01-21T11:18:37Z</time>
      </trkpt>
      <trkpt lat="29.83944" lon="-6.09785">
        <ele>508.194092</ele>
        <time>2010-01-21T11:18:44Z</time>
      </trkpt>
      <trkpt lat="29.83939" lon="-6.09856">
        <ele>508.194092</ele>
        <time>2010-01-21T11:18:51Z</time>
      </trkpt>
      <trkpt lat="29.83925" lon="-6.09966">
        <ele>509.155396</ele>
        <time>2010-01-21T11:19:01Z</time>
      </trkpt>
      <trkpt lat="29.8394" lon="-6.10024">
        <ele>510.116699</ele>
        <time>2010-01-21T11:19:07Z</time>
      </trkpt>
      <trkpt lat="29.83949" lon="-6.10199">
        <ele>515.404053</ele>
        <time>2010-01-21T11:19:27Z</time>
      </trkpt>
      <trkpt lat="29.83939" lon="-6.10357">
        <ele>525.497803</ele>
        <time>2010-01-21T11:19:51Z</time>
      </trkpt>
      <trkpt lat="29.83937" lon="-6.1036">
        <ele>527.42041</ele>
        <time>2010-01-21T11:20:22Z</time>
      </trkpt>
      <trkpt lat="29.83883" lon="-6.10392">
        <ele>527.42041</ele>
        <time>2010-01-21T11:20:44Z</time>
      </trkpt>
      <trkpt lat="29.83811" lon="-6.10444">
        <ele>527.901001</ele>
        <time>2010-01-21T11:21:09Z</time>
      </trkpt>
      <trkpt lat="29.83808" lon="-6.10456">
        <ele>527.42041</ele>
        <time>2010-01-21T11:21:13Z</time>
      </trkpt>
      <trkpt lat="29.83811" lon="-6.10485">
        <ele>526.459106</ele>
        <time>2010-01-21T11:21:19Z</time>
      </trkpt>
      <trkpt lat="29.8381" lon="-6.10512">
        <ele>525.978394</ele>
        <time>2010-01-21T11:21:24Z</time>
      </trkpt>
      <trkpt lat="29.83801" lon="-6.10533">
        <ele>525.497803</ele>
        <time>2010-01-21T11:21:29Z</time>
      </trkpt>
      <trkpt lat="29.83801" lon="-6.10546">
        <ele>525.978394</ele>
        <time>2010-01-21T11:21:32Z</time>
      </trkpt>
      <trkpt lat="29.8377" lon="-6.10583">
        <ele>523.575195</ele>
        <time>2010-01-21T11:21:44Z</time>
      </trkpt>
      <trkpt lat="29.83758" lon="-6.10585">
        <ele>522.613892</ele>
        <time>2010-01-21T11:21:47Z</time>
      </trkpt>
      <trkpt lat="29.83737" lon="-6.10601">
        <ele>519.729858</ele>
        <time>2010-01-21T11:21:53Z</time>
      </trkpt>
      <trkpt lat="29.83727" lon="-6.10612">
        <ele>519.249268</ele>
        <time>2010-01-21T11:21:56Z</time>
      </trkpt>
      <trkpt lat="29.8371" lon="-6.10624">
        <ele>518.287842</ele>
        <time>2010-01-21T11:22:00Z</time>
      </trkpt>
      <trkpt lat="29.837" lon="-6.10629">
        <ele>518.287842</ele>
        <time>2010-01-21T11:22:02Z</time>
      </trkpt>
      <trkpt lat="29.83687" lon="-6.10651">
        <ele>517.807251</ele>
        <time>2010-01-21T11:22:06Z</time>
      </trkpt>
      <trkpt lat="29.83678" lon="-6.1067">
        <ele>517.807251</ele>
        <time>2010-01-21T11:22:09Z</time>
      </trkpt>
      <trkpt lat="29.83666" lon="-6.10735">
        <ele>515.884644</ele>
        <time>2010-01-21T11:22:18Z</time>
      </trkpt>
      <trkpt lat="29.83667" lon="-6.10757">
        <ele>514.92334</ele>
        <time>2010-01-21T11:22:21Z</time>
      </trkpt>
      <trkpt lat="29.83657" lon="-6.1081">
        <ele>513.481445</ele>
        <time>2010-01-21T11:22:28Z</time>
      </trkpt>
      <trkpt lat="29.83628" lon="-6.10925">
        <ele>512.039429</ele>
        <time>2010-01-21T11:22:48Z</time>
      </trkpt>
      <trkpt lat="29.83625" lon="-6.10936">
        <ele>511.558716</ele>
        <time>2010-01-21T11:22:50Z</time>
      </trkpt>
      <trkpt lat="29.83624" lon="-6.10958">
        <ele>511.558716</ele>
        <time>2010-01-21T11:22:54Z</time>
      </trkpt>
      <trkpt lat="29.83616" lon="-6.10982">
        <ele>511.078003</ele>
        <time>2010-01-21T11:22:58Z</time>
      </trkpt>
      <trkpt lat="29.83584" lon="-6.11034">
        <ele>510.59729</ele>
        <time>2010-01-21T11:23:06Z</time>
      </trkpt>
      <trkpt lat="29.83562" lon="-6.11094">
        <ele>509.636108</ele>
        <time>2010-01-21T11:23:14Z</time>
      </trkpt>
      <trkpt lat="29.83526" lon="-6.11137">
        <ele>508.674683</ele>
        <time>2010-01-21T11:23:21Z</time>
      </trkpt>
      <trkpt lat="29.83478" lon="-6.11168">
        <ele>508.194092</ele>
        <time>2010-01-21T11:23:28Z</time>
      </trkpt>
      <trkpt lat="29.83435" lon="-6.11224">
        <ele>507.232788</ele>
        <time>2010-01-21T11:23:37Z</time>
      </trkpt>
      <trkpt lat="29.83403" lon="-6.11239">
        <ele>506.752075</ele>
        <time>2010-01-21T11:23:42Z</time>
      </trkpt>
      <trkpt lat="29.8339" lon="-6.11241">
        <ele>506.752075</ele>
        <time>2010-01-21T11:23:44Z</time>
      </trkpt>
      <trkpt lat="29.83352" lon="-6.11267">
        <ele>506.271484</ele>
        <time>2010-01-21T11:23:50Z</time>
      </trkpt>
      <trkpt lat="29.83322" lon="-6.11312">
        <ele>505.790894</ele>
        <time>2010-01-21T11:23:57Z</time>
      </trkpt>
      <trkpt lat="29.83221" lon="-6.11398">
        <ele>504.829468</ele>
        <time>2010-01-21T11:24:12Z</time>
      </trkpt>
      <trkpt lat="29.83204" lon="-6.1142">
        <ele>504.829468</ele>
        <time>2010-01-21T11:24:15Z</time>
      </trkpt>
      <trkpt lat="29.83186" lon="-6.1144">
        <ele>504.829468</ele>
        <time>2010-01-21T11:24:18Z</time>
      </trkpt>
      <trkpt lat="29.83152" lon="-6.11483">
        <ele>504.348877</ele>
        <time>2010-01-21T11:24:24Z</time>
      </trkpt>
      <trkpt lat="29.83065" lon="-6.11556">
        <ele>503.387451</ele>
        <time>2010-01-21T11:24:37Z</time>
      </trkpt>
      <trkpt lat="29.82978" lon="-6.11684">
        <ele>503.868164</ele>
        <time>2010-01-21T11:24:55Z</time>
      </trkpt>
      <trkpt lat="29.82846" lon="-6.11772">
        <ele>503.868164</ele>
        <time>2010-01-21T11:25:15Z</time>
      </trkpt>
      <trkpt lat="29.82795" lon="-6.11828">
        <ele>502.906738</ele>
        <time>2010-01-21T11:25:28Z</time>
      </trkpt>
      <trkpt lat="29.82771" lon="-6.11846">
        <ele>502.426147</ele>
        <time>2010-01-21T11:25:32Z</time>
      </trkpt>
      <trkpt lat="29.82683" lon="-6.1189">
        <ele>501.464844</ele>
        <time>2010-01-21T11:25:44Z</time>
      </trkpt>
      <trkpt lat="29.82594" lon="-6.12095">
        <ele>500.984131</ele>
        <time>2010-01-21T11:26:05Z</time>
      </trkpt>
      <trkpt lat="29.82594" lon="-6.12095">
        <ele>500.984131</ele>
        <time>2010-01-21T11:26:05Z</time>
      </trkpt>
      <trkpt lat="29.82575" lon="-6.12178">
        <ele>500.022949</ele>
        <time>2010-01-21T11:26:12Z</time>
      </trkpt>
      <trkpt lat="29.82559" lon="-6.1221">
        <ele>499.542236</ele>
        <time>2010-01-21T11:26:15Z</time>
      </trkpt>
      <trkpt lat="29.82517" lon="-6.12326">
        <ele>498.100342</ele>
        <time>2010-01-21T11:26:25Z</time>
      </trkpt>
      <trkpt lat="29.82416" lon="-6.12502">
        <ele>498.580933</ele>
        <time>2010-01-21T11:26:43Z</time>
      </trkpt>
      <trkpt lat="29.82301" lon="-6.12681">
        <ele>498.580933</ele>
        <time>2010-01-21T11:27:03Z</time>
      </trkpt>
      <trkpt lat="29.82245" lon="-6.12744">
        <ele>498.580933</ele>
        <time>2010-01-21T11:27:15Z</time>
      </trkpt>
      <trkpt lat="29.82161" lon="-6.12825">
        <ele>498.100342</ele>
        <time>2010-01-21T11:27:35Z</time>
      </trkpt>
      <trkpt lat="29.82138" lon="-6.12927">
        <ele>498.580933</ele>
        <time>2010-01-21T11:37:18Z</time>
      </trkpt>
      <trkpt lat="29.8208" lon="-6.13243">
        <ele>496.658325</ele>
        <time>2010-01-21T11:37:43Z</time>
      </trkpt>
      <trkpt lat="29.82045" lon="-6.13404">
        <ele>496.177734</ele>
        <time>2010-01-21T11:38:01Z</time>
      </trkpt>
      <trkpt lat="29.82044" lon="-6.13419">
        <ele>496.177734</ele>
        <time>2010-01-21T11:38:47Z</time>
      </trkpt>
      <trkpt lat="29.82052" lon="-6.13448">
        <ele>496.177734</ele>
        <time>2010-01-21T11:38:52Z</time>
      </trkpt>
      <trkpt lat="29.82055" lon="-6.13459">
        <ele>495.696899</ele>
        <time>2010-01-21T11:38:54Z</time>
      </trkpt>
      <trkpt lat="29.82066" lon="-6.13475">
        <ele>495.696899</ele>
        <time>2010-01-21T11:38:58Z</time>
      </trkpt>
      <trkpt lat="29.82077" lon="-6.13516">
        <ele>495.696899</ele>
        <time>2010-01-21T11:39:05Z</time>
      </trkpt>
      <trkpt lat="29.82057" lon="-6.13611">
        <ele>496.658325</ele>
        <time>2010-01-21T11:39:19Z</time>
      </trkpt>
      <trkpt lat="29.82053" lon="-6.13644">
        <ele>496.658325</ele>
        <time>2010-01-21T11:39:24Z</time>
      </trkpt>
      <trkpt lat="29.82054" lon="-6.13681">
        <ele>497.619629</ele>
        <time>2010-01-21T11:39:29Z</time>
      </trkpt>
      <trkpt lat="29.82011" lon="-6.1374">
        <ele>502.906738</ele>
        <time>2010-01-21T11:39:44Z</time>
      </trkpt>
      <trkpt lat="29.81995" lon="-6.13748">
        <ele>503.868164</ele>
        <time>2010-01-21T11:39:49Z</time>
      </trkpt>
      <trkpt lat="29.81978" lon="-6.13767">
        <ele>504.829468</ele>
        <time>2010-01-21T11:39:54Z</time>
      </trkpt>
      <trkpt lat="29.81973" lon="-6.13788">
        <ele>505.310181</ele>
        <time>2010-01-21T11:39:58Z</time>
      </trkpt>
      <trkpt lat="29.81989" lon="-6.13828">
        <ele>501.945557</ele>
        <time>2010-01-21T11:40:21Z</time>
      </trkpt>
      <trkpt lat="29.82008" lon="-6.13851">
        <ele>499.542236</ele>
        <time>2010-01-21T11:40:26Z</time>
      </trkpt>
      <trkpt lat="29.82016" lon="-6.13873">
        <ele>499.061523</ele>
        <time>2010-01-21T11:40:30Z</time>
      </trkpt>
      <trkpt lat="29.82035" lon="-6.1391">
        <ele>497.619629</ele>
        <time>2010-01-21T11:40:36Z</time>
      </trkpt>
      <trkpt lat="29.82025" lon="-6.13952">
        <ele>497.138916</ele>
        <time>2010-01-21T11:40:42Z</time>
      </trkpt>
      <trkpt lat="29.82017" lon="-6.13967">
        <ele>497.138916</ele>
        <time>2010-01-21T11:40:44Z</time>
      </trkpt>
      <trkpt lat="29.81997" lon="-6.13994">
        <ele>497.138916</ele>
        <time>2010-01-21T11:40:48Z</time>
      </trkpt>
      <trkpt lat="29.81953" lon="-6.14062">
        <ele>497.138916</ele>
        <time>2010-01-21T11:40:58Z</time>
      </trkpt>
      <trkpt lat="29.81906" lon="-6.14158">
        <ele>496.658325</ele>
        <time>2010-01-21T11:41:10Z</time>
      </trkpt>
      <trkpt lat="29.81866" lon="-6.14283">
        <ele>496.177734</ele>
        <time>2010-01-21T11:41:27Z</time>
      </trkpt>
      <trkpt lat="29.81864" lon="-6.14313">
        <ele>496.177734</ele>
        <time>2010-01-21T11:41:31Z</time>
      </trkpt>
      <trkpt lat="29.81863" lon="-6.14327">
        <ele>496.177734</ele>
        <time>2010-01-21T11:41:33Z</time>
      </trkpt>
      <trkpt lat="29.81862" lon="-6.14372">
        <ele>495.696899</ele>
        <time>2010-01-21T11:41:39Z</time>
      </trkpt>
      <trkpt lat="29.81863" lon="-6.14385">
        <ele>495.696899</ele>
        <time>2010-01-21T11:41:41Z</time>
      </trkpt>
      <trkpt lat="29.81835" lon="-6.14478">
        <ele>495.216187</ele>
        <time>2010-01-21T11:41:54Z</time>
      </trkpt>
      <trkpt lat="29.81815" lon="-6.1456">
        <ele>494.735596</ele>
        <time>2010-01-21T11:42:04Z</time>
      </trkpt>
      <trkpt lat="29.81819" lon="-6.14596">
        <ele>495.216187</ele>
        <time>2010-01-21T11:42:09Z</time>
      </trkpt>
      <trkpt lat="29.81852" lon="-6.14817">
        <ele>494.735596</ele>
        <time>2010-01-21T11:42:37Z</time>
      </trkpt>
      <trkpt lat="29.81855" lon="-6.14837">
        <ele>494.735596</ele>
        <time>2010-01-21T11:42:39Z</time>
      </trkpt>
      <trkpt lat="29.81884" lon="-6.14909">
        <ele>494.735596</ele>
        <time>2010-01-21T11:42:50Z</time>
      </trkpt>
      <trkpt lat="29.81954" lon="-6.15164">
        <ele>494.255005</ele>
        <time>2010-01-21T11:43:16Z</time>
      </trkpt>
      <trkpt lat="29.8202" lon="-6.15333">
        <ele>494.255005</ele>
        <time>2010-01-21T11:43:41Z</time>
      </trkpt>
      <trkpt lat="29.82095" lon="-6.15422">
        <ele>494.255005</ele>
        <time>2010-01-21T11:44:03Z</time>
      </trkpt>
      <trkpt lat="29.82151" lon="-6.15471">
        <ele>494.255005</ele>
        <time>2010-01-21T11:44:15Z</time>
      </trkpt>
      <trkpt lat="29.8218" lon="-6.15489">
        <ele>494.255005</ele>
        <time>2010-01-21T11:44:21Z</time>
      </trkpt>
      <trkpt lat="29.82235" lon="-6.15516">
        <ele>494.735596</ele>
        <time>2010-01-21T11:44:31Z</time>
      </trkpt>
      <trkpt lat="29.82253" lon="-6.15535">
        <ele>494.735596</ele>
        <time>2010-01-21T11:44:35Z</time>
      </trkpt>
      <trkpt lat="29.82273" lon="-6.15566">
        <ele>494.735596</ele>
        <time>2010-01-21T11:44:40Z</time>
      </trkpt>
      <trkpt lat="29.82297" lon="-6.15589">
        <ele>494.735596</ele>
        <time>2010-01-21T11:44:45Z</time>
      </trkpt>
      <trkpt lat="29.82353" lon="-6.15654">
        <ele>494.255005</ele>
        <time>2010-01-21T11:44:59Z</time>
      </trkpt>
      <trkpt lat="29.82403" lon="-6.15692">
        <ele>494.255005</ele>
        <time>2010-01-21T11:45:07Z</time>
      </trkpt>
      <trkpt lat="29.82419" lon="-6.15726">
        <ele>494.255005</ele>
        <time>2010-01-21T11:45:12Z</time>
      </trkpt>
      <trkpt lat="29.82482" lon="-6.15924">
        <ele>494.255005</ele>
        <time>2010-01-21T11:45:34Z</time>
      </trkpt>
      <trkpt lat="29.82621" lon="-6.16189">
        <ele>493.774292</ele>
        <time>2010-01-21T11:46:01Z</time>
      </trkpt>
      <trkpt lat="29.8271" lon="-6.16377">
        <ele>493.774292</ele>
        <time>2010-01-21T11:46:22Z</time>
      </trkpt>
      <trkpt lat="29.82713" lon="-6.1641">
        <ele>493.774292</ele>
        <time>2010-01-21T11:46:26Z</time>
      </trkpt>
      <trkpt lat="29.827" lon="-6.16654">
        <ele>492.812988</ele>
        <time>2010-01-21T11:46:52Z</time>
      </trkpt>
      <trkpt lat="29.82759" lon="-6.16941">
        <ele>492.812988</ele>
        <time>2010-01-21T11:47:18Z</time>
      </trkpt>
      <trkpt lat="29.82815" lon="-6.171">
        <ele>492.332397</ele>
        <time>2010-01-21T11:47:33Z</time>
      </trkpt>
      <trkpt lat="29.82863" lon="-6.1726">
        <ele>492.812988</ele>
        <time>2010-01-21T11:47:47Z</time>
      </trkpt>
      <trkpt lat="29.8288" lon="-6.17302">
        <ele>492.812988</ele>
        <time>2010-01-21T11:47:51Z</time>
      </trkpt>
      <trkpt lat="29.82993" lon="-6.17505">
        <ele>491.851685</ele>
        <time>2010-01-21T11:48:12Z</time>
      </trkpt>
      <trkpt lat="29.83047" lon="-6.17787">
        <ele>491.851685</ele>
        <time>2010-01-21T11:48:37Z</time>
      </trkpt>
      <trkpt lat="29.83111" lon="-6.18171">
        <ele>492.332397</ele>
        <time>2010-01-21T11:49:05Z</time>
      </trkpt>
      <trkpt lat="29.83132" lon="-6.1836">
        <ele>492.332397</ele>
        <time>2010-01-21T11:49:24Z</time>
      </trkpt>
      <trkpt lat="29.83138" lon="-6.18392">
        <ele>492.332397</ele>
        <time>2010-01-21T11:49:27Z</time>
      </trkpt>
      <trkpt lat="29.83158" lon="-6.18438">
        <ele>492.332397</ele>
        <time>2010-01-21T11:49:32Z</time>
      </trkpt>
      <trkpt lat="29.83202" lon="-6.18514">
        <ele>492.332397</ele>
        <time>2010-01-21T11:49:42Z</time>
      </trkpt>
      <trkpt lat="29.8323" lon="-6.18545">
        <ele>492.332397</ele>
        <time>2010-01-21T11:49:49Z</time>
      </trkpt>
      <trkpt lat="29.83261" lon="-6.18597">
        <ele>492.332397</ele>
        <time>2010-01-21T11:49:57Z</time>
      </trkpt>
      <trkpt lat="29.83281" lon="-6.18652">
        <ele>492.332397</ele>
        <time>2010-01-21T11:50:05Z</time>
      </trkpt>
      <trkpt lat="29.83289" lon="-6.18665">
        <ele>491.851685</ele>
        <time>2010-01-21T11:50:25Z</time>
      </trkpt>
      <trkpt lat="29.83292" lon="-6.18669">
        <ele>491.851685</ele>
        <time>2010-01-21T11:50:29Z</time>
      </trkpt>
      <trkpt lat="29.83297" lon="-6.18701">
        <ele>491.851685</ele>
        <time>2010-01-21T11:50:35Z</time>
      </trkpt>
      <trkpt lat="29.83297" lon="-6.18713">
        <ele>491.851685</ele>
        <time>2010-01-21T11:50:37Z</time>
      </trkpt>
      <trkpt lat="29.8331" lon="-6.18728">
        <ele>491.851685</ele>
        <time>2010-01-21T11:50:41Z</time>
      </trkpt>
      <trkpt lat="29.8331" lon="-6.1878">
        <ele>491.851685</ele>
        <time>2010-01-21T11:50:51Z</time>
      </trkpt>
      <trkpt lat="29.83295" lon="-6.18806">
        <ele>491.851685</ele>
        <time>2010-01-21T11:50:57Z</time>
      </trkpt>
      <trkpt lat="29.83291" lon="-6.18817">
        <ele>491.851685</ele>
        <time>2010-01-21T11:50:59Z</time>
      </trkpt>
      <trkpt lat="29.83296" lon="-6.1886">
        <ele>491.851685</ele>
        <time>2010-01-21T11:51:06Z</time>
      </trkpt>
      <trkpt lat="29.83312" lon="-6.18908">
        <ele>491.851685</ele>
        <time>2010-01-21T11:51:13Z</time>
      </trkpt>
      <trkpt lat="29.83328" lon="-6.18932">
        <ele>492.812988</ele>
        <time>2010-01-21T11:51:17Z</time>
      </trkpt>
      <trkpt lat="29.83335" lon="-6.18966">
        <ele>491.851685</ele>
        <time>2010-01-21T11:51:22Z</time>
      </trkpt>
      <trkpt lat="29.83339" lon="-6.18987">
        <ele>492.332397</ele>
        <time>2010-01-21T11:51:25Z</time>
      </trkpt>
      <trkpt lat="29.8334" lon="-6.19009">
        <ele>492.332397</ele>
        <time>2010-01-21T11:51:28Z</time>
      </trkpt>
      <trkpt lat="29.83344" lon="-6.1903">
        <ele>492.332397</ele>
        <time>2010-01-21T11:51:31Z</time>
      </trkpt>
      <trkpt lat="29.83344" lon="-6.19044">
        <ele>492.812988</ele>
        <time>2010-01-21T11:51:33Z</time>
      </trkpt>
      <trkpt lat="29.8334" lon="-6.19144">
        <ele>492.332397</ele>
        <time>2010-01-21T11:51:48Z</time>
      </trkpt>
      <trkpt lat="29.83346" lon="-6.19283">
        <ele>492.332397</ele>
        <time>2010-01-21T11:52:08Z</time>
      </trkpt>
      <trkpt lat="29.83342" lon="-6.19334">
        <ele>492.812988</ele>
        <time>2010-01-21T11:52:15Z</time>
      </trkpt>
      <trkpt lat="29.83335" lon="-6.1937">
        <ele>492.332397</ele>
        <time>2010-01-21T11:52:20Z</time>
      </trkpt>
      <trkpt lat="29.83331" lon="-6.19503">
        <ele>492.332397</ele>
        <time>2010-01-21T11:52:37Z</time>
      </trkpt>
      <trkpt lat="29.83336" lon="-6.19534">
        <ele>492.332397</ele>
        <time>2010-01-21T11:52:41Z</time>
      </trkpt>
      <trkpt lat="29.83394" lon="-6.19588">
        <ele>491.851685</ele>
        <time>2010-01-21T11:52:52Z</time>
      </trkpt>
      <trkpt lat="29.83431" lon="-6.19594">
        <ele>491.851685</ele>
        <time>2010-01-21T11:52:57Z</time>
      </trkpt>
      <trkpt lat="29.83456" lon="-6.19609">
        <ele>491.851685</ele>
        <time>2010-01-21T11:53:01Z</time>
      </trkpt>
      <trkpt lat="29.83466" lon="-6.19619">
        <ele>491.851685</ele>
        <time>2010-01-21T11:53:03Z</time>
      </trkpt>
      <trkpt lat="29.8349" lon="-6.19631">
        <ele>491.851685</ele>
        <time>2010-01-21T11:53:07Z</time>
      </trkpt>
      <trkpt lat="29.8351" lon="-6.19648">
        <ele>491.851685</ele>
        <time>2010-01-21T11:53:11Z</time>
      </trkpt>
      <trkpt lat="29.83523" lon="-6.19664">
        <ele>491.851685</ele>
        <time>2010-01-21T11:53:14Z</time>
      </trkpt>
      <trkpt lat="29.8354" lon="-6.19676">
        <ele>491.851685</ele>
        <time>2010-01-21T11:53:18Z</time>
      </trkpt>
      <trkpt lat="29.83581" lon="-6.19693">
        <ele>492.332397</ele>
        <time>2010-01-21T11:53:32Z</time>
      </trkpt>
      <trkpt lat="29.83731" lon="-6.198">
        <ele>492.332397</ele>
        <time>2010-01-21T11:54:00Z</time>
      </trkpt>
      <trkpt lat="29.8376" lon="-6.19808">
        <ele>492.332397</ele>
        <time>2010-01-21T11:54:28Z</time>
      </trkpt>
      <trkpt lat="29.83956" lon="-6.19862">
        <ele>492.332397</ele>
        <time>2010-01-21T11:54:54Z</time>
      </trkpt>
      <trkpt lat="29.84082" lon="-6.19906">
        <ele>492.812988</ele>
        <time>2010-01-21T11:55:19Z</time>
      </trkpt>
      <trkpt lat="29.84143" lon="-6.19931">
        <ele>492.812988</ele>
        <time>2010-01-21T11:55:35Z</time>
      </trkpt>
      <trkpt lat="29.8423" lon="-6.19996">
        <ele>492.812988</ele>
        <time>2010-01-21T11:55:50Z</time>
      </trkpt>
      <trkpt lat="29.843" lon="-6.20064">
        <ele>493.293579</ele>
        <time>2010-01-21T11:56:03Z</time>
      </trkpt>
      <trkpt lat="29.8431" lon="-6.20087">
        <ele>492.812988</ele>
        <time>2010-01-21T11:56:07Z</time>
      </trkpt>
      <trkpt lat="29.84329" lon="-6.20117">
        <ele>492.812988</ele>
        <time>2010-01-21T11:56:12Z</time>
      </trkpt>
      <trkpt lat="29.84339" lon="-6.20126">
        <ele>492.812988</ele>
        <time>2010-01-21T11:56:14Z</time>
      </trkpt>
      <trkpt lat="29.84409" lon="-6.20145">
        <ele>492.812988</ele>
        <time>2010-01-21T11:56:30Z</time>
      </trkpt>
      <trkpt lat="29.84416" lon="-6.20152">
        <ele>492.812988</ele>
        <time>2010-01-21T11:56:32Z</time>
      </trkpt>
      <trkpt lat="29.84444" lon="-6.20174">
        <ele>492.812988</ele>
        <time>2010-01-21T11:56:39Z</time>
      </trkpt>
      <trkpt lat="29.84464" lon="-6.20206">
        <ele>492.812988</ele>
        <time>2010-01-21T11:56:45Z</time>
      </trkpt>
      <trkpt lat="29.84484" lon="-6.20225">
        <ele>492.812988</ele>
        <time>2010-01-21T11:56:49Z</time>
      </trkpt>
      <trkpt lat="29.84534" lon="-6.20259">
        <ele>492.812988</ele>
        <time>2010-01-21T11:56:58Z</time>
      </trkpt>
      <trkpt lat="29.84621" lon="-6.20322">
        <ele>492.812988</ele>
        <time>2010-01-21T11:57:13Z</time>
      </trkpt>
      <trkpt lat="29.84655" lon="-6.20392">
        <ele>492.332397</ele>
        <time>2010-01-21T11:57:22Z</time>
      </trkpt>
      <trkpt lat="29.8467" lon="-6.20411">
        <ele>492.332397</ele>
        <time>2010-01-21T11:57:25Z</time>
      </trkpt>
      <trkpt lat="29.84721" lon="-6.20476">
        <ele>491.851685</ele>
        <time>2010-01-21T11:57:44Z</time>
      </trkpt>
      <trkpt lat="29.8474" lon="-6.2051">
        <ele>493.293579</ele>
        <time>2010-01-21T11:59:44Z</time>
      </trkpt>
      <trkpt lat="29.84752" lon="-6.20541">
        <ele>492.812988</ele>
        <time>2010-01-21T11:59:49Z</time>
      </trkpt>
      <trkpt lat="29.84758" lon="-6.20552">
        <ele>492.332397</ele>
        <time>2010-01-21T11:59:51Z</time>
      </trkpt>
      <trkpt lat="29.84785" lon="-6.20581">
        <ele>492.332397</ele>
        <time>2010-01-21T11:59:57Z</time>
      </trkpt>
      <trkpt lat="29.84794" lon="-6.20596">
        <ele>492.812988</ele>
        <time>2010-01-21T12:00:00Z</time>
      </trkpt>
      <trkpt lat="29.84803" lon="-6.20614">
        <ele>492.812988</ele>
        <time>2010-01-21T12:00:03Z</time>
      </trkpt>
      <trkpt lat="29.84823" lon="-6.20642">
        <ele>491.851685</ele>
        <time>2010-01-21T12:00:08Z</time>
      </trkpt>
      <trkpt lat="29.84893" lon="-6.2071">
        <ele>491.851685</ele>
        <time>2010-01-21T12:00:23Z</time>
      </trkpt>
      <trkpt lat="29.84916" lon="-6.20724">
        <ele>491.851685</ele>
        <time>2010-01-21T12:00:27Z</time>
      </trkpt>
      <trkpt lat="29.84966" lon="-6.2079">
        <ele>491.851685</ele>
        <time>2010-01-21T12:00:40Z</time>
      </trkpt>
      <trkpt lat="29.85045" lon="-6.2096">
        <ele>491.851685</ele>
        <time>2010-01-21T12:01:05Z</time>
      </trkpt>
      <trkpt lat="29.85126" lon="-6.21099">
        <ele>491.851685</ele>
        <time>2010-01-21T12:01:25Z</time>
      </trkpt>
      <trkpt lat="29.85147" lon="-6.21145">
        <ele>491.851685</ele>
        <time>2010-01-21T12:01:32Z</time>
      </trkpt>
      <trkpt lat="29.85207" lon="-6.21258">
        <ele>491.370972</ele>
        <time>2010-01-21T12:01:51Z</time>
      </trkpt>
      <trkpt lat="29.8523" lon="-6.21277">
        <ele>491.370972</ele>
        <time>2010-01-21T12:01:56Z</time>
      </trkpt>
      <trkpt lat="29.85245" lon="-6.21284">
        <ele>491.370972</ele>
        <time>2010-01-21T12:01:59Z</time>
      </trkpt>
      <trkpt lat="29.85301" lon="-6.21338">
        <ele>492.332397</ele>
        <time>2010-01-21T12:02:11Z</time>
      </trkpt>
      <trkpt lat="29.8531" lon="-6.21346">
        <ele>491.370972</ele>
        <time>2010-01-21T12:02:13Z</time>
      </trkpt>
      <trkpt lat="29.8536" lon="-6.21373">
        <ele>492.332397</ele>
        <time>2010-01-21T12:02:22Z</time>
      </trkpt>
      <trkpt lat="29.85373" lon="-6.21388">
        <ele>491.851685</ele>
        <time>2010-01-21T12:02:25Z</time>
      </trkpt>
      <trkpt lat="29.8539" lon="-6.21411">
        <ele>491.851685</ele>
        <time>2010-01-21T12:02:29Z</time>
      </trkpt>
      <trkpt lat="29.85441" lon="-6.21478">
        <ele>491.370972</ele>
        <time>2010-01-21T12:02:40Z</time>
      </trkpt>
      <trkpt lat="29.85471" lon="-6.21528">
        <ele>492.332397</ele>
        <time>2010-01-21T12:02:49Z</time>
      </trkpt>
      <trkpt lat="29.85494" lon="-6.21587">
        <ele>491.370972</ele>
        <time>2010-01-21T12:02:58Z</time>
      </trkpt>
      <trkpt lat="29.85505" lon="-6.21605">
        <ele>491.370972</ele>
        <time>2010-01-21T12:03:01Z</time>
      </trkpt>
      <trkpt lat="29.85514" lon="-6.21616">
        <ele>491.370972</ele>
        <time>2010-01-21T12:03:03Z</time>
      </trkpt>
      <trkpt lat="29.85539" lon="-6.21652">
        <ele>491.851685</ele>
        <time>2010-01-21T12:03:09Z</time>
      </trkpt>
      <trkpt lat="29.85554" lon="-6.21667">
        <ele>491.370972</ele>
        <time>2010-01-21T12:03:12Z</time>
      </trkpt>
      <trkpt lat="29.85625" lon="-6.2176">
        <ele>490.890381</ele>
        <time>2010-01-21T12:03:28Z</time>
      </trkpt>
      <trkpt lat="29.85795" lon="-6.2186">
        <ele>491.370972</ele>
        <time>2010-01-21T12:03:57Z</time>
      </trkpt>
      <trkpt lat="29.85822" lon="-6.21908">
        <ele>490.890381</ele>
        <time>2010-01-21T12:04:09Z</time>
      </trkpt>
      <trkpt lat="29.85851" lon="-6.21915">
        <ele>490.40979</ele>
        <time>2010-01-21T13:58:07Z</time>
      </trkpt>
      <trkpt lat="29.8588" lon="-6.21945">
        <ele>489.929077</ele>
        <time>2010-01-21T13:58:14Z</time>
      </trkpt>
      <trkpt lat="29.85971" lon="-6.22085">
        <ele>489.448364</ele>
        <time>2010-01-21T13:58:43Z</time>
      </trkpt>
      <trkpt lat="29.86082" lon="-6.22257">
        <ele>488.967773</ele>
        <time>2010-01-21T13:59:16Z</time>
      </trkpt>
      <trkpt lat="29.86088" lon="-6.22267">
        <ele>488.967773</ele>
        <time>2010-01-21T13:59:18Z</time>
      </trkpt>
      <trkpt lat="29.86117" lon="-6.22412">
        <ele>490.890381</ele>
        <time>2010-01-21T13:59:37Z</time>
      </trkpt>
      <trkpt lat="29.86166" lon="-6.2253">
        <ele>491.370972</ele>
        <time>2010-01-21T13:59:54Z</time>
      </trkpt>
      <trkpt lat="29.86174" lon="-6.22559">
        <ele>491.851685</ele>
        <time>2010-01-21T13:59:58Z</time>
      </trkpt>
      <trkpt lat="29.862" lon="-6.22606">
        <ele>491.370972</ele>
        <time>2010-01-21T14:00:05Z</time>
      </trkpt>
      <trkpt lat="29.86221" lon="-6.22621">
        <ele>490.890381</ele>
        <time>2010-01-21T14:00:09Z</time>
      </trkpt>
      <trkpt lat="29.86244" lon="-6.22641">
        <ele>490.40979</ele>
        <time>2010-01-21T14:00:15Z</time>
      </trkpt>
      <trkpt lat="29.86301" lon="-6.22713">
        <ele>490.40979</ele>
        <time>2010-01-21T14:00:28Z</time>
      </trkpt>
      <trkpt lat="29.86329" lon="-6.22764">
        <ele>489.929077</ele>
        <time>2010-01-21T14:00:36Z</time>
      </trkpt>
      <trkpt lat="29.86334" lon="-6.22776">
        <ele>489.929077</ele>
        <time>2010-01-21T14:00:38Z</time>
      </trkpt>
      <trkpt lat="29.86337" lon="-6.22789">
        <ele>489.448364</ele>
        <time>2010-01-21T14:00:40Z</time>
      </trkpt>
      <trkpt lat="29.86352" lon="-6.22811">
        <ele>489.448364</ele>
        <time>2010-01-21T14:00:44Z</time>
      </trkpt>
      <trkpt lat="29.86363" lon="-6.2283">
        <ele>489.929077</ele>
        <time>2010-01-21T14:00:47Z</time>
      </trkpt>
      <trkpt lat="29.86373" lon="-6.22858">
        <ele>489.929077</ele>
        <time>2010-01-21T14:00:51Z</time>
      </trkpt>
      <trkpt lat="29.8638" lon="-6.22871">
        <ele>489.448364</ele>
        <time>2010-01-21T14:00:53Z</time>
      </trkpt>
      <trkpt lat="29.86443" lon="-6.23016">
        <ele>489.929077</ele>
        <time>2010-01-21T14:01:12Z</time>
      </trkpt>
      <trkpt lat="29.86466" lon="-6.23071">
        <ele>490.40979</ele>
        <time>2010-01-21T14:01:19Z</time>
      </trkpt>
      <trkpt lat="29.86491" lon="-6.23095">
        <ele>489.929077</ele>
        <time>2010-01-21T14:01:24Z</time>
      </trkpt>
      <trkpt lat="29.86502" lon="-6.23102">
        <ele>489.929077</ele>
        <time>2010-01-21T14:01:26Z</time>
      </trkpt>
      <trkpt lat="29.86523" lon="-6.23119">
        <ele>489.929077</ele>
        <time>2010-01-21T14:01:30Z</time>
      </trkpt>
      <trkpt lat="29.86533" lon="-6.23125">
        <ele>489.448364</ele>
        <time>2010-01-21T14:01:32Z</time>
      </trkpt>
      <trkpt lat="29.86562" lon="-6.23124">
        <ele>488.967773</ele>
        <time>2010-01-21T14:01:37Z</time>
      </trkpt>
      <trkpt lat="29.86574" lon="-6.23124">
        <ele>488.487183</ele>
        <time>2010-01-21T14:01:39Z</time>
      </trkpt>
      <trkpt lat="29.86596" lon="-6.23112">
        <ele>488.487183</ele>
        <time>2010-01-21T14:01:43Z</time>
      </trkpt>
      <trkpt lat="29.86618" lon="-6.23086">
        <ele>488.487183</ele>
        <time>2010-01-21T14:01:48Z</time>
      </trkpt>
      <trkpt lat="29.86656" lon="-6.23082">
        <ele>488.487183</ele>
        <time>2010-01-21T14:01:54Z</time>
      </trkpt>
      <trkpt lat="29.86682" lon="-6.23092">
        <ele>488.487183</ele>
        <time>2010-01-21T14:01:58Z</time>
      </trkpt>
      <trkpt lat="29.86709" lon="-6.23117">
        <ele>488.487183</ele>
        <time>2010-01-21T14:02:03Z</time>
      </trkpt>
      <trkpt lat="29.86741" lon="-6.23173">
        <ele>488.967773</ele>
        <time>2010-01-21T14:02:11Z</time>
      </trkpt>
      <trkpt lat="29.86857" lon="-6.23303">
        <ele>488.967773</ele>
        <time>2010-01-21T14:02:32Z</time>
      </trkpt>
      <trkpt lat="29.86869" lon="-6.23312">
        <ele>488.967773</ele>
        <time>2010-01-21T14:02:34Z</time>
      </trkpt>
      <trkpt lat="29.86931" lon="-6.2335">
        <ele>488.487183</ele>
        <time>2010-01-21T14:02:44Z</time>
      </trkpt>
      <trkpt lat="29.86955" lon="-6.23388">
        <ele>488.487183</ele>
        <time>2010-01-21T14:02:56Z</time>
      </trkpt>
      <trkpt lat="29.86969" lon="-6.23402">
        <ele>488.00647</ele>
        <time>2010-01-21T14:02:59Z</time>
      </trkpt>
      <trkpt lat="29.87002" lon="-6.23427">
        <ele>488.967773</ele>
        <time>2010-01-21T14:03:06Z</time>
      </trkpt>
      <trkpt lat="29.87012" lon="-6.23437">
        <ele>488.967773</ele>
        <time>2010-01-21T14:03:09Z</time>
      </trkpt>
      <trkpt lat="29.87025" lon="-6.23445">
        <ele>488.967773</ele>
        <time>2010-01-21T14:03:12Z</time>
      </trkpt>
      <trkpt lat="29.87041" lon="-6.23463">
        <ele>488.967773</ele>
        <time>2010-01-21T14:03:16Z</time>
      </trkpt>
      <trkpt lat="29.87056" lon="-6.23475">
        <ele>489.929077</ele>
        <time>2010-01-21T14:21:28Z</time>
      </trkpt>
      <trkpt lat="29.87064" lon="-6.23477">
        <ele>489.448364</ele>
        <time>2010-01-21T14:21:30Z</time>
      </trkpt>
      <trkpt lat="29.87081" lon="-6.23492">
        <ele>489.448364</ele>
        <time>2010-01-21T14:21:36Z</time>
      </trkpt>
      <trkpt lat="29.87096" lon="-6.23512">
        <ele>489.448364</ele>
        <time>2010-01-21T14:21:58Z</time>
      </trkpt>
      <trkpt lat="29.87109" lon="-6.23526">
        <ele>488.00647</ele>
        <time>2010-01-21T14:22:19Z</time>
      </trkpt>
      <trkpt lat="29.87129" lon="-6.23538">
        <ele>488.00647</ele>
        <time>2010-01-21T14:22:23Z</time>
      </trkpt>
      <trkpt lat="29.87148" lon="-6.23546">
        <ele>487.525635</ele>
        <time>2010-01-21T14:22:26Z</time>
      </trkpt>
      <trkpt lat="29.87189" lon="-6.23588">
        <ele>488.00647</ele>
        <time>2010-01-21T14:22:34Z</time>
      </trkpt>
      <trkpt lat="29.87216" lon="-6.23628">
        <ele>488.00647</ele>
        <time>2010-01-21T14:22:41Z</time>
      </trkpt>
      <trkpt lat="29.87221" lon="-6.23658">
        <ele>488.00647</ele>
        <time>2010-01-21T14:22:45Z</time>
      </trkpt>
      <trkpt lat="29.87242" lon="-6.23699">
        <ele>488.487183</ele>
        <time>2010-01-21T14:22:51Z</time>
      </trkpt>
      <trkpt lat="29.87253" lon="-6.23709">
        <ele>488.487183</ele>
        <time>2010-01-21T14:22:53Z</time>
      </trkpt>
      <trkpt lat="29.87272" lon="-6.23738">
        <ele>488.00647</ele>
        <time>2010-01-21T14:22:57Z</time>
      </trkpt>
      <trkpt lat="29.87321" lon="-6.2384">
        <ele>489.929077</ele>
        <time>2010-01-21T14:23:09Z</time>
      </trkpt>
      <trkpt lat="29.87332" lon="-6.23854">
        <ele>489.448364</ele>
        <time>2010-01-21T14:23:12Z</time>
      </trkpt>
      <trkpt lat="29.87359" lon="-6.23869">
        <ele>489.929077</ele>
        <time>2010-01-21T14:23:17Z</time>
      </trkpt>
      <trkpt lat="29.87376" lon="-6.23887">
        <ele>488.967773</ele>
        <time>2010-01-21T14:23:21Z</time>
      </trkpt>
      <trkpt lat="29.87407" lon="-6.23932">
        <ele>488.487183</ele>
        <time>2010-01-21T14:23:29Z</time>
      </trkpt>
      <trkpt lat="29.87417" lon="-6.2394">
        <ele>488.487183</ele>
        <time>2010-01-21T14:23:31Z</time>
      </trkpt>
      <trkpt lat="29.87435" lon="-6.23949">
        <ele>488.487183</ele>
        <time>2010-01-21T14:23:34Z</time>
      </trkpt>
      <trkpt lat="29.87454" lon="-6.23971">
        <ele>488.487183</ele>
        <time>2010-01-21T14:23:38Z</time>
      </trkpt>
      <trkpt lat="29.87462" lon="-6.23984">
        <ele>488.487183</ele>
        <time>2010-01-21T14:23:40Z</time>
      </trkpt>
      <trkpt lat="29.87509" lon="-6.24005">
        <ele>488.00647</ele>
        <time>2010-01-21T14:23:48Z</time>
      </trkpt>
      <trkpt lat="29.87538" lon="-6.24014">
        <ele>487.525635</ele>
        <time>2010-01-21T14:23:53Z</time>
      </trkpt>
      <trkpt lat="29.87554" lon="-6.24025">
        <ele>487.525635</ele>
        <time>2010-01-21T14:23:56Z</time>
      </trkpt>
      <trkpt lat="29.87588" lon="-6.24033">
        <ele>487.525635</ele>
        <time>2010-01-21T14:24:01Z</time>
      </trkpt>
      <trkpt lat="29.87671" lon="-6.24055">
        <ele>487.045044</ele>
        <time>2010-01-21T14:24:14Z</time>
      </trkpt>
      <trkpt lat="29.87698" lon="-6.24073">
        <ele>487.045044</ele>
        <time>2010-01-21T14:24:19Z</time>
      </trkpt>
      <trkpt lat="29.87737" lon="-6.24111">
        <ele>487.525635</ele>
        <time>2010-01-21T14:24:27Z</time>
      </trkpt>
      <trkpt lat="29.87753" lon="-6.24116">
        <ele>488.00647</ele>
        <time>2010-01-21T14:24:30Z</time>
      </trkpt>
      <trkpt lat="29.87849" lon="-6.242">
        <ele>488.00647</ele>
        <time>2010-01-21T14:24:49Z</time>
      </trkpt>
      <trkpt lat="29.87871" lon="-6.2421">
        <ele>487.045044</ele>
        <time>2010-01-21T14:24:54Z</time>
      </trkpt>
      <trkpt lat="29.87881" lon="-6.24216">
        <ele>487.045044</ele>
        <time>2010-01-21T14:24:56Z</time>
      </trkpt>
      <trkpt lat="29.8802" lon="-6.24349">
        <ele>487.525635</ele>
        <time>2010-01-21T14:25:23Z</time>
      </trkpt>
      <trkpt lat="29.88065" lon="-6.24387">
        <ele>487.525635</ele>
        <time>2010-01-21T14:25:31Z</time>
      </trkpt>
      <trkpt lat="29.88094" lon="-6.24436">
        <ele>488.00647</ele>
        <time>2010-01-21T14:25:39Z</time>
      </trkpt>
      <trkpt lat="29.88155" lon="-6.24496">
        <ele>487.525635</ele>
        <time>2010-01-21T14:25:51Z</time>
      </trkpt>
      <trkpt lat="29.88181" lon="-6.24532">
        <ele>487.045044</ele>
        <time>2010-01-21T14:25:57Z</time>
      </trkpt>
      <trkpt lat="29.88252" lon="-6.24554">
        <ele>488.00647</ele>
        <time>2010-01-21T14:26:10Z</time>
      </trkpt>
      <trkpt lat="29.88261" lon="-6.24563">
        <ele>487.525635</ele>
        <time>2010-01-21T14:26:12Z</time>
      </trkpt>
      <trkpt lat="29.88278" lon="-6.24572">
        <ele>487.525635</ele>
        <time>2010-01-21T14:26:15Z</time>
      </trkpt>
      <trkpt lat="29.88308" lon="-6.24584">
        <ele>487.045044</ele>
        <time>2010-01-21T14:26:20Z</time>
      </trkpt>
      <trkpt lat="29.88323" lon="-6.24595">
        <ele>487.525635</ele>
        <time>2010-01-21T14:26:23Z</time>
      </trkpt>
      <trkpt lat="29.8835" lon="-6.24602">
        <ele>487.045044</ele>
        <time>2010-01-21T14:26:27Z</time>
      </trkpt>
      <trkpt lat="29.88363" lon="-6.24603">
        <ele>487.045044</ele>
        <time>2010-01-21T14:26:29Z</time>
      </trkpt>
      <trkpt lat="29.88363" lon="-6.24603">
        <ele>487.045044</ele>
        <time>2010-01-21T14:26:29Z</time>
      </trkpt>
      <trkpt lat="29.88386" lon="-6.24613">
        <ele>487.045044</ele>
        <time>2010-01-21T14:26:33Z</time>
      </trkpt>
      <trkpt lat="29.88409" lon="-6.24628">
        <ele>487.045044</ele>
        <time>2010-01-21T14:26:37Z</time>
      </trkpt>
      <trkpt lat="29.88459" lon="-6.24666">
        <ele>486.564453</ele>
        <time>2010-01-21T14:26:47Z</time>
      </trkpt>
      <trkpt lat="29.88483" lon="-6.24685">
        <ele>486.564453</ele>
        <time>2010-01-21T14:26:53Z</time>
      </trkpt>
      <trkpt lat="29.88508" lon="-6.24687">
        <ele>486.564453</ele>
        <time>2010-01-21T14:26:57Z</time>
      </trkpt>
      <trkpt lat="29.88589" lon="-6.24659">
        <ele>486.564453</ele>
        <time>2010-01-21T14:27:09Z</time>
      </trkpt>
      <trkpt lat="29.88611" lon="-6.24655">
        <ele>486.564453</ele>
        <time>2010-01-21T14:27:12Z</time>
      </trkpt>
      <trkpt lat="29.8866" lon="-6.24672">
        <ele>486.08374</ele>
        <time>2010-01-21T14:27:19Z</time>
      </trkpt>
      <trkpt lat="29.88705" lon="-6.24702">
        <ele>486.08374</ele>
        <time>2010-01-21T14:27:26Z</time>
      </trkpt>
      <trkpt lat="29.88753" lon="-6.24744">
        <ele>486.564453</ele>
        <time>2010-01-21T14:27:35Z</time>
      </trkpt>
      <trkpt lat="29.88768" lon="-6.24762">
        <ele>487.045044</ele>
        <time>2010-01-21T14:27:39Z</time>
      </trkpt>
      <trkpt lat="29.88775" lon="-6.24773">
        <ele>487.045044</ele>
        <time>2010-01-21T14:27:41Z</time>
      </trkpt>
      <trkpt lat="29.88789" lon="-6.24788">
        <ele>486.08374</ele>
        <time>2010-01-21T14:27:44Z</time>
      </trkpt>
      <trkpt lat="29.88823" lon="-6.24811">
        <ele>486.08374</ele>
        <time>2010-01-21T14:27:50Z</time>
      </trkpt>
      <trkpt lat="29.88857" lon="-6.24823">
        <ele>486.08374</ele>
        <time>2010-01-21T14:27:55Z</time>
      </trkpt>
      <trkpt lat="29.88869" lon="-6.2483">
        <ele>485.603027</ele>
        <time>2010-01-21T14:27:57Z</time>
      </trkpt>
      <trkpt lat="29.88891" lon="-6.24849">
        <ele>485.603027</ele>
        <time>2010-01-21T14:28:01Z</time>
      </trkpt>
      <trkpt lat="29.88976" lon="-6.24921">
        <ele>486.564453</ele>
        <time>2010-01-21T14:28:15Z</time>
      </trkpt>
      <trkpt lat="29.88998" lon="-6.24932">
        <ele>486.08374</ele>
        <time>2010-01-21T14:28:19Z</time>
      </trkpt>
      <trkpt lat="29.89029" lon="-6.24935">
        <ele>485.603027</ele>
        <time>2010-01-21T14:28:23Z</time>
      </trkpt>
      <trkpt lat="29.8906" lon="-6.24928">
        <ele>485.603027</ele>
        <time>2010-01-21T14:28:27Z</time>
      </trkpt>
      <trkpt lat="29.89085" lon="-6.24924">
        <ele>485.603027</ele>
        <time>2010-01-21T14:28:30Z</time>
      </trkpt>
      <trkpt lat="29.89117" lon="-6.24911">
        <ele>485.603027</ele>
        <time>2010-01-21T14:28:34Z</time>
      </trkpt>
      <trkpt lat="29.89138" lon="-6.24896">
        <ele>486.08374</ele>
        <time>2010-01-21T14:28:37Z</time>
      </trkpt>
      <trkpt lat="29.89156" lon="-6.24879">
        <ele>485.603027</ele>
        <time>2010-01-21T14:28:40Z</time>
      </trkpt>
      <trkpt lat="29.89167" lon="-6.2487">
        <ele>485.603027</ele>
        <time>2010-01-21T14:28:42Z</time>
      </trkpt>
      <trkpt lat="29.89191" lon="-6.24857">
        <ele>485.603027</ele>
        <time>2010-01-21T14:28:46Z</time>
      </trkpt>
      <trkpt lat="29.89298" lon="-6.2484">
        <ele>485.603027</ele>
        <time>2010-01-21T14:29:01Z</time>
      </trkpt>
      <trkpt lat="29.89329" lon="-6.24834">
        <ele>485.122437</ele>
        <time>2010-01-21T14:29:05Z</time>
      </trkpt>
      <trkpt lat="29.89367" lon="-6.24824">
        <ele>485.122437</ele>
        <time>2010-01-21T14:29:10Z</time>
      </trkpt>
      <trkpt lat="29.89392" lon="-6.24829">
        <ele>484.641846</ele>
        <time>2010-01-21T14:29:14Z</time>
      </trkpt>
      <trkpt lat="29.8941" lon="-6.24834">
        <ele>484.641846</ele>
        <time>2010-01-21T14:29:17Z</time>
      </trkpt>
      <trkpt lat="29.89436" lon="-6.24846">
        <ele>484.641846</ele>
        <time>2010-01-21T14:29:21Z</time>
      </trkpt>
      <trkpt lat="29.89502" lon="-6.24907">
        <ele>485.122437</ele>
        <time>2010-01-21T14:29:31Z</time>
      </trkpt>
      <trkpt lat="29.8961" lon="-6.24987">
        <ele>485.122437</ele>
        <time>2010-01-21T14:29:45Z</time>
      </trkpt>
      <trkpt lat="29.89767" lon="-6.25073">
        <ele>485.122437</ele>
        <time>2010-01-21T14:30:05Z</time>
      </trkpt>
      <trkpt lat="29.89943" lon="-6.25192">
        <ele>484.641846</ele>
        <time>2010-01-21T14:30:26Z</time>
      </trkpt>
      <trkpt lat="29.90088" lon="-6.25348">
        <ele>484.641846</ele>
        <time>2010-01-21T14:30:47Z</time>
      </trkpt>
      <trkpt lat="29.90173" lon="-6.25448">
        <ele>484.641846</ele>
        <time>2010-01-21T14:31:01Z</time>
      </trkpt>
      <trkpt lat="29.90191" lon="-6.25463">
        <ele>485.122437</ele>
        <time>2010-01-21T14:31:04Z</time>
      </trkpt>
      <trkpt lat="29.90241" lon="-6.25519">
        <ele>484.641846</ele>
        <time>2010-01-21T14:31:13Z</time>
      </trkpt>
      <trkpt lat="29.90361" lon="-6.25613">
        <ele>485.122437</ele>
        <time>2010-01-21T14:31:32Z</time>
      </trkpt>
      <trkpt lat="29.90412" lon="-6.25695">
        <ele>485.603027</ele>
        <time>2010-01-21T14:31:43Z</time>
      </trkpt>
      <trkpt lat="29.90521" lon="-6.25877">
        <ele>484.641846</ele>
        <time>2010-01-21T14:32:05Z</time>
      </trkpt>
      <trkpt lat="29.90596" lon="-6.26069">
        <ele>484.641846</ele>
        <time>2010-01-21T14:32:25Z</time>
      </trkpt>
      <trkpt lat="29.90628" lon="-6.26119">
        <ele>484.641846</ele>
        <time>2010-01-21T14:32:31Z</time>
      </trkpt>
      <trkpt lat="29.90658" lon="-6.26148">
        <ele>484.641846</ele>
        <time>2010-01-21T14:32:36Z</time>
      </trkpt>
      <trkpt lat="29.9069" lon="-6.26157">
        <ele>484.641846</ele>
        <time>2010-01-21T14:32:48Z</time>
      </trkpt>
      <trkpt lat="29.90728" lon="-6.26169">
        <ele>483.68042</ele>
        <time>2010-01-21T14:32:55Z</time>
      </trkpt>
      <trkpt lat="29.90887" lon="-6.26224">
        <ele>481.757812</ele>
        <time>2010-01-21T14:33:17Z</time>
      </trkpt>
      <trkpt lat="29.90927" lon="-6.26259">
        <ele>482.238525</ele>
        <time>2010-01-21T14:33:23Z</time>
      </trkpt>
      <trkpt lat="29.90955" lon="-6.26282">
        <ele>482.238525</ele>
        <time>2010-01-21T14:33:27Z</time>
      </trkpt>
      <trkpt lat="29.90972" lon="-6.26305">
        <ele>482.238525</ele>
        <time>2010-01-21T14:33:30Z</time>
      </trkpt>
      <trkpt lat="29.9099" lon="-6.26358">
        <ele>482.238525</ele>
        <time>2010-01-21T14:33:36Z</time>
      </trkpt>
      <trkpt lat="29.91005" lon="-6.26381">
        <ele>482.238525</ele>
        <time>2010-01-21T14:33:40Z</time>
      </trkpt>
      <trkpt lat="29.91146" lon="-6.26544">
        <ele>482.238525</ele>
        <time>2010-01-21T14:34:07Z</time>
      </trkpt>
      <trkpt lat="29.91184" lon="-6.26655">
        <ele>481.757812</ele>
        <time>2010-01-21T14:34:20Z</time>
      </trkpt>
      <trkpt lat="29.91261" lon="-6.26837">
        <ele>481.277222</ele>
        <time>2010-01-21T14:34:41Z</time>
      </trkpt>
      <trkpt lat="29.91288" lon="-6.2691">
        <ele>481.277222</ele>
        <time>2010-01-21T14:34:50Z</time>
      </trkpt>
      <trkpt lat="29.91291" lon="-6.26946">
        <ele>481.277222</ele>
        <time>2010-01-21T14:34:54Z</time>
      </trkpt>
      <trkpt lat="29.91286" lon="-6.26984">
        <ele>481.277222</ele>
        <time>2010-01-21T14:34:58Z</time>
      </trkpt>
      <trkpt lat="29.91259" lon="-6.27101">
        <ele>480.315918</ele>
        <time>2010-01-21T14:35:10Z</time>
      </trkpt>
      <trkpt lat="29.9124" lon="-6.27135">
        <ele>480.796631</ele>
        <time>2010-01-21T14:35:14Z</time>
      </trkpt>
      <trkpt lat="29.91226" lon="-6.27362">
        <ele>479.835083</ele>
        <time>2010-01-21T14:35:36Z</time>
      </trkpt>
      <trkpt lat="29.91292" lon="-6.27593">
        <ele>479.354492</ele>
        <time>2010-01-21T14:35:59Z</time>
      </trkpt>
      <trkpt lat="29.913" lon="-6.2764">
        <ele>479.835083</ele>
        <time>2010-01-21T14:36:04Z</time>
      </trkpt>
      <trkpt lat="29.91324" lon="-6.27685">
        <ele>479.835083</ele>
        <time>2010-01-21T14:36:10Z</time>
      </trkpt>
      <trkpt lat="29.91337" lon="-6.27698">
        <ele>480.315918</ele>
        <time>2010-01-21T14:36:12Z</time>
      </trkpt>
      <trkpt lat="29.91426" lon="-6.27788">
        <ele>480.796631</ele>
        <time>2010-01-21T14:36:26Z</time>
      </trkpt>
      <trkpt lat="29.9151" lon="-6.27825">
        <ele>480.315918</ele>
        <time>2010-01-21T14:36:38Z</time>
      </trkpt>
      <trkpt lat="29.91554" lon="-6.27834">
        <ele>481.277222</ele>
        <time>2010-01-21T14:36:43Z</time>
      </trkpt>
      <trkpt lat="29.916" lon="-6.27837">
        <ele>481.757812</ele>
        <time>2010-01-21T14:36:48Z</time>
      </trkpt>
      <trkpt lat="29.91793" lon="-6.27801">
        <ele>479.835083</ele>
        <time>2010-01-21T14:37:10Z</time>
      </trkpt>
      <trkpt lat="29.91923" lon="-6.27776">
        <ele>479.354492</ele>
        <time>2010-01-21T14:37:25Z</time>
      </trkpt>
      <trkpt lat="29.91952" lon="-6.27765">
        <ele>479.354492</ele>
        <time>2010-01-21T14:37:29Z</time>
      </trkpt>
      <trkpt lat="29.91979" lon="-6.27748">
        <ele>480.315918</ele>
        <time>2010-01-21T14:37:33Z</time>
      </trkpt>
      <trkpt lat="29.92101" lon="-6.27718">
        <ele>479.354492</ele>
        <time>2010-01-21T14:37:48Z</time>
      </trkpt>
      <trkpt lat="29.92123" lon="-6.27719">
        <ele>479.835083</ele>
        <time>2010-01-21T14:37:51Z</time>
      </trkpt>
      <trkpt lat="29.92166" lon="-6.27727">
        <ele>479.354492</ele>
        <time>2010-01-21T14:37:57Z</time>
      </trkpt>
      <trkpt lat="29.92207" lon="-6.27751">
        <ele>478.873901</ele>
        <time>2010-01-21T14:38:03Z</time>
      </trkpt>
      <trkpt lat="29.92241" lon="-6.27788">
        <ele>479.354492</ele>
        <time>2010-01-21T14:38:09Z</time>
      </trkpt>
      <trkpt lat="29.92348" lon="-6.27869">
        <ele>480.315918</ele>
        <time>2010-01-21T14:38:25Z</time>
      </trkpt>
      <trkpt lat="29.92365" lon="-6.27875">
        <ele>480.315918</ele>
        <time>2010-01-21T14:38:29Z</time>
      </trkpt>
      <trkpt lat="29.92393" lon="-6.27878">
        <ele>479.835083</ele>
        <time>2010-01-21T14:38:34Z</time>
      </trkpt>
      <trkpt lat="29.92416" lon="-6.27886">
        <ele>480.315918</ele>
        <time>2010-01-21T14:38:38Z</time>
      </trkpt>
      <trkpt lat="29.92428" lon="-6.2789">
        <ele>479.354492</ele>
        <time>2010-01-21T14:38:40Z</time>
      </trkpt>
      <trkpt lat="29.9247" lon="-6.27896">
        <ele>479.354492</ele>
        <time>2010-01-21T14:38:46Z</time>
      </trkpt>
      <trkpt lat="29.92501" lon="-6.27912">
        <ele>479.354492</ele>
        <time>2010-01-21T14:38:51Z</time>
      </trkpt>
      <trkpt lat="29.92519" lon="-6.27924">
        <ele>479.835083</ele>
        <time>2010-01-21T14:38:54Z</time>
      </trkpt>
      <trkpt lat="29.92549" lon="-6.27936">
        <ele>479.354492</ele>
        <time>2010-01-21T14:38:59Z</time>
      </trkpt>
      <trkpt lat="29.92582" lon="-6.27943">
        <ele>478.873901</ele>
        <time>2010-01-21T14:39:04Z</time>
      </trkpt>
      <trkpt lat="29.92609" lon="-6.27953">
        <ele>478.873901</ele>
        <time>2010-01-21T14:39:08Z</time>
      </trkpt>
      <trkpt lat="29.92634" lon="-6.27969">
        <ele>478.873901</ele>
        <time>2010-01-21T14:39:12Z</time>
      </trkpt>
      <trkpt lat="29.92645" lon="-6.2798">
        <ele>478.873901</ele>
        <time>2010-01-21T14:39:14Z</time>
      </trkpt>
      <trkpt lat="29.92669" lon="-6.28025">
        <ele>479.354492</ele>
        <time>2010-01-21T14:39:21Z</time>
      </trkpt>
      <trkpt lat="29.92692" lon="-6.28052">
        <ele>479.835083</ele>
        <time>2010-01-21T14:39:26Z</time>
      </trkpt>
      <trkpt lat="29.92744" lon="-6.2811">
        <ele>479.835083</ele>
        <time>2010-01-21T14:39:37Z</time>
      </trkpt>
      <trkpt lat="29.92754" lon="-6.2812">
        <ele>479.835083</ele>
        <time>2010-01-21T14:39:39Z</time>
      </trkpt>
      <trkpt lat="29.92763" lon="-6.28131">
        <ele>480.315918</ele>
        <time>2010-01-21T14:39:41Z</time>
      </trkpt>
      <trkpt lat="29.92785" lon="-6.28154">
        <ele>480.315918</ele>
        <time>2010-01-21T14:39:45Z</time>
      </trkpt>
      <trkpt lat="29.92832" lon="-6.28195">
        <ele>480.315918</ele>
        <time>2010-01-21T14:39:54Z</time>
      </trkpt>
      <trkpt lat="29.92853" lon="-6.28203">
        <ele>479.835083</ele>
        <time>2010-01-21T14:39:58Z</time>
      </trkpt>
      <trkpt lat="29.92879" lon="-6.28222">
        <ele>479.835083</ele>
        <time>2010-01-21T14:40:04Z</time>
      </trkpt>
      <trkpt lat="29.92913" lon="-6.28251">
        <ele>479.835083</ele>
        <time>2010-01-21T14:40:11Z</time>
      </trkpt>
      <trkpt lat="29.92936" lon="-6.28294">
        <ele>479.354492</ele>
        <time>2010-01-21T14:40:18Z</time>
      </trkpt>
      <trkpt lat="29.92939" lon="-6.28317">
        <ele>479.354492</ele>
        <time>2010-01-21T14:40:21Z</time>
      </trkpt>
      <trkpt lat="29.92971" lon="-6.28355">
        <ele>479.354492</ele>
        <time>2010-01-21T14:40:28Z</time>
      </trkpt>
      <trkpt lat="29.92984" lon="-6.28363">
        <ele>479.354492</ele>
        <time>2010-01-21T14:40:30Z</time>
      </trkpt>
      <trkpt lat="29.93006" lon="-6.28382">
        <ele>479.354492</ele>
        <time>2010-01-21T14:40:34Z</time>
      </trkpt>
      <trkpt lat="29.93047" lon="-6.28423">
        <ele>479.354492</ele>
        <time>2010-01-21T14:40:42Z</time>
      </trkpt>
      <trkpt lat="29.93096" lon="-6.28514">
        <ele>479.354492</ele>
        <time>2010-01-21T14:40:54Z</time>
      </trkpt>
      <trkpt lat="29.93127" lon="-6.28556">
        <ele>479.354492</ele>
        <time>2010-01-21T14:41:01Z</time>
      </trkpt>
      <trkpt lat="29.93248" lon="-6.28656">
        <ele>479.354492</ele>
        <time>2010-01-21T14:41:21Z</time>
      </trkpt>
      <trkpt lat="29.93347" lon="-6.28712">
        <ele>479.354492</ele>
        <time>2010-01-21T14:41:36Z</time>
      </trkpt>
      <trkpt lat="29.93389" lon="-6.28749">
        <ele>479.835083</ele>
        <time>2010-01-21T14:41:43Z</time>
      </trkpt>
      <trkpt lat="29.93421" lon="-6.28782">
        <ele>479.835083</ele>
        <time>2010-01-21T14:41:49Z</time>
      </trkpt>
      <trkpt lat="29.93431" lon="-6.28794">
        <ele>479.354492</ele>
        <time>2010-01-21T14:41:51Z</time>
      </trkpt>
      <trkpt lat="29.93452" lon="-6.28816">
        <ele>479.354492</ele>
        <time>2010-01-21T14:41:55Z</time>
      </trkpt>
      <trkpt lat="29.93582" lon="-6.29024">
        <ele>479.354492</ele>
        <time>2010-01-21T14:42:22Z</time>
      </trkpt>
      <trkpt lat="29.93642" lon="-6.29106">
        <ele>479.354492</ele>
        <time>2010-01-21T14:42:33Z</time>
      </trkpt>
      <trkpt lat="29.93669" lon="-6.29175">
        <ele>478.873901</ele>
        <time>2010-01-21T14:42:41Z</time>
      </trkpt>
      <trkpt lat="29.93678" lon="-6.29342">
        <ele>477.912476</ele>
        <time>2010-01-21T14:42:58Z</time>
      </trkpt>
      <trkpt lat="29.93737" lon="-6.29463">
        <ele>477.431885</ele>
        <time>2010-01-21T14:43:12Z</time>
      </trkpt>
      <trkpt lat="29.93743" lon="-6.29497">
        <ele>477.431885</ele>
        <time>2010-01-21T14:43:16Z</time>
      </trkpt>
      <trkpt lat="29.93738" lon="-6.29561">
        <ele>477.431885</ele>
        <time>2010-01-21T14:43:25Z</time>
      </trkpt>
      <trkpt lat="29.93754" lon="-6.29602">
        <ele>477.912476</ele>
        <time>2010-01-21T14:43:30Z</time>
      </trkpt>
      <trkpt lat="29.93773" lon="-6.29735">
        <ele>476.951294</ele>
        <time>2010-01-21T14:43:46Z</time>
      </trkpt>
      <trkpt lat="29.93771" lon="-6.29761">
        <ele>476.951294</ele>
        <time>2010-01-21T14:43:49Z</time>
      </trkpt>
      <trkpt lat="29.93786" lon="-6.29817">
        <ele>476.470581</ele>
        <time>2010-01-21T14:43:56Z</time>
      </trkpt>
      <trkpt lat="29.93824" lon="-6.29952">
        <ele>476.470581</ele>
        <time>2010-01-21T14:44:11Z</time>
      </trkpt>
      <trkpt lat="29.93853" lon="-6.301">
        <ele>475.989868</ele>
        <time>2010-01-21T14:44:27Z</time>
      </trkpt>
      <trkpt lat="29.93956" lon="-6.30223">
        <ele>476.470581</ele>
        <time>2010-01-21T14:44:45Z</time>
      </trkpt>
      <trkpt lat="29.94019" lon="-6.30461">
        <ele>476.470581</ele>
        <time>2010-01-21T14:45:11Z</time>
      </trkpt>
      <trkpt lat="29.94041" lon="-6.30753">
        <ele>475.989868</ele>
        <time>2010-01-21T14:45:38Z</time>
      </trkpt>
      <trkpt lat="29.94065" lon="-6.30844">
        <ele>475.989868</ele>
        <time>2010-01-21T14:45:48Z</time>
      </trkpt>
      <trkpt lat="29.94073" lon="-6.3088">
        <ele>475.989868</ele>
        <time>2010-01-21T14:45:52Z</time>
      </trkpt>
      <trkpt lat="29.94091" lon="-6.30911">
        <ele>475.989868</ele>
        <time>2010-01-21T14:45:56Z</time>
      </trkpt>
      <trkpt lat="29.9416" lon="-6.31147">
        <ele>475.989868</ele>
        <time>2010-01-21T14:46:22Z</time>
      </trkpt>
      <trkpt lat="29.94167" lon="-6.31164">
        <ele>475.989868</ele>
        <time>2010-01-21T14:46:24Z</time>
      </trkpt>
      <trkpt lat="29.94202" lon="-6.31223">
        <ele>476.470581</ele>
        <time>2010-01-21T14:46:32Z</time>
      </trkpt>
      <trkpt lat="29.94202" lon="-6.31294">
        <ele>475.989868</ele>
        <time>2010-01-21T14:46:40Z</time>
      </trkpt>
      <trkpt lat="29.94182" lon="-6.31343">
        <ele>475.989868</ele>
        <time>2010-01-21T14:46:46Z</time>
      </trkpt>
      <trkpt lat="29.94172" lon="-6.31396">
        <ele>475.509277</ele>
        <time>2010-01-21T14:46:52Z</time>
      </trkpt>
      <trkpt lat="29.94171" lon="-6.31414">
        <ele>475.028687</ele>
        <time>2010-01-21T14:46:54Z</time>
      </trkpt>
      <trkpt lat="29.9415" lon="-6.31464">
        <ele>475.028687</ele>
        <time>2010-01-21T14:47:00Z</time>
      </trkpt>
      <trkpt lat="29.94071" lon="-6.31566">
        <ele>475.509277</ele>
        <time>2010-01-21T14:47:14Z</time>
      </trkpt>
      <trkpt lat="29.94064" lon="-6.31604">
        <ele>475.509277</ele>
        <time>2010-01-21T14:47:18Z</time>
      </trkpt>
      <trkpt lat="29.94061" lon="-6.31644">
        <ele>475.028687</ele>
        <time>2010-01-21T14:47:22Z</time>
      </trkpt>
      <trkpt lat="29.94045" lon="-6.31693">
        <ele>475.028687</ele>
        <time>2010-01-21T14:47:37Z</time>
      </trkpt>
      <trkpt lat="29.94043" lon="-6.31702">
        <ele>474.547974</ele>
        <time>2010-01-21T14:48:32Z</time>
      </trkpt>
      <trkpt lat="29.94044" lon="-6.31742">
        <ele>474.547974</ele>
        <time>2010-01-21T14:48:38Z</time>
      </trkpt>
      <trkpt lat="29.94137" lon="-6.32067">
        <ele>475.028687</ele>
        <time>2010-01-21T14:49:04Z</time>
      </trkpt>
      <trkpt lat="29.94225" lon="-6.32494">
        <ele>475.509277</ele>
        <time>2010-01-21T14:49:33Z</time>
      </trkpt>
      <trkpt lat="29.94281" lon="-6.32705">
        <ele>475.509277</ele>
        <time>2010-01-21T14:49:53Z</time>
      </trkpt>
      <trkpt lat="29.94359" lon="-6.32914">
        <ele>474.547974</ele>
        <time>2010-01-21T14:50:13Z</time>
      </trkpt>
      <trkpt lat="29.94455" lon="-6.33128">
        <ele>475.028687</ele>
        <time>2010-01-21T14:50:33Z</time>
      </trkpt>
      <trkpt lat="29.9455" lon="-6.33388">
        <ele>474.547974</ele>
        <time>2010-01-21T14:50:54Z</time>
      </trkpt>
      <trkpt lat="29.94649" lon="-6.33559">
        <ele>474.547974</ele>
        <time>2010-01-21T14:51:13Z</time>
      </trkpt>
      <trkpt lat="29.94724" lon="-6.33673">
        <ele>474.547974</ele>
        <time>2010-01-21T14:51:27Z</time>
      </trkpt>
      <trkpt lat="29.9474" lon="-6.33691">
        <ele>474.547974</ele>
        <time>2010-01-21T14:51:31Z</time>
      </trkpt>
      <trkpt lat="29.94746" lon="-6.33719">
        <ele>474.547974</ele>
        <time>2010-01-21T14:51:35Z</time>
      </trkpt>
      <trkpt lat="29.94746" lon="-6.33734">
        <ele>474.547974</ele>
        <time>2010-01-21T14:51:37Z</time>
      </trkpt>
      <trkpt lat="29.94768" lon="-6.33774">
        <ele>474.067261</ele>
        <time>2010-01-21T14:51:43Z</time>
      </trkpt>
      <trkpt lat="29.94802" lon="-6.33813">
        <ele>474.067261</ele>
        <time>2010-01-21T14:51:50Z</time>
      </trkpt>
      <trkpt lat="29.94822" lon="-6.33842">
        <ele>473.58667</ele>
        <time>2010-01-21T14:51:55Z</time>
      </trkpt>
      <trkpt lat="29.94834" lon="-6.33868">
        <ele>473.58667</ele>
        <time>2010-01-21T14:51:59Z</time>
      </trkpt>
      <trkpt lat="29.94869" lon="-6.3403">
        <ele>473.106079</ele>
        <time>2010-01-21T14:52:21Z</time>
      </trkpt>
      <trkpt lat="29.9488" lon="-6.34267">
        <ele>472.144653</ele>
        <time>2010-01-21T14:52:54Z</time>
      </trkpt>
      <trkpt lat="29.94902" lon="-6.34416">
        <ele>472.625366</ele>
        <time>2010-01-21T14:53:09Z</time>
      </trkpt>
      <trkpt lat="29.94898" lon="-6.34464">
        <ele>472.625366</ele>
        <time>2010-01-21T14:53:14Z</time>
      </trkpt>
      <trkpt lat="29.94894" lon="-6.34501">
        <ele>472.625366</ele>
        <time>2010-01-21T14:53:18Z</time>
      </trkpt>
      <trkpt lat="29.94896" lon="-6.34529">
        <ele>472.144653</ele>
        <time>2010-01-21T14:53:21Z</time>
      </trkpt>
      <trkpt lat="29.94894" lon="-6.34577">
        <ele>472.144653</ele>
        <time>2010-01-21T14:53:26Z</time>
      </trkpt>
      <trkpt lat="29.94899" lon="-6.34646">
        <ele>472.144653</ele>
        <time>2010-01-21T14:53:33Z</time>
      </trkpt>
      <trkpt lat="29.94941" lon="-6.34795">
        <ele>472.144653</ele>
        <time>2010-01-21T14:53:49Z</time>
      </trkpt>
      <trkpt lat="29.94982" lon="-6.34859">
        <ele>472.144653</ele>
        <time>2010-01-21T14:53:58Z</time>
      </trkpt>
      <trkpt lat="29.95045" lon="-6.35063">
        <ele>472.144653</ele>
        <time>2010-01-21T14:54:21Z</time>
      </trkpt>
      <trkpt lat="29.95042" lon="-6.35127">
        <ele>472.144653</ele>
        <time>2010-01-21T14:54:28Z</time>
      </trkpt>
      <trkpt lat="29.95046" lon="-6.35177">
        <ele>472.144653</ele>
        <time>2010-01-21T14:54:34Z</time>
      </trkpt>
      <trkpt lat="29.95031" lon="-6.35253">
        <ele>472.144653</ele>
        <time>2010-01-21T14:54:43Z</time>
      </trkpt>
      <trkpt lat="29.95033" lon="-6.35286">
        <ele>471.66394</ele>
        <time>2010-01-21T14:54:47Z</time>
      </trkpt>
      <trkpt lat="29.95036" lon="-6.3537">
        <ele>471.18335</ele>
        <time>2010-01-21T14:54:57Z</time>
      </trkpt>
      <trkpt lat="29.95062" lon="-6.35428">
        <ele>471.18335</ele>
        <time>2010-01-21T14:55:04Z</time>
      </trkpt>
      <trkpt lat="29.95075" lon="-6.35506">
        <ele>471.66394</ele>
        <time>2010-01-21T14:55:12Z</time>
      </trkpt>
      <trkpt lat="29.95107" lon="-6.3557">
        <ele>471.66394</ele>
        <time>2010-01-21T14:55:19Z</time>
      </trkpt>
      <trkpt lat="29.95101" lon="-6.35614">
        <ele>471.66394</ele>
        <time>2010-01-21T14:55:25Z</time>
      </trkpt>
      <trkpt lat="29.95112" lon="-6.35684">
        <ele>471.18335</ele>
        <time>2010-01-21T14:55:35Z</time>
      </trkpt>
      <trkpt lat="29.95203" lon="-6.35798">
        <ele>472.144653</ele>
        <time>2010-01-21T14:55:51Z</time>
      </trkpt>
      <trkpt lat="29.95206" lon="-6.35838">
        <ele>471.66394</ele>
        <time>2010-01-21T14:55:56Z</time>
      </trkpt>
      <trkpt lat="29.95171" lon="-6.35997">
        <ele>471.66394</ele>
        <time>2010-01-21T14:56:17Z</time>
      </trkpt>
      <trkpt lat="29.95092" lon="-6.36184">
        <ele>471.66394</ele>
        <time>2010-01-21T14:56:42Z</time>
      </trkpt>
      <trkpt lat="29.95067" lon="-6.36228">
        <ele>471.66394</ele>
        <time>2010-01-21T14:56:48Z</time>
      </trkpt>
      <trkpt lat="29.95062" lon="-6.3625">
        <ele>471.66394</ele>
        <time>2010-01-21T14:56:51Z</time>
      </trkpt>
      <trkpt lat="29.9504" lon="-6.36299">
        <ele>471.66394</ele>
        <time>2010-01-21T14:56:58Z</time>
      </trkpt>
      <trkpt lat="29.95044" lon="-6.36371">
        <ele>471.18335</ele>
        <time>2010-01-21T14:57:09Z</time>
      </trkpt>
      <trkpt lat="29.9507" lon="-6.3645">
        <ele>471.66394</ele>
        <time>2010-01-21T14:57:20Z</time>
      </trkpt>
      <trkpt lat="29.95094" lon="-6.36488">
        <ele>471.18335</ele>
        <time>2010-01-21T14:57:27Z</time>
      </trkpt>
      <trkpt lat="29.95086" lon="-6.36545">
        <ele>470.702637</ele>
        <time>2010-01-21T14:57:36Z</time>
      </trkpt>
      <trkpt lat="29.95003" lon="-6.36747">
        <ele>468.299316</ele>
        <time>2010-01-21T14:58:02Z</time>
      </trkpt>
      <trkpt lat="29.94976" lon="-6.36816">
        <ele>467.818726</ele>
        <time>2010-01-21T14:58:11Z</time>
      </trkpt>
      <trkpt lat="29.94968" lon="-6.36841">
        <ele>467.338135</ele>
        <time>2010-01-21T14:58:15Z</time>
      </trkpt>
      <trkpt lat="29.94863" lon="-6.37103">
        <ele>465.896118</ele>
        <time>2010-01-21T14:58:38Z</time>
      </trkpt>
      <trkpt lat="29.9478" lon="-6.37453">
        <ele>464.934814</ele>
        <time>2010-01-21T14:59:02Z</time>
      </trkpt>
      <trkpt lat="29.94662" lon="-6.37761">
        <ele>464.934814</ele>
        <time>2010-01-21T14:59:26Z</time>
      </trkpt>
      <trkpt lat="29.94564" lon="-6.37953">
        <ele>464.934814</ele>
        <time>2010-01-21T14:59:47Z</time>
      </trkpt>
      <trkpt lat="29.94444" lon="-6.38143">
        <ele>463.973389</ele>
        <time>2010-01-21T15:00:11Z</time>
      </trkpt>
      <trkpt lat="29.94373" lon="-6.3824">
        <ele>463.973389</ele>
        <time>2010-01-21T15:00:21Z</time>
      </trkpt>
      <trkpt lat="29.94254" lon="-6.38505">
        <ele>464.454102</ele>
        <time>2010-01-21T15:00:40Z</time>
      </trkpt>
      <trkpt lat="29.9423" lon="-6.38557">
        <ele>464.454102</ele>
        <time>2010-01-21T15:00:45Z</time>
      </trkpt>
      <trkpt lat="29.94116" lon="-6.38864">
        <ele>464.454102</ele>
        <time>2010-01-21T15:01:09Z</time>
      </trkpt>
      <trkpt lat="29.9395" lon="-6.39181">
        <ele>464.454102</ele>
        <time>2010-01-21T15:01:31Z</time>
      </trkpt>
      <trkpt lat="29.93848" lon="-6.39386">
        <ele>464.454102</ele>
        <time>2010-01-21T15:01:48Z</time>
      </trkpt>
      <trkpt lat="29.93733" lon="-6.39774">
        <ele>464.454102</ele>
        <time>2010-01-21T15:02:10Z</time>
      </trkpt>
      <trkpt lat="29.93572" lon="-6.40312">
        <ele>464.454102</ele>
        <time>2010-01-21T15:02:39Z</time>
      </trkpt>
      <trkpt lat="29.93518" lon="-6.40464">
        <ele>464.454102</ele>
        <time>2010-01-21T15:02:56Z</time>
      </trkpt>
      <trkpt lat="29.93518" lon="-6.40465">
        <ele>465.896118</ele>
        <time>2010-01-21T15:03:48Z</time>
      </trkpt>
      <trkpt lat="29.93483" lon="-6.40574">
        <ele>463.973389</ele>
        <time>2010-01-21T15:08:36Z</time>
      </trkpt>
      <trkpt lat="29.93405" lon="-6.40813">
        <ele>463.012085</ele>
        <time>2010-01-21T15:08:59Z</time>
      </trkpt>
      <trkpt lat="29.93326" lon="-6.41055">
        <ele>463.492798</ele>
        <time>2010-01-21T15:09:20Z</time>
      </trkpt>
      <trkpt lat="29.93155" lon="-6.41594">
        <ele>463.012085</ele>
        <time>2010-01-21T15:09:52Z</time>
      </trkpt>
      <trkpt lat="29.92925" lon="-6.42297">
        <ele>463.012085</ele>
        <time>2010-01-21T15:10:30Z</time>
      </trkpt>
      <trkpt lat="29.92927" lon="-6.42308">
      </trkpt>
      <trkpt lat="29.92842" lon="-6.42835">
        <ele>468.780029</ele>
        <time>2011-10-20T11:25:25Z</time>
      </trkpt>
      <trkpt lat="29.92659" lon="-6.43106">
        <ele>469.260742</ele>
        <time>2011-10-20T11:24:56Z</time>
      </trkpt>
      <trkpt lat="29.92532" lon="-6.43367">
        <ele>469.260742</ele>
        <time>2011-10-20T11:24:32Z</time>
      </trkpt>
      <trkpt lat="29.92302" lon="-6.43813">
        <ele>468.299316</ele>
        <time>2011-10-20T11:24:01Z</time>
      </trkpt>
      <trkpt lat="29.92097" lon="-6.44201">
        <ele>467.818726</ele>
        <time>2011-10-20T11:23:35Z</time>
      </trkpt>
      <trkpt lat="29.91807" lon="-6.44752">
        <ele>466.376709</ele>
        <time>2011-10-20T11:23:01Z</time>
      </trkpt>
      <trkpt lat="29.91583" lon="-6.45085">
        <ele>466.857422</ele>
        <time>2011-10-20T11:22:36Z</time>
      </trkpt>
      <trkpt lat="29.91318" lon="-6.45519">
        <ele>465.415527</ele>
        <time>2011-10-20T11:22:06Z</time>
      </trkpt>
      <trkpt lat="29.91105" lon="-6.45713">
        <ele>465.415527</ele>
        <time>2011-10-20T11:21:42Z</time>
      </trkpt>
      <trkpt lat="29.91074" lon="-6.45721">
        <ele>465.415527</ele>
        <time>2011-10-20T11:21:39Z</time>
      </trkpt>
      <trkpt lat="29.91042" lon="-6.45738">
        <ele>465.415527</ele>
        <time>2011-10-20T11:21:35Z</time>
      </trkpt>
      <trkpt lat="29.91014" lon="-6.45769">
        <ele>465.415527</ele>
        <time>2011-10-20T11:21:30Z</time>
      </trkpt>
      <trkpt lat="29.90872" lon="-6.45972">
        <ele>465.896118</ele>
        <time>2011-10-20T11:21:09Z</time>
      </trkpt>
      <trkpt lat="29.90776" lon="-6.46029">
        <ele>465.896118</ele>
        <time>2011-10-20T11:20:57Z</time>
      </trkpt>
      <trkpt lat="29.90658" lon="-6.46071">
        <ele>465.896118</ele>
        <time>2011-10-20T11:20:41Z</time>
      </trkpt>
      <trkpt lat="29.90639" lon="-6.46084">
        <ele>465.896118</ele>
        <time>2011-10-20T11:20:38Z</time>
      </trkpt>
      <trkpt lat="29.90607" lon="-6.46116">
        <ele>466.376709</ele>
        <time>2011-10-20T11:20:32Z</time>
      </trkpt>
      <trkpt lat="29.90584" lon="-6.4613">
        <ele>466.376709</ele>
        <time>2011-10-20T11:20:28Z</time>
      </trkpt>
      <trkpt lat="29.90558" lon="-6.4614">
        <ele>466.376709</ele>
        <time>2011-10-20T11:20:22Z</time>
      </trkpt>
      <trkpt lat="29.90544" lon="-6.46155">
        <ele>466.376709</ele>
        <time>2011-10-20T11:20:17Z</time>
      </trkpt>
      <trkpt lat="29.90541" lon="-6.4616">
        <ele>466.376709</ele>
        <time>2011-10-20T11:20:16Z</time>
      </trkpt>
      <trkpt lat="29.90437" lon="-6.46327">
        <ele>466.376709</ele>
        <time>2011-10-20T11:19:53Z</time>
      </trkpt>
      <trkpt lat="29.90344" lon="-6.46509">
        <ele>466.376709</ele>
        <time>2011-10-20T11:19:39Z</time>
      </trkpt>
      <trkpt lat="29.9024" lon="-6.46681">
        <ele>467.338135</ele>
        <time>2011-10-20T11:19:22Z</time>
      </trkpt>
    </trkseg>
  </trk>
  <trk>
    <name><![CDATA[MF05]]></name>
    <trkseg>
      <trkpt lat="30.02808" lon="-6.90144">
        <ele>622.591064</ele>
        <time>2011-10-20T08:16:33Z</time>
      </trkpt>
      <trkpt lat="30.02626" lon="-6.90193">
        <ele>619.707031</ele>
        <time>2011-10-20T08:16:54Z</time>
      </trkpt>
      <trkpt lat="30.02452" lon="-6.90245">
        <ele>618.264893</ele>
        <time>2011-10-20T08:17:14Z</time>
      </trkpt>
      <trkpt lat="30.02432" lon="-6.9027">
        <ele>617.78418</ele>
        <time>2011-10-20T08:17:19Z</time>
      </trkpt>
      <trkpt lat="30.02406" lon="-6.90345">
        <ele>618.264893</ele>
        <time>2011-10-20T08:17:30Z</time>
      </trkpt>
      <trkpt lat="30.02391" lon="-6.90366">
        <ele>618.264893</ele>
        <time>2011-10-20T08:17:34Z</time>
      </trkpt>
      <trkpt lat="30.0238" lon="-6.90405">
        <ele>617.303711</ele>
        <time>2011-10-20T08:17:40Z</time>
      </trkpt>
      <trkpt lat="30.02379" lon="-6.90419">
        <ele>616.822998</ele>
        <time>2011-10-20T08:17:42Z</time>
      </trkpt>
      <trkpt lat="30.02339" lon="-6.90482">
        <ele>616.822998</ele>
        <time>2011-10-20T08:17:53Z</time>
      </trkpt>
      <trkpt lat="30.02094" lon="-6.9056">
        <ele>614.419678</ele>
        <time>2011-10-20T08:18:18Z</time>
      </trkpt>
      <trkpt lat="30.01966" lon="-6.9071">
        <ele>612.977783</ele>
        <time>2011-10-20T08:18:37Z</time>
      </trkpt>
      <trkpt lat="30.01912" lon="-6.90759">
        <ele>613.938965</ele>
        <time>2011-10-20T08:18:46Z</time>
      </trkpt>
      <trkpt lat="30.0189" lon="-6.90758">
        <ele>613.938965</ele>
        <time>2011-10-20T08:18:51Z</time>
      </trkpt>
      <trkpt lat="30.0188" lon="-6.90753">
        <ele>613.458496</ele>
        <time>2011-10-20T08:18:54Z</time>
      </trkpt>
      <trkpt lat="30.01853" lon="-6.90756">
        <ele>613.938965</ele>
        <time>2011-10-20T08:18:59Z</time>
      </trkpt>
      <trkpt lat="30.01663" lon="-6.90792">
        <ele>612.016602</ele>
        <time>2011-10-20T08:19:24Z</time>
      </trkpt>
      <trkpt lat="30.01626" lon="-6.90796">
        <ele>612.977783</ele>
        <time>2011-10-20T08:19:29Z</time>
      </trkpt>
      <trkpt lat="30.01434" lon="-6.90878">
        <ele>612.49707</ele>
        <time>2011-10-20T08:19:50Z</time>
      </trkpt>
      <trkpt lat="30.01411" lon="-6.90889">
        <ele>612.49707</ele>
        <time>2011-10-20T08:19:53Z</time>
      </trkpt>
      <trkpt lat="30.01372" lon="-6.90917">
        <ele>612.977783</ele>
        <time>2011-10-20T08:19:59Z</time>
      </trkpt>
      <trkpt lat="30.01336" lon="-6.90926">
        <ele>612.977783</ele>
        <time>2011-10-20T08:20:04Z</time>
      </trkpt>
      <trkpt lat="30.01249" lon="-6.90986">
        <ele>612.49707</ele>
        <time>2011-10-20T08:20:16Z</time>
      </trkpt>
      <trkpt lat="30.01095" lon="-6.91006">
        <ele>611.535889</ele>
        <time>2011-10-20T08:20:36Z</time>
      </trkpt>
      <trkpt lat="30.01072" lon="-6.91011">
        <ele>611.535889</ele>
        <time>2011-10-20T08:20:39Z</time>
      </trkpt>
      <trkpt lat="30.00884" lon="-6.91112">
        <ele>609.613281</ele>
        <time>2011-10-20T08:21:01Z</time>
      </trkpt>
      <trkpt lat="30.00791" lon="-6.91176">
        <ele>609.132568</ele>
        <time>2011-10-20T08:21:12Z</time>
      </trkpt>
      <trkpt lat="30.00541" lon="-6.913">
        <ele>607.209961</ele>
        <time>2011-10-20T08:21:37Z</time>
      </trkpt>
      <trkpt lat="30.00197" lon="-6.9148">
        <ele>603.845215</ele>
        <time>2011-10-20T08:22:09Z</time>
      </trkpt>
      <trkpt lat="30.0003" lon="-6.91589">
        <ele>603.364502</ele>
        <time>2011-10-20T08:22:25Z</time>
      </trkpt>
      <trkpt lat="29.99989" lon="-6.91603">
        <ele>603.845215</ele>
        <time>2011-10-20T08:22:29Z</time>
      </trkpt>
      <trkpt lat="29.99769" lon="-6.91652">
        <ele>603.364502</ele>
        <time>2011-10-20T08:22:48Z</time>
      </trkpt>
      <trkpt lat="29.99749" lon="-6.91661">
        <ele>603.364502</ele>
        <time>2011-10-20T08:22:50Z</time>
      </trkpt>
      <trkpt lat="29.99417" lon="-6.91731">
        <ele>601.441895</ele>
        <time>2011-10-20T08:23:17Z</time>
      </trkpt>
      <trkpt lat="29.99124" lon="-6.91739">
        <ele>600</ele>
        <time>2011-10-20T08:23:40Z</time>
      </trkpt>
      <trkpt lat="29.98848" lon="-6.91751">
        <ele>599.038574</ele>
        <time>2011-10-20T08:24:00Z</time>
      </trkpt>
      <trkpt lat="29.98567" lon="-6.91794">
        <ele>597.115967</ele>
        <time>2011-10-20T08:24:20Z</time>
      </trkpt>
      <trkpt lat="29.98266" lon="-6.91885">
        <ele>594.712646</ele>
        <time>2011-10-20T08:24:41Z</time>
      </trkpt>
      <trkpt lat="29.97914" lon="-6.92014">
        <ele>592.790283</ele>
        <time>2011-10-20T08:25:05Z</time>
      </trkpt>
      <trkpt lat="29.97703" lon="-6.9209">
        <ele>589.90625</ele>
        <time>2011-10-20T08:25:23Z</time>
      </trkpt>
      <trkpt lat="29.97467" lon="-6.92161">
        <ele>589.90625</ele>
        <time>2011-10-20T08:25:45Z</time>
      </trkpt>
      <trkpt lat="29.97436" lon="-6.92185">
        <ele>588.945068</ele>
        <time>2011-10-20T08:25:49Z</time>
      </trkpt>
      <trkpt lat="29.97417" lon="-6.92205">
        <ele>589.425537</ele>
        <time>2011-10-20T08:25:52Z</time>
      </trkpt>
      <trkpt lat="29.97321" lon="-6.92274">
        <ele>589.90625</ele>
        <time>2011-10-20T08:26:05Z</time>
      </trkpt>
      <trkpt lat="29.97129" lon="-6.92321">
        <ele>589.425537</ele>
        <time>2011-10-20T08:26:26Z</time>
      </trkpt>
      <trkpt lat="29.97088" lon="-6.9233">
        <ele>588.945068</ele>
        <time>2011-10-20T08:26:31Z</time>
      </trkpt>
      <trkpt lat="29.97072" lon="-6.92338">
        <ele>588.945068</ele>
        <time>2011-10-20T08:26:35Z</time>
      </trkpt>
      <trkpt lat="29.97047" lon="-6.92338">
        <ele>588.464355</ele>
        <time>2011-10-20T08:26:40Z</time>
      </trkpt>
      <trkpt lat="29.96819" lon="-6.92286">
        <ele>587.983398</ele>
        <time>2011-10-20T08:27:06Z</time>
      </trkpt>
      <trkpt lat="29.96614" lon="-6.9234">
        <ele>587.502686</ele>
        <time>2011-10-20T08:27:26Z</time>
      </trkpt>
      <trkpt lat="29.96493" lon="-6.92344">
        <ele>586.541504</ele>
        <time>2011-10-20T08:27:39Z</time>
      </trkpt>
      <trkpt lat="29.96448" lon="-6.92347">
        <ele>586.060791</ele>
        <time>2011-10-20T08:27:44Z</time>
      </trkpt>
      <trkpt lat="29.96417" lon="-6.9236">
        <ele>585.580078</ele>
        <time>2011-10-20T08:27:48Z</time>
      </trkpt>
      <trkpt lat="29.96307" lon="-6.92411">
        <ele>585.099609</ele>
        <time>2011-10-20T08:28:00Z</time>
      </trkpt>
      <trkpt lat="29.96025" lon="-6.92428">
        <ele>583.657471</ele>
        <time>2011-10-20T08:28:24Z</time>
      </trkpt>
      <trkpt lat="29.957" lon="-6.92445">
        <ele>582.215576</ele>
        <time>2011-10-20T08:28:47Z</time>
      </trkpt>
      <trkpt lat="29.95655" lon="-6.92453">
        <ele>582.215576</ele>
        <time>2011-10-20T08:28:51Z</time>
      </trkpt>
      <trkpt lat="29.95404" lon="-6.92503">
        <ele>579.812256</ele>
        <time>2011-10-20T08:29:11Z</time>
      </trkpt>
      <trkpt lat="29.9518" lon="-6.92532">
        <ele>578.370361</ele>
        <time>2011-10-20T08:29:32Z</time>
      </trkpt>
      <trkpt lat="29.94907" lon="-6.92557">
        <ele>577.889648</ele>
        <time>2011-10-20T08:29:55Z</time>
      </trkpt>
      <trkpt lat="29.94599" lon="-6.92569">
        <ele>575.967041</ele>
        <time>2011-10-20T08:30:17Z</time>
      </trkpt>
      <trkpt lat="29.94311" lon="-6.92566">
        <ele>575.005859</ele>
        <time>2011-10-20T08:30:37Z</time>
      </trkpt>
      <trkpt lat="29.93965" lon="-6.92571">
        <ele>573.563965</ele>
        <time>2011-10-20T08:31:00Z</time>
      </trkpt>
      <trkpt lat="29.93639" lon="-6.9262">
        <ele>571.640869</ele>
        <time>2011-10-20T08:31:22Z</time>
      </trkpt>
      <trkpt lat="29.93249" lon="-6.92752">
        <ele>568.276367</ele>
        <time>2011-10-20T08:31:47Z</time>
      </trkpt>
      <trkpt lat="29.92782" lon="-6.92769">
        <ele>566.834473</ele>
        <time>2011-10-20T08:32:16Z</time>
      </trkpt>
      <trkpt lat="29.92349" lon="-6.92753">
        <ele>564.911865</ele>
        <time>2011-10-20T08:32:42Z</time>
      </trkpt>
      <trkpt lat="29.92019" lon="-6.92749">
        <ele>563.950439</ele>
        <time>2011-10-20T08:33:01Z</time>
      </trkpt>
      <trkpt lat="29.9149" lon="-6.92754">
        <ele>561.547363</ele>
        <time>2011-10-20T08:33:30Z</time>
      </trkpt>
      <trkpt lat="29.90988" lon="-6.92723">
        <ele>560.105225</ele>
        <time>2011-10-20T08:33:58Z</time>
      </trkpt>
      <trkpt lat="29.90634" lon="-6.92617">
        <ele>559.144043</ele>
        <time>2011-10-20T08:34:20Z</time>
      </trkpt>
      <trkpt lat="29.90229" lon="-6.92561">
        <ele>557.221436</ele>
        <time>2011-10-20T08:34:42Z</time>
      </trkpt>
      <trkpt lat="29.89799" lon="-6.92603">
        <ele>557.702148</ele>
        <time>2011-10-20T08:35:06Z</time>
      </trkpt>
      <trkpt lat="29.89408" lon="-6.92621">
        <ele>557.702148</ele>
        <time>2011-10-20T08:35:30Z</time>
      </trkpt>
      <trkpt lat="29.89385" lon="-6.92615">
        <ele>557.221436</ele>
        <time>2011-10-20T08:35:32Z</time>
      </trkpt>
      <trkpt lat="29.89339" lon="-6.92573">
        <ele>555.298584</ele>
        <time>2011-10-20T08:35:38Z</time>
      </trkpt>
      <trkpt lat="29.89285" lon="-6.9253">
        <ele>555.779297</ele>
        <time>2011-10-20T08:35:45Z</time>
      </trkpt>
      <trkpt lat="29.89019" lon="-6.92529">
        <ele>555.298584</ele>
        <time>2011-10-20T08:36:06Z</time>
      </trkpt>
      <trkpt lat="29.88708" lon="-6.92537">
        <ele>554.337402</ele>
        <time>2011-10-20T08:36:28Z</time>
      </trkpt>
      <trkpt lat="29.88275" lon="-6.92568">
        <ele>553.375977</ele>
        <time>2011-10-20T08:36:59Z</time>
      </trkpt>
      <trkpt lat="29.88075" lon="-6.92615">
        <ele>551.453369</ele>
        <time>2011-10-20T08:37:16Z</time>
      </trkpt>
      <trkpt lat="29.87833" lon="-6.92693">
        <ele>550.011475</ele>
        <time>2011-10-20T08:37:36Z</time>
      </trkpt>
      <trkpt lat="29.87594" lon="-6.9272">
        <ele>550.011475</ele>
        <time>2011-10-20T08:37:54Z</time>
      </trkpt>
      <trkpt lat="29.87345" lon="-6.92816">
        <ele>548.569336</ele>
        <time>2011-10-20T08:38:13Z</time>
      </trkpt>
      <trkpt lat="29.87249" lon="-6.92857">
        <ele>547.127441</ele>
        <time>2011-10-20T08:38:21Z</time>
      </trkpt>
      <trkpt lat="29.87166" lon="-6.92851">
        <ele>546.646851</ele>
        <time>2011-10-20T08:38:29Z</time>
      </trkpt>
      <trkpt lat="29.87147" lon="-6.92853">
        <ele>546.646851</ele>
        <time>2011-10-20T08:38:31Z</time>
      </trkpt>
      <trkpt lat="29.87114" lon="-6.92848">
        <ele>546.16626</ele>
        <time>2011-10-20T08:38:35Z</time>
      </trkpt>
      <trkpt lat="29.87089" lon="-6.92841">
        <ele>546.16626</ele>
        <time>2011-10-20T08:38:38Z</time>
      </trkpt>
      <trkpt lat="29.87016" lon="-6.92846">
        <ele>545.685547</ele>
        <time>2011-10-20T08:38:45Z</time>
      </trkpt>
      <trkpt lat="29.86907" lon="-6.92847">
        <ele>546.16626</ele>
        <time>2011-10-20T08:39:02Z</time>
      </trkpt>
      <trkpt lat="29.86866" lon="-6.92842">
        <ele>546.646851</ele>
        <time>2011-10-20T08:39:59Z</time>
      </trkpt>
      <trkpt lat="29.86839" lon="-6.92844">
        <ele>546.16626</ele>
        <time>2011-10-20T08:40:03Z</time>
      </trkpt>
      <trkpt lat="29.86799" lon="-6.9284">
        <ele>546.16626</ele>
        <time>2011-10-20T08:40:08Z</time>
      </trkpt>
      <trkpt lat="29.86688" lon="-6.92863">
        <ele>545.204834</ele>
        <time>2011-10-20T08:40:21Z</time>
      </trkpt>
      <trkpt lat="29.86656" lon="-6.92903">
        <ele>545.685547</ele>
        <time>2011-10-20T08:40:27Z</time>
      </trkpt>
      <trkpt lat="29.86648" lon="-6.9292">
        <ele>545.685547</ele>
        <time>2011-10-20T08:40:29Z</time>
      </trkpt>
      <trkpt lat="29.86619" lon="-6.92942">
        <ele>545.204834</ele>
        <time>2011-10-20T08:40:33Z</time>
      </trkpt>
      <trkpt lat="29.86414" lon="-6.93068">
        <ele>543.762817</ele>
        <time>2011-10-20T08:40:55Z</time>
      </trkpt>
      <trkpt lat="29.86289" lon="-6.93137">
        <ele>542.320923</ele>
        <time>2011-10-20T08:41:08Z</time>
      </trkpt>
      <trkpt lat="29.86256" lon="-6.93165">
        <ele>542.320923</ele>
        <time>2011-10-20T08:41:23Z</time>
      </trkpt>
      <trkpt lat="29.8624" lon="-6.93169">
        <ele>543.762817</ele>
        <time>2011-10-20T08:52:33Z</time>
      </trkpt>
      <trkpt lat="29.861" lon="-6.93261">
        <ele>542.801514</ele>
        <time>2011-10-20T08:52:53Z</time>
      </trkpt>
      <trkpt lat="29.8603" lon="-6.9329">
        <ele>541.359497</ele>
        <time>2011-10-20T08:53:08Z</time>
      </trkpt>
      <trkpt lat="29.85924" lon="-6.93303">
        <ele>540.878906</ele>
        <time>2011-10-20T08:53:20Z</time>
      </trkpt>
      <trkpt lat="29.85821" lon="-6.93323">
        <ele>539.917603</ele>
        <time>2011-10-20T08:53:31Z</time>
      </trkpt>
      <trkpt lat="29.8564" lon="-6.93394">
        <ele>538.475708</ele>
        <time>2011-10-20T08:53:50Z</time>
      </trkpt>
      <trkpt lat="29.85534" lon="-6.93449">
        <ele>537.514282</ele>
        <time>2011-10-20T08:54:02Z</time>
      </trkpt>
      <trkpt lat="29.85508" lon="-6.93466">
        <ele>537.514282</ele>
        <time>2011-10-20T08:54:06Z</time>
      </trkpt>
      <trkpt lat="29.85334" lon="-6.93562">
        <ele>535.110962</ele>
        <time>2011-10-20T08:54:27Z</time>
      </trkpt>
      <trkpt lat="29.85281" lon="-6.93602">
        <ele>535.591553</ele>
        <time>2011-10-20T08:54:34Z</time>
      </trkpt>
      <trkpt lat="29.85069" lon="-6.937">
        <ele>534.630371</ele>
        <time>2011-10-20T08:54:56Z</time>
      </trkpt>
      <trkpt lat="29.84962" lon="-6.93724">
        <ele>534.630371</ele>
        <time>2011-10-20T08:55:06Z</time>
      </trkpt>
      <trkpt lat="29.84917" lon="-6.93747">
        <ele>534.630371</ele>
        <time>2011-10-20T08:55:11Z</time>
      </trkpt>
      <trkpt lat="29.84663" lon="-6.93831">
        <ele>532.707764</ele>
        <time>2011-10-20T08:55:35Z</time>
      </trkpt>
      <trkpt lat="29.84535" lon="-6.93868">
        <ele>532.227051</ele>
        <time>2011-10-20T08:55:47Z</time>
      </trkpt>
      <trkpt lat="29.84501" lon="-6.93865">
        <ele>530.304443</ele>
        <time>2011-10-20T08:55:51Z</time>
      </trkpt>
      <trkpt lat="29.84481" lon="-6.9385">
        <ele>528.862549</ele>
        <time>2011-10-20T08:55:55Z</time>
      </trkpt>
      <trkpt lat="29.8447" lon="-6.93838">
        <ele>529.34314</ele>
        <time>2011-10-20T08:55:58Z</time>
      </trkpt>
      <trkpt lat="29.84417" lon="-6.93788">
        <ele>530.785156</ele>
        <time>2011-10-20T08:56:08Z</time>
      </trkpt>
      <trkpt lat="29.84358" lon="-6.93769">
        <ele>532.227051</ele>
        <time>2011-10-20T08:56:16Z</time>
      </trkpt>
      <trkpt lat="29.84312" lon="-6.93776">
        <ele>532.707764</ele>
        <time>2011-10-20T08:56:21Z</time>
      </trkpt>
      <trkpt lat="29.84226" lon="-6.93807">
        <ele>532.227051</ele>
        <time>2011-10-20T08:56:30Z</time>
      </trkpt>
      <trkpt lat="29.84193" lon="-6.93803">
        <ele>530.785156</ele>
        <time>2011-10-20T08:56:34Z</time>
      </trkpt>
      <trkpt lat="29.84169" lon="-6.93796">
        <ele>530.304443</ele>
        <time>2011-10-20T08:56:37Z</time>
      </trkpt>
      <trkpt lat="29.84144" lon="-6.93794">
        <ele>530.304443</ele>
        <time>2011-10-20T08:56:40Z</time>
      </trkpt>
      <trkpt lat="29.8411" lon="-6.93784">
        <ele>530.785156</ele>
        <time>2011-10-20T08:56:44Z</time>
      </trkpt>
      <trkpt lat="29.84066" lon="-6.93763">
        <ele>531.265747</ele>
        <time>2011-10-20T08:56:49Z</time>
      </trkpt>
      <trkpt lat="29.83978" lon="-6.93798">
        <ele>530.785156</ele>
        <time>2011-10-20T08:57:01Z</time>
      </trkpt>
      <trkpt lat="29.83822" lon="-6.93991">
        <ele>531.746338</ele>
        <time>2011-10-20T08:57:25Z</time>
      </trkpt>
      <trkpt lat="29.83799" lon="-6.94007">
        <ele>531.746338</ele>
        <time>2011-10-20T08:57:28Z</time>
      </trkpt>
      <trkpt lat="29.83774" lon="-6.94039">
        <ele>532.227051</ele>
        <time>2011-10-20T08:57:32Z</time>
      </trkpt>
      <trkpt lat="29.83721" lon="-6.94113">
        <ele>532.227051</ele>
        <time>2011-10-20T08:57:40Z</time>
      </trkpt>
      <trkpt lat="29.83687" lon="-6.94142">
        <ele>531.746338</ele>
        <time>2011-10-20T08:57:44Z</time>
      </trkpt>
      <trkpt lat="29.83647" lon="-6.94182">
        <ele>532.227051</ele>
        <time>2011-10-20T08:57:49Z</time>
      </trkpt>
      <trkpt lat="29.83584" lon="-6.94237">
        <ele>531.746338</ele>
        <time>2011-10-20T08:57:57Z</time>
      </trkpt>
      <trkpt lat="29.83559" lon="-6.94256">
        <ele>531.265747</ele>
        <time>2011-10-20T08:58:00Z</time>
      </trkpt>
      <trkpt lat="29.83454" lon="-6.94342">
        <ele>528.381836</ele>
        <time>2011-10-20T08:58:13Z</time>
      </trkpt>
      <trkpt lat="29.83382" lon="-6.94376">
        <ele>528.381836</ele>
        <time>2011-10-20T08:58:21Z</time>
      </trkpt>
      <trkpt lat="29.83248" lon="-6.94415">
        <ele>526.939819</ele>
        <time>2011-10-20T08:58:38Z</time>
      </trkpt>
      <trkpt lat="29.82992" lon="-6.94537">
        <ele>524.536499</ele>
        <time>2011-10-20T08:59:05Z</time>
      </trkpt>
      <trkpt lat="29.82875" lon="-6.94624">
        <ele>523.575195</ele>
        <time>2011-10-20T08:59:18Z</time>
      </trkpt>
      <trkpt lat="29.82664" lon="-6.94761">
        <ele>522.613892</ele>
        <time>2011-10-20T08:59:40Z</time>
      </trkpt>
      <trkpt lat="29.82563" lon="-6.94774">
        <ele>521.171997</ele>
        <time>2011-10-20T08:59:50Z</time>
      </trkpt>
      <trkpt lat="29.82518" lon="-6.94751">
        <ele>519.729858</ele>
        <time>2011-10-20T08:59:57Z</time>
      </trkpt>
      <trkpt lat="29.82492" lon="-6.94724">
        <ele>520.210571</ele>
        <time>2011-10-20T09:00:04Z</time>
      </trkpt>
      <trkpt lat="29.82368" lon="-6.94693">
        <ele>521.171997</ele>
        <time>2011-10-20T09:00:25Z</time>
      </trkpt>
      <trkpt lat="29.82354" lon="-6.94693">
        <ele>521.171997</ele>
        <time>2011-10-20T09:00:27Z</time>
      </trkpt>
      <trkpt lat="29.82327" lon="-6.94688">
        <ele>521.171997</ele>
        <time>2011-10-20T09:00:31Z</time>
      </trkpt>
      <trkpt lat="29.82308" lon="-6.94678">
        <ele>520.691284</ele>
        <time>2011-10-20T09:00:34Z</time>
      </trkpt>
      <trkpt lat="29.82295" lon="-6.94675">
        <ele>520.691284</ele>
        <time>2011-10-20T09:00:36Z</time>
      </trkpt>
      <trkpt lat="29.82105" lon="-6.94632">
        <ele>519.249268</ele>
        <time>2011-10-20T09:01:00Z</time>
      </trkpt>
      <trkpt lat="29.81861" lon="-6.94574">
        <ele>517.32666</ele>
        <time>2011-10-20T09:01:30Z</time>
      </trkpt>
      <trkpt lat="29.81853" lon="-6.94573">
        <ele>517.32666</ele>
        <time>2011-10-20T09:01:31Z</time>
      </trkpt>
      <trkpt lat="29.81739" lon="-6.94506">
        <ele>517.32666</ele>
        <time>2011-10-20T09:01:50Z</time>
      </trkpt>
      <trkpt lat="29.81702" lon="-6.94483">
        <ele>517.807251</ele>
        <time>2011-10-20T09:02:04Z</time>
      </trkpt>
      <trkpt lat="29.81669" lon="-6.94471">
        <ele>518.287842</ele>
        <time>2011-10-20T09:02:49Z</time>
      </trkpt>
      <trkpt lat="29.81606" lon="-6.94445">
        <ele>519.249268</ele>
        <time>2011-10-20T09:02:59Z</time>
      </trkpt>
      <trkpt lat="29.81569" lon="-6.94416">
        <ele>519.729858</ele>
        <time>2011-10-20T09:03:05Z</time>
      </trkpt>
      <trkpt lat="29.81465" lon="-6.9435">
        <ele>522.133179</ele>
        <time>2011-10-20T09:03:20Z</time>
      </trkpt>
      <trkpt lat="29.81366" lon="-6.94245">
        <ele>524.536499</ele>
        <time>2011-10-20T09:03:38Z</time>
      </trkpt>
      <trkpt lat="29.81346" lon="-6.9421">
        <ele>525.497803</ele>
        <time>2011-10-20T09:03:43Z</time>
      </trkpt>
      <trkpt lat="29.81317" lon="-6.94174">
        <ele>526.459106</ele>
        <time>2011-10-20T09:03:49Z</time>
      </trkpt>
      <trkpt lat="29.81303" lon="-6.94151">
        <ele>527.42041</ele>
        <time>2011-10-20T09:03:53Z</time>
      </trkpt>
      <trkpt lat="29.8128" lon="-6.93994">
        <ele>533.668945</ele>
        <time>2011-10-20T09:04:16Z</time>
      </trkpt>
      <trkpt lat="29.81248" lon="-6.93946">
        <ele>531.265747</ele>
        <time>2011-10-20T09:04:48Z</time>
      </trkpt>
      <trkpt lat="29.81157" lon="-6.93865">
        <ele>525.017212</ele>
        <time>2011-10-20T09:05:15Z</time>
      </trkpt>
      <trkpt lat="29.81121" lon="-6.93819">
        <ele>523.575195</ele>
        <time>2011-10-20T09:05:26Z</time>
      </trkpt>
      <trkpt lat="29.81116" lon="-6.93806">
        <ele>523.094604</ele>
        <time>2011-10-20T09:05:28Z</time>
      </trkpt>
      <trkpt lat="29.811" lon="-6.93782">
        <ele>521.171997</ele>
        <time>2011-10-20T09:05:32Z</time>
      </trkpt>
      <trkpt lat="29.8106" lon="-6.9373">
        <ele>519.729858</ele>
        <time>2011-10-20T09:05:43Z</time>
      </trkpt>
      <trkpt lat="29.8105" lon="-6.93707">
        <ele>515.884644</ele>
        <time>2011-10-20T09:06:06Z</time>
      </trkpt>
      <trkpt lat="29.81015" lon="-6.93668">
        <ele>513.000732</ele>
        <time>2011-10-20T09:19:12Z</time>
      </trkpt>
      <trkpt lat="29.80985" lon="-6.93623">
        <ele>511.078003</ele>
        <time>2011-10-20T09:19:23Z</time>
      </trkpt>
      <trkpt lat="29.80963" lon="-6.93615">
        <ele>510.116699</ele>
        <time>2011-10-20T09:19:29Z</time>
      </trkpt>
      <trkpt lat="29.80951" lon="-6.93616">
        <ele>511.078003</ele>
        <time>2011-10-20T09:19:32Z</time>
      </trkpt>
      <trkpt lat="29.80831" lon="-6.93558">
        <ele>505.310181</ele>
        <time>2011-10-20T09:19:57Z</time>
      </trkpt>
      <trkpt lat="29.80815" lon="-6.93543">
        <ele>505.310181</ele>
        <time>2011-10-20T09:20:01Z</time>
      </trkpt>
      <trkpt lat="29.80736" lon="-6.93403">
        <ele>502.906738</ele>
        <time>2011-10-20T09:20:25Z</time>
      </trkpt>
      <trkpt lat="29.80712" lon="-6.93345">
        <ele>498.100342</ele>
        <time>2011-10-20T09:20:34Z</time>
      </trkpt>
      <trkpt lat="29.80643" lon="-6.93135">
        <ele>491.370972</ele>
        <time>2011-10-20T09:20:57Z</time>
      </trkpt>
      <trkpt lat="29.8056" lon="-6.92975">
        <ele>488.967773</ele>
        <time>2011-10-20T09:21:15Z</time>
      </trkpt>
      <trkpt lat="29.80555" lon="-6.92957">
        <ele>488.487183</ele>
        <time>2011-10-20T09:21:17Z</time>
      </trkpt>
      <trkpt lat="29.80469" lon="-6.9281">
        <ele>486.564453</ele>
        <time>2011-10-20T09:21:36Z</time>
      </trkpt>
      <trkpt lat="29.80446" lon="-6.92778">
        <ele>486.08374</ele>
        <time>2011-10-20T09:21:41Z</time>
      </trkpt>
      <trkpt lat="29.80402" lon="-6.9275">
        <ele>485.603027</ele>
        <time>2011-10-20T09:21:47Z</time>
      </trkpt>
      <trkpt lat="29.80166" lon="-6.92709">
        <ele>484.161133</ele>
        <time>2011-10-20T09:22:10Z</time>
      </trkpt>
      <trkpt lat="29.80048" lon="-6.92667">
        <ele>483.199829</ele>
        <time>2011-10-20T09:22:23Z</time>
      </trkpt>
      <trkpt lat="29.80012" lon="-6.92638">
        <ele>481.757812</ele>
        <time>2011-10-20T09:22:29Z</time>
      </trkpt>
      <trkpt lat="29.80006" lon="-6.92627">
        <ele>481.277222</ele>
        <time>2011-10-20T09:22:31Z</time>
      </trkpt>
      <trkpt lat="29.79972" lon="-6.92602">
        <ele>481.277222</ele>
        <time>2011-10-20T09:22:38Z</time>
      </trkpt>
      <trkpt lat="29.79938" lon="-6.92609">
        <ele>481.277222</ele>
        <time>2011-10-20T09:22:44Z</time>
      </trkpt>
      <trkpt lat="29.79927" lon="-6.92615">
        <ele>481.757812</ele>
        <time>2011-10-20T09:22:46Z</time>
      </trkpt>
      <trkpt lat="29.79881" lon="-6.92563">
        <ele>480.315918</ele>
        <time>2011-10-20T09:23:00Z</time>
      </trkpt>
      <trkpt lat="29.79826" lon="-6.92546">
        <ele>479.354492</ele>
        <time>2011-10-20T09:23:11Z</time>
      </trkpt>
      <trkpt lat="29.79775" lon="-6.92542">
        <ele>479.354492</ele>
        <time>2011-10-20T09:23:18Z</time>
      </trkpt>
      <trkpt lat="29.79568" lon="-6.92448">
        <ele>477.912476</ele>
        <time>2011-10-20T09:23:46Z</time>
      </trkpt>
      <trkpt lat="29.7945" lon="-6.92392">
        <ele>477.912476</ele>
        <time>2011-10-20T09:24:01Z</time>
      </trkpt>
      <trkpt lat="29.79258" lon="-6.92299">
        <ele>477.431885</ele>
        <time>2011-10-20T09:24:26Z</time>
      </trkpt>
      <trkpt lat="29.79171" lon="-6.92257">
        <ele>476.470581</ele>
        <time>2011-10-20T09:24:39Z</time>
      </trkpt>
      <trkpt lat="29.79143" lon="-6.92248">
        <ele>476.470581</ele>
        <time>2011-10-20T09:24:44Z</time>
      </trkpt>
      <trkpt lat="29.79134" lon="-6.92244">
        <ele>476.470581</ele>
        <time>2011-10-20T09:24:46Z</time>
      </trkpt>
      <trkpt lat="29.79121" lon="-6.92235">
        <ele>476.951294</ele>
        <time>2011-10-20T09:24:49Z</time>
      </trkpt>
      <trkpt lat="29.79076" lon="-6.92229">
        <ele>477.912476</ele>
        <time>2011-10-20T09:24:56Z</time>
      </trkpt>
      <trkpt lat="29.79012" lon="-6.92201">
        <ele>478.393188</ele>
        <time>2011-10-20T09:25:04Z</time>
      </trkpt>
      <trkpt lat="29.78979" lon="-6.9218">
        <ele>479.354492</ele>
        <time>2011-10-20T09:25:08Z</time>
      </trkpt>
      <trkpt lat="29.78952" lon="-6.92157">
        <ele>478.873901</ele>
        <time>2011-10-20T09:25:12Z</time>
      </trkpt>
      <trkpt lat="29.78916" lon="-6.9214">
        <ele>478.393188</ele>
        <time>2011-10-20T09:25:18Z</time>
      </trkpt>
      <trkpt lat="29.78892" lon="-6.92126">
        <ele>478.873901</ele>
        <time>2011-10-20T09:25:22Z</time>
      </trkpt>
      <trkpt lat="29.78851" lon="-6.92089">
        <ele>478.393188</ele>
        <time>2011-10-20T09:25:29Z</time>
      </trkpt>
      <trkpt lat="29.78779" lon="-6.91955">
        <ele>479.354492</ele>
        <time>2011-10-20T09:25:49Z</time>
      </trkpt>
      <trkpt lat="29.78776" lon="-6.91951">
        <ele>479.835083</ele>
        <time>2011-10-20T09:26:11Z</time>
      </trkpt>
      <trkpt lat="29.78738" lon="-6.91872">
        <ele>477.912476</ele>
        <time>2011-10-20T09:26:35Z</time>
      </trkpt>
      <trkpt lat="29.78656" lon="-6.91649">
        <ele>476.951294</ele>
        <time>2011-10-20T09:27:02Z</time>
      </trkpt>
      <trkpt lat="29.78647" lon="-6.91559">
        <ele>477.431885</ele>
        <time>2011-10-20T09:27:11Z</time>
      </trkpt>
      <trkpt lat="29.7865" lon="-6.9153">
        <ele>476.951294</ele>
        <time>2011-10-20T09:27:14Z</time>
      </trkpt>
      <trkpt lat="29.7862" lon="-6.91429">
        <ele>477.431885</ele>
        <time>2011-10-20T09:27:27Z</time>
      </trkpt>
      <trkpt lat="29.78608" lon="-6.91418">
        <ele>477.912476</ele>
        <time>2011-10-20T09:27:29Z</time>
      </trkpt>
      <trkpt lat="29.78589" lon="-6.91394">
        <ele>475.989868</ele>
        <time>2011-10-20T09:27:33Z</time>
      </trkpt>
      <trkpt lat="29.78529" lon="-6.91363">
        <ele>477.912476</ele>
        <time>2011-10-20T09:27:41Z</time>
      </trkpt>
      <trkpt lat="29.78506" lon="-6.9134">
        <ele>477.912476</ele>
        <time>2011-10-20T09:27:45Z</time>
      </trkpt>
      <trkpt lat="29.78488" lon="-6.9131">
        <ele>477.431885</ele>
        <time>2011-10-20T09:27:49Z</time>
      </trkpt>
      <trkpt lat="29.78472" lon="-6.91291">
        <ele>476.470581</ele>
        <time>2011-10-20T09:27:52Z</time>
      </trkpt>
      <trkpt lat="29.78371" lon="-6.91226">
        <ele>476.951294</ele>
        <time>2011-10-20T09:28:07Z</time>
      </trkpt>
      <trkpt lat="29.78289" lon="-6.91159">
        <ele>475.028687</ele>
        <time>2011-10-20T09:28:20Z</time>
      </trkpt>
      <trkpt lat="29.78199" lon="-6.91062">
        <ele>473.58667</ele>
        <time>2011-10-20T09:28:37Z</time>
      </trkpt>
      <trkpt lat="29.78183" lon="-6.91023">
        <ele>473.106079</ele>
        <time>2011-10-20T09:28:42Z</time>
      </trkpt>
      <trkpt lat="29.78174" lon="-6.90995">
        <ele>473.106079</ele>
        <time>2011-10-20T09:28:45Z</time>
      </trkpt>
      <trkpt lat="29.78135" lon="-6.90932">
        <ele>473.58667</ele>
        <time>2011-10-20T09:28:54Z</time>
      </trkpt>
      <trkpt lat="29.78098" lon="-6.90913">
        <ele>475.028687</ele>
        <time>2011-10-20T09:28:59Z</time>
      </trkpt>
      <trkpt lat="29.78084" lon="-6.90903">
        <ele>475.028687</ele>
        <time>2011-10-20T09:29:01Z</time>
      </trkpt>
      <trkpt lat="29.78039" lon="-6.90879">
        <ele>473.58667</ele>
        <time>2011-10-20T09:29:07Z</time>
      </trkpt>
      <trkpt lat="29.77969" lon="-6.90813">
        <ele>471.18335</ele>
        <time>2011-10-20T09:29:17Z</time>
      </trkpt>
      <trkpt lat="29.77955" lon="-6.90805">
        <ele>471.18335</ele>
        <time>2011-10-20T09:29:19Z</time>
      </trkpt>
      <trkpt lat="29.77845" lon="-6.90703">
        <ele>470.702637</ele>
        <time>2011-10-20T09:29:35Z</time>
      </trkpt>
      <trkpt lat="29.7782" lon="-6.9069">
        <ele>470.702637</ele>
        <time>2011-10-20T09:29:38Z</time>
      </trkpt>
      <trkpt lat="29.77752" lon="-6.9061">
        <ele>470.702637</ele>
        <time>2011-10-20T09:29:48Z</time>
      </trkpt>
      <trkpt lat="29.77717" lon="-6.90571">
        <ele>471.18335</ele>
        <time>2011-10-20T09:29:53Z</time>
      </trkpt>
      <trkpt lat="29.7765" lon="-6.9051">
        <ele>470.221924</ele>
        <time>2011-10-20T09:30:02Z</time>
      </trkpt>
      <trkpt lat="29.7758" lon="-6.90437">
        <ele>471.18335</ele>
        <time>2011-10-20T09:30:17Z</time>
      </trkpt>
      <trkpt lat="29.77454" lon="-6.90307">
        <ele>470.702637</ele>
        <time>2011-10-20T09:30:44Z</time>
      </trkpt>
      <trkpt lat="29.77342" lon="-6.90181">
        <ele>469.741333</ele>
        <time>2011-10-20T09:31:05Z</time>
      </trkpt>
      <trkpt lat="29.77272" lon="-6.901">
        <ele>470.221924</ele>
        <time>2011-10-20T09:31:16Z</time>
      </trkpt>
      <trkpt lat="29.77263" lon="-6.90085">
        <ele>470.702637</ele>
        <time>2011-10-20T09:31:18Z</time>
      </trkpt>
      <trkpt lat="29.77241" lon="-6.90066">
        <ele>470.702637</ele>
        <time>2011-10-20T09:31:22Z</time>
      </trkpt>
      <trkpt lat="29.77086" lon="-6.89899">
        <ele>472.625366</ele>
        <time>2011-10-20T09:31:49Z</time>
      </trkpt>
      <trkpt lat="29.77029" lon="-6.89888">
        <ele>470.702637</ele>
        <time>2011-10-20T09:31:57Z</time>
      </trkpt>
      <trkpt lat="29.77004" lon="-6.89899">
        <ele>470.221924</ele>
        <time>2011-10-20T09:32:01Z</time>
      </trkpt>
      <trkpt lat="29.76987" lon="-6.89915">
        <ele>470.221924</ele>
        <time>2011-10-20T09:32:04Z</time>
      </trkpt>
      <trkpt lat="29.76918" lon="-6.89937">
        <ele>469.260742</ele>
        <time>2011-10-20T09:32:16Z</time>
      </trkpt>
      <trkpt lat="29.76881" lon="-6.89956">
        <ele>469.260742</ele>
        <time>2011-10-20T09:32:22Z</time>
      </trkpt>
      <trkpt lat="29.76846" lon="-6.89992">
        <ele>471.66394</ele>
        <time>2011-10-20T09:32:28Z</time>
      </trkpt>
      <trkpt lat="29.76792" lon="-6.90064">
        <ele>473.106079</ele>
        <time>2011-10-20T09:32:37Z</time>
      </trkpt>
      <trkpt lat="29.7677" lon="-6.90083">
        <ele>474.547974</ele>
        <time>2011-10-20T09:32:40Z</time>
      </trkpt>
      <trkpt lat="29.7673" lon="-6.90131">
        <ele>476.470581</ele>
        <time>2011-10-20T09:32:46Z</time>
      </trkpt>
      <trkpt lat="29.76666" lon="-6.90138">
        <ele>476.951294</ele>
        <time>2011-10-20T09:32:53Z</time>
      </trkpt>
      <trkpt lat="29.76467" lon="-6.90123">
        <ele>473.106079</ele>
        <time>2011-10-20T09:33:15Z</time>
      </trkpt>
      <trkpt lat="29.76372" lon="-6.90183">
        <ele>469.741333</ele>
        <time>2011-10-20T09:33:28Z</time>
      </trkpt>
      <trkpt lat="29.76358" lon="-6.90204">
        <ele>468.299316</ele>
        <time>2011-10-20T09:33:31Z</time>
      </trkpt>
      <trkpt lat="29.76202" lon="-6.90337">
        <ele>465.415527</ele>
        <time>2011-10-20T09:33:53Z</time>
      </trkpt>
      <trkpt lat="29.76048" lon="-6.90529">
        <ele>462.531372</ele>
        <time>2011-10-20T09:34:16Z</time>
      </trkpt>
      <trkpt lat="29.75983" lon="-6.90595">
        <ele>461.57019</ele>
        <time>2011-10-20T09:34:25Z</time>
      </trkpt>
      <trkpt lat="29.75868" lon="-6.9067">
        <ele>461.089478</ele>
        <time>2011-10-20T09:34:38Z</time>
      </trkpt>
      <trkpt lat="29.7582" lon="-6.9068">
        <ele>461.089478</ele>
        <time>2011-10-20T09:34:43Z</time>
      </trkpt>
      <trkpt lat="29.75801" lon="-6.90679">
        <ele>461.089478</ele>
        <time>2011-10-20T09:34:45Z</time>
      </trkpt>
      <trkpt lat="29.75568" lon="-6.90653">
        <ele>460.608765</ele>
        <time>2011-10-20T09:35:06Z</time>
      </trkpt>
      <trkpt lat="29.75327" lon="-6.90711">
        <ele>460.128174</ele>
        <time>2011-10-20T09:35:26Z</time>
      </trkpt>
      <trkpt lat="29.75295" lon="-6.90722">
        <ele>460.128174</ele>
        <time>2011-10-20T09:35:29Z</time>
      </trkpt>
      <trkpt lat="29.7524" lon="-6.90709">
        <ele>462.050781</ele>
        <time>2011-10-20T09:35:35Z</time>
      </trkpt>
      <trkpt lat="29.75211" lon="-6.90686">
        <ele>463.973389</ele>
        <time>2011-10-20T09:35:39Z</time>
      </trkpt>
      <trkpt lat="29.75082" lon="-6.90546">
        <ele>461.089478</ele>
        <time>2011-10-20T09:35:58Z</time>
      </trkpt>
      <trkpt lat="29.75062" lon="-6.90511">
        <ele>460.608765</ele>
        <time>2011-10-20T09:36:02Z</time>
      </trkpt>
      <trkpt lat="29.75028" lon="-6.9048">
        <ele>459.16687</ele>
        <time>2011-10-20T09:36:07Z</time>
      </trkpt>
      <trkpt lat="29.75012" lon="-6.9047">
        <ele>459.16687</ele>
        <time>2011-10-20T09:36:09Z</time>
      </trkpt>
      <trkpt lat="29.7498" lon="-6.90441">
        <ele>456.76355</ele>
        <time>2011-10-20T09:36:13Z</time>
      </trkpt>
      <trkpt lat="29.7494" lon="-6.90418">
        <ele>456.282959</ele>
        <time>2011-10-20T09:36:18Z</time>
      </trkpt>
      <trkpt lat="29.74803" lon="-6.90382">
        <ele>455.802246</ele>
        <time>2011-10-20T09:36:34Z</time>
      </trkpt>
      <trkpt lat="29.74774" lon="-6.90378">
        <ele>455.321533</ele>
        <time>2011-10-20T09:36:37Z</time>
      </trkpt>
      <trkpt lat="29.7463" lon="-6.90336">
        <ele>455.321533</ele>
        <time>2011-10-20T09:36:55Z</time>
      </trkpt>
      <trkpt lat="29.74414" lon="-6.90345">
        <ele>452.437622</ele>
        <time>2011-10-20T09:37:15Z</time>
      </trkpt>
      <trkpt lat="29.74317" lon="-6.90335">
        <ele>450.995605</ele>
        <time>2011-10-20T09:37:27Z</time>
      </trkpt>
      <trkpt lat="29.74299" lon="-6.90323">
        <ele>450.995605</ele>
        <time>2011-10-20T09:37:31Z</time>
      </trkpt>
      <trkpt lat="29.74285" lon="-6.90314">
        <ele>450.515015</ele>
        <time>2011-10-20T09:37:34Z</time>
      </trkpt>
      <trkpt lat="29.7426" lon="-6.90313">
        <ele>450.515015</ele>
        <time>2011-10-20T09:37:38Z</time>
      </trkpt>
      <trkpt lat="29.74246" lon="-6.90315">
        <ele>450.515015</ele>
        <time>2011-10-20T09:37:40Z</time>
      </trkpt>
      <trkpt lat="29.7419" lon="-6.903">
        <ele>450.034424</ele>
        <time>2011-10-20T09:37:49Z</time>
      </trkpt>
      <trkpt lat="29.74161" lon="-6.90305">
        <ele>450.515015</ele>
        <time>2011-10-20T09:37:53Z</time>
      </trkpt>
      <trkpt lat="29.74146" lon="-6.90309">
        <ele>450.034424</ele>
        <time>2011-10-20T09:37:55Z</time>
      </trkpt>
      <trkpt lat="29.7412" lon="-6.90322">
        <ele>450.995605</ele>
        <time>2011-10-20T09:37:59Z</time>
      </trkpt>
      <trkpt lat="29.73906" lon="-6.9041">
        <ele>449.553711</ele>
        <time>2011-10-20T09:38:19Z</time>
      </trkpt>
      <trkpt lat="29.73679" lon="-6.90525">
        <ele>448.111816</ele>
        <time>2011-10-20T09:38:40Z</time>
      </trkpt>
      <trkpt lat="29.73419" lon="-6.90647">
        <ele>447.150269</ele>
        <time>2011-10-20T09:39:02Z</time>
      </trkpt>
      <trkpt lat="29.73169" lon="-6.90782">
        <ele>444.74707</ele>
        <time>2011-10-20T09:39:25Z</time>
      </trkpt>
      <trkpt lat="29.72907" lon="-6.9089">
        <ele>444.74707</ele>
        <time>2011-10-20T09:39:48Z</time>
      </trkpt>
      <trkpt lat="29.72907" lon="-6.9089">
        <ele>444.74707</ele>
        <time>2011-10-20T09:39:48Z</time>
      </trkpt>
      <trkpt lat="29.72621" lon="-6.91029">
        <ele>443.305054</ele>
        <time>2011-10-20T09:40:12Z</time>
      </trkpt>
      <trkpt lat="29.72596" lon="-6.91037">
        <ele>443.305054</ele>
        <time>2011-10-20T09:40:15Z</time>
      </trkpt>
      <trkpt lat="29.7259" lon="-6.90978">
        <ele>443.305054</ele>
        <time>2011-10-20T09:40:28Z</time>
      </trkpt>
      <trkpt lat="29.72588" lon="-6.90968">
        <ele>443.305054</ele>
        <time>2011-10-20T09:40:29Z</time>
      </trkpt>
      <trkpt lat="29.72574" lon="-6.90832">
        <ele>443.305054</ele>
        <time>2011-10-20T09:40:41Z</time>
      </trkpt>
      <trkpt lat="29.72546" lon="-6.90651">
        <ele>442.343872</ele>
        <time>2011-10-20T09:41:01Z</time>
      </trkpt>
      <trkpt lat="29.72531" lon="-6.9051">
        <ele>442.343872</ele>
        <time>2011-10-20T09:41:16Z</time>
      </trkpt>
      <trkpt lat="29.72539" lon="-6.90483">
        <ele>440.901855</ele>
        <time>2011-10-20T09:41:20Z</time>
      </trkpt>
      <trkpt lat="29.72548" lon="-6.9044">
        <ele>441.382446</ele>
        <time>2011-10-20T09:41:26Z</time>
      </trkpt>
      <trkpt lat="29.72538" lon="-6.90388">
        <ele>441.863159</ele>
        <time>2011-10-20T09:41:32Z</time>
      </trkpt>
      <trkpt lat="29.72532" lon="-6.90297">
        <ele>443.785767</ele>
        <time>2011-10-20T09:41:46Z</time>
      </trkpt>
      <trkpt lat="29.72531" lon="-6.90296">
        <ele>442.824463</ele>
        <time>2011-10-20T09:42:58Z</time>
      </trkpt>
      <trkpt lat="29.72508" lon="-6.90264">
        <ele>441.863159</ele>
        <time>2011-10-20T09:43:23Z</time>
      </trkpt>
      <trkpt lat="29.72464" lon="-6.9019">
        <ele>441.863159</ele>
        <time>2011-10-20T09:43:35Z</time>
      </trkpt>
      <trkpt lat="29.72453" lon="-6.90164">
        <ele>442.824463</ele>
        <time>2011-10-20T09:43:39Z</time>
      </trkpt>
      <trkpt lat="29.72445" lon="-6.90131">
        <ele>444.266479</ele>
        <time>2011-10-20T09:43:43Z</time>
      </trkpt>
      <trkpt lat="29.72444" lon="-6.9008">
        <ele>444.266479</ele>
        <time>2011-10-20T09:43:49Z</time>
      </trkpt>
      <trkpt lat="29.72365" lon="-6.89864">
        <ele>446.669678</ele>
        <time>2011-10-20T09:44:16Z</time>
      </trkpt>
      <trkpt lat="29.72347" lon="-6.89826">
        <ele>446.669678</ele>
        <time>2011-10-20T09:44:22Z</time>
      </trkpt>
      <trkpt lat="29.72316" lon="-6.89606">
        <ele>445.708374</ele>
        <time>2011-10-20T09:44:50Z</time>
      </trkpt>
      <trkpt lat="29.72281" lon="-6.89524">
        <ele>443.785767</ele>
        <time>2011-10-20T09:45:01Z</time>
      </trkpt>
      <trkpt lat="29.72256" lon="-6.89464">
        <ele>441.863159</ele>
        <time>2011-10-20T09:45:09Z</time>
      </trkpt>
      <trkpt lat="29.72204" lon="-6.89219">
        <ele>439.94043</ele>
        <time>2011-10-20T09:45:38Z</time>
      </trkpt>
      <trkpt lat="29.72179" lon="-6.89148">
        <ele>438.979126</ele>
        <time>2011-10-20T09:45:47Z</time>
      </trkpt>
      <trkpt lat="29.7218" lon="-6.88935">
        <ele>438.498535</ele>
        <time>2011-10-20T09:46:11Z</time>
      </trkpt>
      <trkpt lat="29.72172" lon="-6.88883">
        <ele>437.537109</ele>
        <time>2011-10-20T09:46:17Z</time>
      </trkpt>
      <trkpt lat="29.72189" lon="-6.88644">
        <ele>438.498535</ele>
        <time>2011-10-20T09:46:42Z</time>
      </trkpt>
      <trkpt lat="29.72211" lon="-6.88495">
        <ele>439.459717</ele>
        <time>2011-10-20T09:46:57Z</time>
      </trkpt>
      <trkpt lat="29.72229" lon="-6.88255">
        <ele>439.94043</ele>
        <time>2011-10-20T09:47:20Z</time>
      </trkpt>
      <trkpt lat="29.72244" lon="-6.88001">
        <ele>439.459717</ele>
        <time>2011-10-20T09:47:45Z</time>
      </trkpt>
      <trkpt lat="29.7225" lon="-6.87762">
        <ele>439.459717</ele>
        <time>2011-10-20T09:48:08Z</time>
      </trkpt>
      <trkpt lat="29.72264" lon="-6.87535">
        <ele>439.94043</ele>
        <time>2011-10-20T09:48:31Z</time>
      </trkpt>
      <trkpt lat="29.72264" lon="-6.8731">
        <ele>440.421265</ele>
        <time>2011-10-20T09:48:50Z</time>
      </trkpt>
      <trkpt lat="29.72234" lon="-6.87093">
        <ele>440.421265</ele>
        <time>2011-10-20T09:49:08Z</time>
      </trkpt>
      <trkpt lat="29.72237" lon="-6.87055">
        <ele>440.421265</ele>
        <time>2011-10-20T09:49:11Z</time>
      </trkpt>
      <trkpt lat="29.7231" lon="-6.86729">
        <ele>444.266479</ele>
        <time>2011-10-20T09:49:38Z</time>
      </trkpt>
      <trkpt lat="29.72316" lon="-6.86403">
        <ele>445.227661</ele>
        <time>2011-10-20T09:50:04Z</time>
      </trkpt>
      <trkpt lat="29.7235" lon="-6.86008">
        <ele>445.708374</ele>
        <time>2011-10-20T09:50:35Z</time>
      </trkpt>
      <trkpt lat="29.72358" lon="-6.85597">
        <ele>449.072998</ele>
        <time>2011-10-20T09:51:06Z</time>
      </trkpt>
      <trkpt lat="29.72345" lon="-6.85329">
        <ele>450.034424</ele>
        <time>2011-10-20T09:51:26Z</time>
      </trkpt>
      <trkpt lat="29.72319" lon="-6.85047">
        <ele>449.553711</ele>
        <time>2011-10-20T09:51:48Z</time>
      </trkpt>
      <trkpt lat="29.72317" lon="-6.85029">
        <ele>449.553711</ele>
        <time>2011-10-20T09:51:50Z</time>
      </trkpt>
      <trkpt lat="29.72309" lon="-6.84874">
        <ele>451.957031</ele>
        <time>2011-10-20T09:52:05Z</time>
      </trkpt>
      <trkpt lat="29.72289" lon="-6.84568">
        <ele>452.437622</ele>
        <time>2011-10-20T09:52:30Z</time>
      </trkpt>
      <trkpt lat="29.72277" lon="-6.84449">
        <ele>451.476318</ele>
        <time>2011-10-20T09:52:40Z</time>
      </trkpt>
      <trkpt lat="29.7231" lon="-6.84182">
        <ele>453.398926</ele>
        <time>2011-10-20T09:53:02Z</time>
      </trkpt>
      <trkpt lat="29.72337" lon="-6.8408">
        <ele>453.879639</ele>
        <time>2011-10-20T09:53:12Z</time>
      </trkpt>
      <trkpt lat="29.72394" lon="-6.83819">
        <ele>456.282959</ele>
        <time>2011-10-20T09:53:34Z</time>
      </trkpt>
      <trkpt lat="29.72427" lon="-6.83669">
        <ele>457.244263</ele>
        <time>2011-10-20T09:53:51Z</time>
      </trkpt>
      <trkpt lat="29.72418" lon="-6.83495">
        <ele>456.282959</ele>
        <time>2011-10-20T09:54:07Z</time>
      </trkpt>
      <trkpt lat="29.72419" lon="-6.8327">
        <ele>457.244263</ele>
        <time>2011-10-20T09:54:27Z</time>
      </trkpt>
      <trkpt lat="29.72427" lon="-6.83226">
        <ele>456.282959</ele>
        <time>2011-10-20T09:54:31Z</time>
      </trkpt>
      <trkpt lat="29.72434" lon="-6.83204">
        <ele>455.802246</ele>
        <time>2011-10-20T09:54:33Z</time>
      </trkpt>
      <trkpt lat="29.72448" lon="-6.83098">
        <ele>456.282959</ele>
        <time>2011-10-20T09:54:42Z</time>
      </trkpt>
      <trkpt lat="29.72455" lon="-6.83043">
        <ele>455.802246</ele>
        <time>2011-10-20T09:54:47Z</time>
      </trkpt>
      <trkpt lat="29.72463" lon="-6.83012">
        <ele>456.76355</ele>
        <time>2011-10-20T09:54:50Z</time>
      </trkpt>
      <trkpt lat="29.72472" lon="-6.82767">
        <ele>459.647583</ele>
        <time>2011-10-20T09:55:11Z</time>
      </trkpt>
      <trkpt lat="29.72473" lon="-6.82727">
        <ele>461.089478</ele>
        <time>2011-10-20T09:55:15Z</time>
      </trkpt>
      <trkpt lat="29.72447" lon="-6.82479">
        <ele>459.16687</ele>
        <time>2011-10-20T09:55:38Z</time>
      </trkpt>
      <trkpt lat="29.72423" lon="-6.82397">
        <ele>456.282959</ele>
        <time>2011-10-20T09:55:47Z</time>
      </trkpt>
      <trkpt lat="29.72421" lon="-6.8236">
        <ele>455.321533</ele>
        <time>2011-10-20T09:55:51Z</time>
      </trkpt>
      <trkpt lat="29.72417" lon="-6.82326">
        <ele>455.321533</ele>
        <time>2011-10-20T09:55:55Z</time>
      </trkpt>
      <trkpt lat="29.72444" lon="-6.8207">
        <ele>457.244263</ele>
        <time>2011-10-20T09:56:18Z</time>
      </trkpt>
      <trkpt lat="29.72486" lon="-6.81822">
        <ele>458.205566</ele>
        <time>2011-10-20T09:56:40Z</time>
      </trkpt>
      <trkpt lat="29.72537" lon="-6.81622">
        <ele>460.128174</ele>
        <time>2011-10-20T09:56:58Z</time>
      </trkpt>
      <trkpt lat="29.72612" lon="-6.81345">
        <ele>461.57019</ele>
        <time>2011-10-20T09:57:21Z</time>
      </trkpt>
      <trkpt lat="29.72632" lon="-6.81272">
        <ele>462.050781</ele>
        <time>2011-10-20T09:57:28Z</time>
      </trkpt>
      <trkpt lat="29.72636" lon="-6.81253">
        <ele>462.531372</ele>
        <time>2011-10-20T09:57:30Z</time>
      </trkpt>
      <trkpt lat="29.72656" lon="-6.81162">
        <ele>462.531372</ele>
        <time>2011-10-20T09:57:40Z</time>
      </trkpt>
      <trkpt lat="29.72667" lon="-6.81114">
        <ele>462.531372</ele>
        <time>2011-10-20T09:57:46Z</time>
      </trkpt>
      <trkpt lat="29.72673" lon="-6.81046">
        <ele>463.012085</ele>
        <time>2011-10-20T09:57:53Z</time>
      </trkpt>
      <trkpt lat="29.7268" lon="-6.80938">
        <ele>461.089478</ele>
        <time>2011-10-20T09:58:05Z</time>
      </trkpt>
      <trkpt lat="29.72636" lon="-6.80887">
        <ele>460.128174</ele>
        <time>2011-10-20T09:58:16Z</time>
      </trkpt>
      <trkpt lat="29.72557" lon="-6.80828">
        <ele>460.608765</ele>
        <time>2011-10-20T09:58:37Z</time>
      </trkpt>
      <trkpt lat="29.72512" lon="-6.80652">
        <ele>462.050781</ele>
        <time>2011-10-20T09:58:59Z</time>
      </trkpt>
      <trkpt lat="29.72519" lon="-6.80575">
        <ele>463.012085</ele>
        <time>2011-10-20T09:59:10Z</time>
      </trkpt>
      <trkpt lat="29.72532" lon="-6.80533">
        <ele>464.454102</ele>
        <time>2011-10-20T09:59:16Z</time>
      </trkpt>
      <trkpt lat="29.72526" lon="-6.80499">
        <ele>463.012085</ele>
        <time>2011-10-20T09:59:22Z</time>
      </trkpt>
      <trkpt lat="29.72498" lon="-6.80432">
        <ele>463.973389</ele>
        <time>2011-10-20T09:59:32Z</time>
      </trkpt>
      <trkpt lat="29.72487" lon="-6.80356">
        <ele>464.454102</ele>
        <time>2011-10-20T09:59:41Z</time>
      </trkpt>
      <trkpt lat="29.7248" lon="-6.80305">
        <ele>464.934814</ele>
        <time>2011-10-20T09:59:47Z</time>
      </trkpt>
      <trkpt lat="29.72484" lon="-6.80244">
        <ele>466.376709</ele>
        <time>2011-10-20T09:59:54Z</time>
      </trkpt>
      <trkpt lat="29.72493" lon="-6.8022">
        <ele>466.857422</ele>
        <time>2011-10-20T09:59:57Z</time>
      </trkpt>
      <trkpt lat="29.72508" lon="-6.80202">
        <ele>467.338135</ele>
        <time>2011-10-20T10:00:00Z</time>
      </trkpt>
      <trkpt lat="29.72526" lon="-6.80173">
        <ele>468.780029</ele>
        <time>2011-10-20T10:00:04Z</time>
      </trkpt>
      <trkpt lat="29.72538" lon="-6.80129">
        <ele>469.260742</ele>
        <time>2011-10-20T10:00:09Z</time>
      </trkpt>
      <trkpt lat="29.72546" lon="-6.80062">
        <ele>469.260742</ele>
        <time>2011-10-20T10:00:18Z</time>
      </trkpt>
      <trkpt lat="29.72551" lon="-6.80002">
        <ele>469.741333</ele>
        <time>2011-10-20T10:00:25Z</time>
      </trkpt>
      <trkpt lat="29.72537" lon="-6.79927">
        <ele>470.221924</ele>
        <time>2011-10-20T10:00:33Z</time>
      </trkpt>
      <trkpt lat="29.72542" lon="-6.79869">
        <ele>470.702637</ele>
        <time>2011-10-20T10:00:39Z</time>
      </trkpt>
      <trkpt lat="29.72555" lon="-6.79834">
        <ele>470.702637</ele>
        <time>2011-10-20T10:00:43Z</time>
      </trkpt>
      <trkpt lat="29.7259" lon="-6.79704">
        <ele>474.067261</ele>
        <time>2011-10-20T10:00:57Z</time>
      </trkpt>
      <trkpt lat="29.72587" lon="-6.79573">
        <ele>475.028687</ele>
        <time>2011-10-20T10:01:11Z</time>
      </trkpt>
      <trkpt lat="29.72589" lon="-6.79552">
        <ele>475.028687</ele>
        <time>2011-10-20T10:01:14Z</time>
      </trkpt>
      <trkpt lat="29.72587" lon="-6.79532">
        <ele>475.989868</ele>
        <time>2011-10-20T10:01:17Z</time>
      </trkpt>
      <trkpt lat="29.72593" lon="-6.79413">
        <ele>475.509277</ele>
        <time>2011-10-20T10:01:31Z</time>
      </trkpt>
      <trkpt lat="29.72594" lon="-6.79394">
        <ele>475.509277</ele>
        <time>2011-10-20T10:01:33Z</time>
      </trkpt>
      <trkpt lat="29.72587" lon="-6.79282">
        <ele>476.951294</ele>
        <time>2011-10-20T10:01:45Z</time>
      </trkpt>
      <trkpt lat="29.72592" lon="-6.79159">
        <ele>479.835083</ele>
        <time>2011-10-20T10:02:00Z</time>
      </trkpt>
      <trkpt lat="29.72585" lon="-6.79126">
        <ele>478.873901</ele>
        <time>2011-10-20T10:02:04Z</time>
      </trkpt>
      <trkpt lat="29.72587" lon="-6.79091">
        <ele>477.912476</ele>
        <time>2011-10-20T10:02:08Z</time>
      </trkpt>
      <trkpt lat="29.72592" lon="-6.79076">
        <ele>477.912476</ele>
        <time>2011-10-20T10:02:10Z</time>
      </trkpt>
      <trkpt lat="29.72602" lon="-6.79044">
        <ele>477.912476</ele>
        <time>2011-10-20T10:02:14Z</time>
      </trkpt>
      <trkpt lat="29.72603" lon="-6.78992">
        <ele>477.431885</ele>
        <time>2011-10-20T10:02:20Z</time>
      </trkpt>
      <trkpt lat="29.726" lon="-6.78974">
        <ele>477.912476</ele>
        <time>2011-10-20T10:02:22Z</time>
      </trkpt>
      <trkpt lat="29.72611" lon="-6.78898">
        <ele>479.354492</ele>
        <time>2011-10-20T10:02:30Z</time>
      </trkpt>
      <trkpt lat="29.726" lon="-6.78638">
        <ele>479.835083</ele>
        <time>2011-10-20T10:02:57Z</time>
      </trkpt>
      <trkpt lat="29.72602" lon="-6.78493">
        <ele>481.757812</ele>
        <time>2011-10-20T10:03:11Z</time>
      </trkpt>
      <trkpt lat="29.72606" lon="-6.78475">
        <ele>481.277222</ele>
        <time>2011-10-20T10:03:13Z</time>
      </trkpt>
      <trkpt lat="29.72602" lon="-6.78382">
        <ele>482.238525</ele>
        <time>2011-10-20T10:03:22Z</time>
      </trkpt>
      <trkpt lat="29.72599" lon="-6.7836">
        <ele>482.238525</ele>
        <time>2011-10-20T10:03:24Z</time>
      </trkpt>
      <trkpt lat="29.72603" lon="-6.78305">
        <ele>483.199829</ele>
        <time>2011-10-20T10:03:29Z</time>
      </trkpt>
      <trkpt lat="29.72591" lon="-6.78248">
        <ele>484.161133</ele>
        <time>2011-10-20T10:03:34Z</time>
      </trkpt>
      <trkpt lat="29.72595" lon="-6.78154">
        <ele>485.122437</ele>
        <time>2011-10-20T10:03:44Z</time>
      </trkpt>
      <trkpt lat="29.72609" lon="-6.78121">
        <ele>485.122437</ele>
        <time>2011-10-20T10:03:50Z</time>
      </trkpt>
      <trkpt lat="29.72624" lon="-6.78099">
        <ele>484.161133</ele>
        <time>2011-10-20T10:03:54Z</time>
      </trkpt>
      <trkpt lat="29.72633" lon="-6.78067">
        <ele>485.122437</ele>
        <time>2011-10-20T10:03:59Z</time>
      </trkpt>
      <trkpt lat="29.72656" lon="-6.77958">
        <ele>485.603027</ele>
        <time>2011-10-20T10:04:13Z</time>
      </trkpt>
      <trkpt lat="29.7266" lon="-6.77924">
        <ele>486.08374</ele>
        <time>2011-10-20T10:04:17Z</time>
      </trkpt>
      <trkpt lat="29.72668" lon="-6.77733">
        <ele>490.890381</ele>
        <time>2011-10-20T10:04:42Z</time>
      </trkpt>
      <trkpt lat="29.72657" lon="-6.77705">
        <ele>489.929077</ele>
        <time>2011-10-20T10:04:46Z</time>
      </trkpt>
      <trkpt lat="29.7264" lon="-6.77642">
        <ele>487.525635</ele>
        <time>2011-10-20T10:04:54Z</time>
      </trkpt>
      <trkpt lat="29.72647" lon="-6.77589">
        <ele>486.564453</ele>
        <time>2011-10-20T10:05:01Z</time>
      </trkpt>
      <trkpt lat="29.72649" lon="-6.77573">
        <ele>486.08374</ele>
        <time>2011-10-20T10:05:03Z</time>
      </trkpt>
      <trkpt lat="29.72632" lon="-6.77368">
        <ele>482.238525</ele>
        <time>2011-10-20T10:05:24Z</time>
      </trkpt>
      <trkpt lat="29.72625" lon="-6.77198">
        <ele>481.277222</ele>
        <time>2011-10-20T10:05:40Z</time>
      </trkpt>
      <trkpt lat="29.72625" lon="-6.76911">
        <ele>478.873901</ele>
        <time>2011-10-20T10:06:03Z</time>
      </trkpt>
      <trkpt lat="29.7263" lon="-6.76694">
        <ele>478.393188</ele>
        <time>2011-10-20T10:06:20Z</time>
      </trkpt>
      <trkpt lat="29.72627" lon="-6.76671">
        <ele>478.393188</ele>
        <time>2011-10-20T10:06:23Z</time>
      </trkpt>
      <trkpt lat="29.72629" lon="-6.76596">
        <ele>477.912476</ele>
        <time>2011-10-20T10:06:31Z</time>
      </trkpt>
      <trkpt lat="29.72635" lon="-6.76506">
        <ele>477.912476</ele>
        <time>2011-10-20T10:06:42Z</time>
      </trkpt>
      <trkpt lat="29.7264" lon="-6.76478">
        <ele>478.393188</ele>
        <time>2011-10-20T10:06:47Z</time>
      </trkpt>
      <trkpt lat="29.72631" lon="-6.76342">
        <ele>477.912476</ele>
        <time>2011-10-20T10:07:00Z</time>
      </trkpt>
      <trkpt lat="29.72617" lon="-6.76065">
        <ele>479.354492</ele>
        <time>2011-10-20T10:07:21Z</time>
      </trkpt>
      <trkpt lat="29.72586" lon="-6.75731">
        <ele>480.796631</ele>
        <time>2011-10-20T10:07:45Z</time>
      </trkpt>
      <trkpt lat="29.7259" lon="-6.75452">
        <ele>481.757812</ele>
        <time>2011-10-20T10:08:06Z</time>
      </trkpt>
      <trkpt lat="29.72598" lon="-6.75385">
        <ele>482.238525</ele>
        <time>2011-10-20T10:08:11Z</time>
      </trkpt>
      <trkpt lat="29.72621" lon="-6.75125">
        <ele>484.161133</ele>
        <time>2011-10-20T10:08:30Z</time>
      </trkpt>
      <trkpt lat="29.72652" lon="-6.74742">
        <ele>487.525635</ele>
        <time>2011-10-20T10:08:55Z</time>
      </trkpt>
      <trkpt lat="29.7266" lon="-6.74597">
        <ele>488.487183</ele>
        <time>2011-10-20T10:09:06Z</time>
      </trkpt>
      <trkpt lat="29.72663" lon="-6.74288">
        <ele>487.525635</ele>
        <time>2011-10-20T10:09:27Z</time>
      </trkpt>
      <trkpt lat="29.72674" lon="-6.74153">
        <ele>486.08374</ele>
        <time>2011-10-20T10:09:37Z</time>
      </trkpt>
      <trkpt lat="29.72703" lon="-6.74066">
        <ele>484.641846</ele>
        <time>2011-10-20T10:09:44Z</time>
      </trkpt>
      <trkpt lat="29.72709" lon="-6.74031">
        <ele>484.161133</ele>
        <time>2011-10-20T10:09:47Z</time>
      </trkpt>
      <trkpt lat="29.72715" lon="-6.7401">
        <ele>484.161133</ele>
        <time>2011-10-20T10:09:49Z</time>
      </trkpt>
      <trkpt lat="29.72742" lon="-6.73828">
        <ele>482.238525</ele>
        <time>2011-10-20T10:10:06Z</time>
      </trkpt>
      <trkpt lat="29.72731" lon="-6.73789">
        <ele>482.238525</ele>
        <time>2011-10-20T10:10:11Z</time>
      </trkpt>
      <trkpt lat="29.72677" lon="-6.73718">
        <ele>479.835083</ele>
        <time>2011-10-20T10:10:29Z</time>
      </trkpt>
      <trkpt lat="29.7264" lon="-6.73673">
        <ele>478.873901</ele>
        <time>2011-10-20T10:10:51Z</time>
      </trkpt>
      <trkpt lat="29.72631" lon="-6.7366">
        <ele>478.873901</ele>
        <time>2011-10-20T10:10:53Z</time>
      </trkpt>
      <trkpt lat="29.72524" lon="-6.73489">
        <ele>475.509277</ele>
        <time>2011-10-20T10:11:14Z</time>
      </trkpt>
      <trkpt lat="29.72486" lon="-6.73443">
        <ele>475.028687</ele>
        <time>2011-10-20T10:11:20Z</time>
      </trkpt>
      <trkpt lat="29.72379" lon="-6.7318">
        <ele>471.18335</ele>
        <time>2011-10-20T10:11:44Z</time>
      </trkpt>
      <trkpt lat="29.72367" lon="-6.73156">
        <ele>470.702637</ele>
        <time>2011-10-20T10:11:47Z</time>
      </trkpt>
      <trkpt lat="29.72344" lon="-6.73097">
        <ele>470.221924</ele>
        <time>2011-10-20T10:11:55Z</time>
      </trkpt>
      <trkpt lat="29.72331" lon="-6.73074">
        <ele>470.221924</ele>
        <time>2011-10-20T10:11:58Z</time>
      </trkpt>
      <trkpt lat="29.72275" lon="-6.72867">
        <ele>471.18335</ele>
        <time>2011-10-20T10:12:20Z</time>
      </trkpt>
      <trkpt lat="29.7226" lon="-6.72668">
        <ele>471.66394</ele>
        <time>2011-10-20T10:12:39Z</time>
      </trkpt>
      <trkpt lat="29.72222" lon="-6.72371">
        <ele>472.144653</ele>
        <time>2011-10-20T10:13:03Z</time>
      </trkpt>
      <trkpt lat="29.72191" lon="-6.72055">
        <ele>472.625366</ele>
        <time>2011-10-20T10:13:31Z</time>
      </trkpt>
      <trkpt lat="29.7217" lon="-6.71745">
        <ele>473.58667</ele>
        <time>2011-10-20T10:13:56Z</time>
      </trkpt>
      <trkpt lat="29.7217" lon="-6.71734">
        <ele>473.106079</ele>
        <time>2011-10-20T10:13:57Z</time>
      </trkpt>
      <trkpt lat="29.7217" lon="-6.71697">
        <ele>473.106079</ele>
        <time>2011-10-20T10:14:01Z</time>
      </trkpt>
      <trkpt lat="29.72164" lon="-6.71489">
        <ele>474.067261</ele>
        <time>2011-10-20T10:14:20Z</time>
      </trkpt>
      <trkpt lat="29.72165" lon="-6.71461">
        <ele>474.067261</ele>
        <time>2011-10-20T10:14:24Z</time>
      </trkpt>
      <trkpt lat="29.72181" lon="-6.71267">
        <ele>474.547974</ele>
        <time>2011-10-20T10:14:47Z</time>
      </trkpt>
      <trkpt lat="29.72247" lon="-6.71036">
        <ele>476.470581</ele>
        <time>2011-10-20T10:15:08Z</time>
      </trkpt>
      <trkpt lat="29.72254" lon="-6.71006">
        <ele>475.989868</ele>
        <time>2011-10-20T10:15:11Z</time>
      </trkpt>
      <trkpt lat="29.72229" lon="-6.70819">
        <ele>478.393188</ele>
        <time>2011-10-20T10:15:31Z</time>
      </trkpt>
      <trkpt lat="29.72212" lon="-6.70687">
        <ele>477.912476</ele>
        <time>2011-10-20T10:15:41Z</time>
      </trkpt>
      <trkpt lat="29.72201" lon="-6.7065">
        <ele>478.393188</ele>
        <time>2011-10-20T10:15:44Z</time>
      </trkpt>
      <trkpt lat="29.72175" lon="-6.70452">
        <ele>477.431885</ele>
        <time>2011-10-20T10:16:03Z</time>
      </trkpt>
      <trkpt lat="29.72156" lon="-6.70273">
        <ele>477.431885</ele>
        <time>2011-10-20T10:16:18Z</time>
      </trkpt>
      <trkpt lat="29.72145" lon="-6.69938">
        <ele>476.470581</ele>
        <time>2011-10-20T10:16:40Z</time>
      </trkpt>
      <trkpt lat="29.72141" lon="-6.69914">
        <ele>476.470581</ele>
        <time>2011-10-20T10:16:42Z</time>
      </trkpt>
      <trkpt lat="29.72129" lon="-6.69879">
        <ele>476.470581</ele>
        <time>2011-10-20T10:16:45Z</time>
      </trkpt>
      <trkpt lat="29.72075" lon="-6.69734">
        <ele>475.509277</ele>
        <time>2011-10-20T10:17:01Z</time>
      </trkpt>
      <trkpt lat="29.7204" lon="-6.69641">
        <ele>475.509277</ele>
        <time>2011-10-20T10:17:11Z</time>
      </trkpt>
      <trkpt lat="29.72022" lon="-6.69497">
        <ele>475.509277</ele>
        <time>2011-10-20T10:17:32Z</time>
      </trkpt>
      <trkpt lat="29.72027" lon="-6.69446">
        <ele>475.509277</ele>
        <time>2011-10-20T10:17:40Z</time>
      </trkpt>
      <trkpt lat="29.72027" lon="-6.69446">
        <ele>475.509277</ele>
        <time>2011-10-20T10:17:40Z</time>
      </trkpt>
      <trkpt lat="29.72031" lon="-6.69415">
        <ele>475.509277</ele>
        <time>2011-10-20T10:17:44Z</time>
      </trkpt>
      <trkpt lat="29.72081" lon="-6.69173">
        <ele>475.509277</ele>
        <time>2011-10-20T10:18:11Z</time>
      </trkpt>
      <trkpt lat="29.72076" lon="-6.69014">
        <ele>476.470581</ele>
        <time>2011-10-20T10:18:29Z</time>
      </trkpt>
      <trkpt lat="29.72087" lon="-6.68789">
        <ele>478.873901</ele>
        <time>2011-10-20T10:18:48Z</time>
      </trkpt>
      <trkpt lat="29.72099" lon="-6.68474">
        <ele>480.796631</ele>
        <time>2011-10-20T10:19:10Z</time>
      </trkpt>
      <trkpt lat="29.72104" lon="-6.68201">
        <ele>480.315918</ele>
        <time>2011-10-20T10:19:31Z</time>
      </trkpt>
      <trkpt lat="29.72083" lon="-6.67987">
        <ele>480.315918</ele>
        <time>2011-10-20T10:19:51Z</time>
      </trkpt>
      <trkpt lat="29.72072" lon="-6.67822">
        <ele>478.873901</ele>
        <time>2011-10-20T10:20:07Z</time>
      </trkpt>
      <trkpt lat="29.7207" lon="-6.67809">
        <ele>478.873901</ele>
        <time>2011-10-20T10:20:09Z</time>
      </trkpt>
      <trkpt lat="29.7205" lon="-6.67762">
        <ele>478.873901</ele>
        <time>2011-10-20T10:20:16Z</time>
      </trkpt>
      <trkpt lat="29.7202" lon="-6.6767">
        <ele>479.835083</ele>
        <time>2011-10-20T10:20:26Z</time>
      </trkpt>
      <trkpt lat="29.72015" lon="-6.6765">
        <ele>479.835083</ele>
        <time>2011-10-20T10:20:28Z</time>
      </trkpt>
      <trkpt lat="29.71974" lon="-6.67488">
        <ele>479.835083</ele>
        <time>2011-10-20T10:20:45Z</time>
      </trkpt>
      <trkpt lat="29.71972" lon="-6.6747">
        <ele>480.315918</ele>
        <time>2011-10-20T10:20:47Z</time>
      </trkpt>
      <trkpt lat="29.71931" lon="-6.67346">
        <ele>480.315918</ele>
        <time>2011-10-20T10:21:01Z</time>
      </trkpt>
      <trkpt lat="29.71896" lon="-6.67118">
        <ele>479.835083</ele>
        <time>2011-10-20T10:21:22Z</time>
      </trkpt>
      <trkpt lat="29.71897" lon="-6.67092">
        <ele>479.354492</ele>
        <time>2011-10-20T10:21:25Z</time>
      </trkpt>
      <trkpt lat="29.71892" lon="-6.66893">
        <ele>480.796631</ele>
        <time>2011-10-20T10:21:42Z</time>
      </trkpt>
      <trkpt lat="29.71893" lon="-6.66836">
        <ele>481.277222</ele>
        <time>2011-10-20T10:21:47Z</time>
      </trkpt>
      <trkpt lat="29.71908" lon="-6.66653">
        <ele>482.238525</ele>
        <time>2011-10-20T10:22:04Z</time>
      </trkpt>
      <trkpt lat="29.71915" lon="-6.66504">
        <ele>482.719238</ele>
        <time>2011-10-20T10:22:22Z</time>
      </trkpt>
      <trkpt lat="29.71899" lon="-6.66424">
        <ele>482.238525</ele>
        <time>2011-10-20T10:22:34Z</time>
      </trkpt>
      <trkpt lat="29.71905" lon="-6.66249">
        <ele>483.68042</ele>
        <time>2011-10-20T10:22:57Z</time>
      </trkpt>
      <trkpt lat="29.71892" lon="-6.66076">
        <ele>482.719238</ele>
        <time>2011-10-20T10:23:23Z</time>
      </trkpt>
      <trkpt lat="29.71876" lon="-6.65932">
        <ele>480.315918</ele>
        <time>2011-10-20T10:23:46Z</time>
      </trkpt>
      <trkpt lat="29.71877" lon="-6.65727">
        <ele>482.238525</ele>
        <time>2011-10-20T10:24:11Z</time>
      </trkpt>
      <trkpt lat="29.7189" lon="-6.65599">
        <ele>481.757812</ele>
        <time>2011-10-20T10:24:24Z</time>
      </trkpt>
      <trkpt lat="29.71907" lon="-6.65452">
        <ele>481.277222</ele>
        <time>2011-10-20T10:24:41Z</time>
      </trkpt>
      <trkpt lat="29.71909" lon="-6.65442">
        <ele>481.757812</ele>
        <time>2011-10-20T10:24:42Z</time>
      </trkpt>
      <trkpt lat="29.71912" lon="-6.65368">
        <ele>482.238525</ele>
        <time>2011-10-20T10:24:49Z</time>
      </trkpt>
      <trkpt lat="29.71925" lon="-6.65284">
        <ele>483.199829</ele>
        <time>2011-10-20T10:24:56Z</time>
      </trkpt>
      <trkpt lat="29.7193" lon="-6.65271">
        <ele>482.719238</ele>
        <time>2011-10-20T10:24:58Z</time>
      </trkpt>
      <trkpt lat="29.71944" lon="-6.65123">
        <ele>482.719238</ele>
        <time>2011-10-20T10:25:16Z</time>
      </trkpt>
      <trkpt lat="29.71957" lon="-6.64967">
        <ele>483.199829</ele>
        <time>2011-10-20T10:25:34Z</time>
      </trkpt>
      <trkpt lat="29.71992" lon="-6.6476">
        <ele>483.68042</ele>
        <time>2011-10-20T10:25:52Z</time>
      </trkpt>
      <trkpt lat="29.72004" lon="-6.6473">
        <ele>483.199829</ele>
        <time>2011-10-20T10:25:57Z</time>
      </trkpt>
      <trkpt lat="29.7201" lon="-6.6469">
        <ele>483.199829</ele>
        <time>2011-10-20T10:26:02Z</time>
      </trkpt>
      <trkpt lat="29.7201" lon="-6.64677">
        <ele>483.199829</ele>
        <time>2011-10-20T10:26:04Z</time>
      </trkpt>
      <trkpt lat="29.72015" lon="-6.64657">
        <ele>482.238525</ele>
        <time>2011-10-20T10:26:08Z</time>
      </trkpt>
      <trkpt lat="29.72007" lon="-6.64518">
        <ele>484.161133</ele>
        <time>2011-10-20T10:26:29Z</time>
      </trkpt>
      <trkpt lat="29.72016" lon="-6.64424">
        <ele>484.161133</ele>
        <time>2011-10-20T10:26:40Z</time>
      </trkpt>
      <trkpt lat="29.72017" lon="-6.644">
        <ele>484.641846</ele>
        <time>2011-10-20T10:26:43Z</time>
      </trkpt>
      <trkpt lat="29.72012" lon="-6.64227">
        <ele>485.122437</ele>
        <time>2011-10-20T10:27:03Z</time>
      </trkpt>
      <trkpt lat="29.72018" lon="-6.64014">
        <ele>485.122437</ele>
        <time>2011-10-20T10:27:24Z</time>
      </trkpt>
      <trkpt lat="29.72045" lon="-6.63891">
        <ele>484.161133</ele>
        <time>2011-10-20T10:27:38Z</time>
      </trkpt>
      <trkpt lat="29.72098" lon="-6.63795">
        <ele>483.199829</ele>
        <time>2011-10-20T10:27:56Z</time>
      </trkpt>
      <trkpt lat="29.72111" lon="-6.63781">
        <ele>482.238525</ele>
        <time>2011-10-20T10:28:00Z</time>
      </trkpt>
      <trkpt lat="29.72216" lon="-6.63674">
        <ele>483.199829</ele>
        <time>2011-10-20T10:28:23Z</time>
      </trkpt>
      <trkpt lat="29.72311" lon="-6.63497">
        <ele>485.122437</ele>
        <time>2011-10-20T10:28:43Z</time>
      </trkpt>
      <trkpt lat="29.72406" lon="-6.63313">
        <ele>486.08374</ele>
        <time>2011-10-20T10:29:02Z</time>
      </trkpt>
      <trkpt lat="29.72553" lon="-6.6316">
        <ele>488.00647</ele>
        <time>2011-10-20T10:29:25Z</time>
      </trkpt>
      <trkpt lat="29.72662" lon="-6.6302">
        <ele>488.487183</ele>
        <time>2011-10-20T10:29:46Z</time>
      </trkpt>
      <trkpt lat="29.72679" lon="-6.62987">
        <ele>489.448364</ele>
        <time>2011-10-20T10:29:50Z</time>
      </trkpt>
      <trkpt lat="29.72715" lon="-6.62933">
        <ele>488.487183</ele>
        <time>2011-10-20T10:29:57Z</time>
      </trkpt>
      <trkpt lat="29.72727" lon="-6.62922">
        <ele>488.487183</ele>
        <time>2011-10-20T10:29:59Z</time>
      </trkpt>
      <trkpt lat="29.72765" lon="-6.62871">
        <ele>488.967773</ele>
        <time>2011-10-20T10:30:06Z</time>
      </trkpt>
      <trkpt lat="29.72797" lon="-6.62817">
        <ele>489.448364</ele>
        <time>2011-10-20T10:30:12Z</time>
      </trkpt>
      <trkpt lat="29.72818" lon="-6.62787">
        <ele>489.448364</ele>
        <time>2011-10-20T10:30:17Z</time>
      </trkpt>
      <trkpt lat="29.72861" lon="-6.62707">
        <ele>488.967773</ele>
        <time>2011-10-20T10:30:28Z</time>
      </trkpt>
      <trkpt lat="29.72871" lon="-6.62689">
        <ele>488.967773</ele>
        <time>2011-10-20T10:30:31Z</time>
      </trkpt>
      <trkpt lat="29.73015" lon="-6.62507">
        <ele>490.890381</ele>
        <time>2011-10-20T10:30:55Z</time>
      </trkpt>
      <trkpt lat="29.73023" lon="-6.62497">
        <ele>490.890381</ele>
        <time>2011-10-20T10:30:57Z</time>
      </trkpt>
      <trkpt lat="29.73106" lon="-6.62282">
        <ele>491.370972</ele>
        <time>2011-10-20T10:31:20Z</time>
      </trkpt>
      <trkpt lat="29.73118" lon="-6.62237">
        <ele>491.370972</ele>
        <time>2011-10-20T10:31:24Z</time>
      </trkpt>
      <trkpt lat="29.73155" lon="-6.61998">
        <ele>493.293579</ele>
        <time>2011-10-20T10:31:45Z</time>
      </trkpt>
      <trkpt lat="29.73188" lon="-6.61822">
        <ele>494.735596</ele>
        <time>2011-10-20T10:32:02Z</time>
      </trkpt>
      <trkpt lat="29.73209" lon="-6.61716">
        <ele>495.216187</ele>
        <time>2011-10-20T10:32:27Z</time>
      </trkpt>
      <trkpt lat="29.73249" lon="-6.61374">
        <ele>497.138916</ele>
        <time>2011-10-20T10:32:49Z</time>
      </trkpt>
      <trkpt lat="29.73263" lon="-6.61163">
        <ele>495.216187</ele>
        <time>2011-10-20T10:33:06Z</time>
      </trkpt>
      <trkpt lat="29.73269" lon="-6.61027">
        <ele>494.735596</ele>
        <time>2011-10-20T10:33:20Z</time>
      </trkpt>
      <trkpt lat="29.73275" lon="-6.60998">
        <ele>494.735596</ele>
        <time>2011-10-20T10:33:24Z</time>
      </trkpt>
      <trkpt lat="29.73322" lon="-6.60799">
        <ele>494.255005</ele>
        <time>2011-10-20T10:33:42Z</time>
      </trkpt>
      <trkpt lat="29.73358" lon="-6.60686">
        <ele>494.735596</ele>
        <time>2011-10-20T10:33:55Z</time>
      </trkpt>
      <trkpt lat="29.73401" lon="-6.60585">
        <ele>495.216187</ele>
        <time>2011-10-20T10:34:07Z</time>
      </trkpt>
      <trkpt lat="29.73523" lon="-6.60358">
        <ele>491.851685</ele>
        <time>2011-10-20T10:34:26Z</time>
      </trkpt>
      <trkpt lat="29.73612" lon="-6.60227">
        <ele>491.851685</ele>
        <time>2011-10-20T10:34:42Z</time>
      </trkpt>
      <trkpt lat="29.73674" lon="-6.60124">
        <ele>489.929077</ele>
        <time>2011-10-20T10:34:53Z</time>
      </trkpt>
      <trkpt lat="29.73695" lon="-6.60103">
        <ele>489.929077</ele>
        <time>2011-10-20T10:34:57Z</time>
      </trkpt>
      <trkpt lat="29.73828" lon="-6.59972">
        <ele>489.448364</ele>
        <time>2011-10-20T10:35:15Z</time>
      </trkpt>
      <trkpt lat="29.73927" lon="-6.59878">
        <ele>490.40979</ele>
        <time>2011-10-20T10:35:30Z</time>
      </trkpt>
      <trkpt lat="29.74081" lon="-6.597">
        <ele>488.00647</ele>
        <time>2011-10-20T10:35:47Z</time>
      </trkpt>
      <trkpt lat="29.74097" lon="-6.59689">
        <ele>487.525635</ele>
        <time>2011-10-20T10:35:49Z</time>
      </trkpt>
      <trkpt lat="29.74176" lon="-6.5961">
        <ele>486.08374</ele>
        <time>2011-10-20T10:36:02Z</time>
      </trkpt>
      <trkpt lat="29.74246" lon="-6.5954">
        <ele>486.564453</ele>
        <time>2011-10-20T10:36:14Z</time>
      </trkpt>
      <trkpt lat="29.74283" lon="-6.59521">
        <ele>486.08374</ele>
        <time>2011-10-20T10:36:19Z</time>
      </trkpt>
      <trkpt lat="29.74316" lon="-6.59491">
        <ele>485.603027</ele>
        <time>2011-10-20T10:36:24Z</time>
      </trkpt>
      <trkpt lat="29.74394" lon="-6.59376">
        <ele>485.603027</ele>
        <time>2011-10-20T10:36:35Z</time>
      </trkpt>
      <trkpt lat="29.74418" lon="-6.59354">
        <ele>485.122437</ele>
        <time>2011-10-20T10:36:38Z</time>
      </trkpt>
      <trkpt lat="29.74428" lon="-6.59342">
        <ele>484.641846</ele>
        <time>2011-10-20T10:36:40Z</time>
      </trkpt>
      <trkpt lat="29.74453" lon="-6.5933">
        <ele>484.641846</ele>
        <time>2011-10-20T10:36:44Z</time>
      </trkpt>
      <trkpt lat="29.74522" lon="-6.59307">
        <ele>484.161133</ele>
        <time>2011-10-20T10:36:54Z</time>
      </trkpt>
      <trkpt lat="29.74554" lon="-6.59302">
        <ele>486.08374</ele>
        <time>2011-10-20T10:36:59Z</time>
      </trkpt>
      <trkpt lat="29.74619" lon="-6.5926">
        <ele>484.641846</ele>
        <time>2011-10-20T10:37:08Z</time>
      </trkpt>
      <trkpt lat="29.7464" lon="-6.5923">
        <ele>485.603027</ele>
        <time>2011-10-20T10:37:13Z</time>
      </trkpt>
      <trkpt lat="29.74663" lon="-6.59193">
        <ele>485.603027</ele>
        <time>2011-10-20T10:37:18Z</time>
      </trkpt>
      <trkpt lat="29.74704" lon="-6.59167">
        <ele>485.122437</ele>
        <time>2011-10-20T10:37:24Z</time>
      </trkpt>
      <trkpt lat="29.74761" lon="-6.5915">
        <ele>483.199829</ele>
        <time>2011-10-20T10:37:32Z</time>
      </trkpt>
      <trkpt lat="29.74787" lon="-6.59153">
        <ele>481.277222</ele>
        <time>2011-10-20T10:37:38Z</time>
      </trkpt>
      <trkpt lat="29.74847" lon="-6.59177">
        <ele>480.315918</ele>
        <time>2011-10-20T10:37:48Z</time>
      </trkpt>
      <trkpt lat="29.74871" lon="-6.59194">
        <ele>479.835083</ele>
        <time>2011-10-20T10:37:52Z</time>
      </trkpt>
      <trkpt lat="29.75046" lon="-6.59201">
        <ele>479.354492</ele>
        <time>2011-10-20T10:38:12Z</time>
      </trkpt>
      <trkpt lat="29.75228" lon="-6.5911">
        <ele>477.431885</ele>
        <time>2011-10-20T10:38:32Z</time>
      </trkpt>
      <trkpt lat="29.75404" lon="-6.58946">
        <ele>476.470581</ele>
        <time>2011-10-20T10:38:54Z</time>
      </trkpt>
      <trkpt lat="29.75609" lon="-6.58781">
        <ele>475.028687</ele>
        <time>2011-10-20T10:39:17Z</time>
      </trkpt>
      <trkpt lat="29.75617" lon="-6.58776">
        <ele>475.509277</ele>
        <time>2011-10-20T10:39:18Z</time>
      </trkpt>
      <trkpt lat="29.75663" lon="-6.58733">
        <ele>473.58667</ele>
        <time>2011-10-20T10:39:27Z</time>
      </trkpt>
      <trkpt lat="29.75709" lon="-6.58647">
        <ele>472.625366</ele>
        <time>2011-10-20T10:39:38Z</time>
      </trkpt>
      <trkpt lat="29.75734" lon="-6.58618">
        <ele>472.625366</ele>
        <time>2011-10-20T10:39:42Z</time>
      </trkpt>
      <trkpt lat="29.7575" lon="-6.58606">
        <ele>472.625366</ele>
        <time>2011-10-20T10:39:44Z</time>
      </trkpt>
      <trkpt lat="29.7579" lon="-6.5859">
        <ele>472.144653</ele>
        <time>2011-10-20T10:39:49Z</time>
      </trkpt>
      <trkpt lat="29.75894" lon="-6.58562">
        <ele>471.18335</ele>
        <time>2011-10-20T10:40:03Z</time>
      </trkpt>
      <trkpt lat="29.75911" lon="-6.58555">
        <ele>470.702637</ele>
        <time>2011-10-20T10:40:05Z</time>
      </trkpt>
      <trkpt lat="29.76097" lon="-6.58514">
        <ele>469.260742</ele>
        <time>2011-10-20T10:40:25Z</time>
      </trkpt>
      <trkpt lat="29.76122" lon="-6.58503">
        <ele>468.780029</ele>
        <time>2011-10-20T10:40:28Z</time>
      </trkpt>
      <trkpt lat="29.76162" lon="-6.58493">
        <ele>469.741333</ele>
        <time>2011-10-20T10:40:34Z</time>
      </trkpt>
      <trkpt lat="29.76195" lon="-6.58482">
        <ele>468.299316</ele>
        <time>2011-10-20T10:40:41Z</time>
      </trkpt>
      <trkpt lat="29.7632" lon="-6.58421">
        <ele>468.299316</ele>
        <time>2011-10-20T10:41:03Z</time>
      </trkpt>
      <trkpt lat="29.76465" lon="-6.58328">
        <ele>470.221924</ele>
        <time>2011-10-20T10:41:25Z</time>
      </trkpt>
      <trkpt lat="29.76667" lon="-6.58222">
        <ele>465.896118</ele>
        <time>2011-10-20T10:41:47Z</time>
      </trkpt>
      <trkpt lat="29.7687" lon="-6.58088">
        <ele>463.973389</ele>
        <time>2011-10-20T10:42:08Z</time>
      </trkpt>
      <trkpt lat="29.77027" lon="-6.57995">
        <ele>462.050781</ele>
        <time>2011-10-20T10:42:26Z</time>
      </trkpt>
      <trkpt lat="29.77178" lon="-6.57895">
        <ele>462.050781</ele>
        <time>2011-10-20T10:42:47Z</time>
      </trkpt>
      <trkpt lat="29.77415" lon="-6.57769">
        <ele>460.608765</ele>
        <time>2011-10-20T10:43:13Z</time>
      </trkpt>
      <trkpt lat="29.77639" lon="-6.57643">
        <ele>460.128174</ele>
        <time>2011-10-20T10:43:38Z</time>
      </trkpt>
      <trkpt lat="29.77924" lon="-6.57485">
        <ele>460.128174</ele>
        <time>2011-10-20T10:44:04Z</time>
      </trkpt>
      <trkpt lat="29.78038" lon="-6.5739">
        <ele>460.608765</ele>
        <time>2011-10-20T10:44:18Z</time>
      </trkpt>
      <trkpt lat="29.78254" lon="-6.57112">
        <ele>462.050781</ele>
        <time>2011-10-20T10:44:42Z</time>
      </trkpt>
      <trkpt lat="29.78455" lon="-6.56895">
        <ele>462.531372</ele>
        <time>2011-10-20T10:45:03Z</time>
      </trkpt>
      <trkpt lat="29.78817" lon="-6.56598">
        <ele>462.531372</ele>
        <time>2011-10-20T10:45:31Z</time>
      </trkpt>
      <trkpt lat="29.79315" lon="-6.56363">
        <ele>461.57019</ele>
        <time>2011-10-20T10:46:03Z</time>
      </trkpt>
      <trkpt lat="29.79694" lon="-6.56212">
        <ele>460.608765</ele>
        <time>2011-10-20T10:46:30Z</time>
      </trkpt>
      <trkpt lat="29.8" lon="-6.56061">
        <ele>460.128174</ele>
        <time>2011-10-20T10:47:00Z</time>
      </trkpt>
      <trkpt lat="29.80306" lon="-6.55867">
        <ele>461.089478</ele>
        <time>2011-10-20T10:47:29Z</time>
      </trkpt>
      <trkpt lat="29.80593" lon="-6.55656">
        <ele>461.57019</ele>
        <time>2011-10-20T10:47:57Z</time>
      </trkpt>
      <trkpt lat="29.80722" lon="-6.55582">
        <ele>461.57019</ele>
        <time>2011-10-20T10:48:10Z</time>
      </trkpt>
      <trkpt lat="29.81057" lon="-6.55462">
        <ele>461.089478</ele>
        <time>2011-10-20T10:48:40Z</time>
      </trkpt>
      <trkpt lat="29.81335" lon="-6.5528">
        <ele>461.089478</ele>
        <time>2011-10-20T10:49:03Z</time>
      </trkpt>
      <trkpt lat="29.81502" lon="-6.5512">
        <ele>461.57019</ele>
        <time>2011-10-20T10:49:19Z</time>
      </trkpt>
      <trkpt lat="29.81531" lon="-6.55107">
        <ele>461.57019</ele>
        <time>2011-10-20T10:49:23Z</time>
      </trkpt>
      <trkpt lat="29.81736" lon="-6.5501">
        <ele>461.57019</ele>
        <time>2011-10-20T10:49:44Z</time>
      </trkpt>
      <trkpt lat="29.81987" lon="-6.54856">
        <ele>461.57019</ele>
        <time>2011-10-20T10:50:02Z</time>
      </trkpt>
      <trkpt lat="29.82264" lon="-6.54723">
        <ele>460.608765</ele>
        <time>2011-10-20T10:50:23Z</time>
      </trkpt>
      <trkpt lat="29.82521" lon="-6.54597">
        <ele>460.608765</ele>
        <time>2011-10-20T10:50:44Z</time>
      </trkpt>
      <trkpt lat="29.8281" lon="-6.54509">
        <ele>460.128174</ele>
        <time>2011-10-20T10:51:06Z</time>
      </trkpt>
      <trkpt lat="29.82902" lon="-6.54477">
        <ele>460.608765</ele>
        <time>2011-10-20T10:51:15Z</time>
      </trkpt>
      <trkpt lat="29.83164" lon="-6.54321">
        <ele>460.128174</ele>
        <time>2011-10-20T10:51:37Z</time>
      </trkpt>
      <trkpt lat="29.8349" lon="-6.5411">
        <ele>459.647583</ele>
        <time>2011-10-20T10:52:00Z</time>
      </trkpt>
      <trkpt lat="29.83751" lon="-6.53948">
        <ele>460.128174</ele>
        <time>2011-10-20T10:52:22Z</time>
      </trkpt>
      <trkpt lat="29.83751" lon="-6.53947">
        <ele>460.128174</ele>
        <time>2011-10-20T10:52:56Z</time>
      </trkpt>
      <trkpt lat="29.83843" lon="-6.53904">
        <ele>461.089478</ele>
        <time>2011-10-20T11:04:43Z</time>
      </trkpt>
      <trkpt lat="29.84159" lon="-6.53733">
        <ele>461.089478</ele>
        <time>2011-10-20T11:05:08Z</time>
      </trkpt>
      <trkpt lat="29.84527" lon="-6.53522">
        <ele>461.57019</ele>
        <time>2011-10-20T11:05:36Z</time>
      </trkpt>
      <trkpt lat="29.84537" lon="-6.53513">
        <ele>461.57019</ele>
        <time>2011-10-20T11:05:37Z</time>
      </trkpt>
      <trkpt lat="29.8481" lon="-6.53341">
        <ele>461.089478</ele>
        <time>2011-10-20T11:06:00Z</time>
      </trkpt>
      <trkpt lat="29.85209" lon="-6.53214">
        <ele>460.608765</ele>
        <time>2011-10-20T11:06:27Z</time>
      </trkpt>
      <trkpt lat="29.85538" lon="-6.53152">
        <ele>460.608765</ele>
        <time>2011-10-20T11:06:51Z</time>
      </trkpt>
      <trkpt lat="29.85801" lon="-6.53112">
        <ele>460.608765</ele>
        <time>2011-10-20T11:07:13Z</time>
      </trkpt>
      <trkpt lat="29.85926" lon="-6.53086">
        <ele>460.608765</ele>
        <time>2011-10-20T11:07:28Z</time>
      </trkpt>
      <trkpt lat="29.85949" lon="-6.5308">
        <ele>461.089478</ele>
        <time>2011-10-20T11:07:31Z</time>
      </trkpt>
      <trkpt lat="29.86025" lon="-6.53056">
        <ele>461.089478</ele>
        <time>2011-10-20T11:07:42Z</time>
      </trkpt>
      <trkpt lat="29.86055" lon="-6.53045">
        <ele>461.089478</ele>
        <time>2011-10-20T11:07:46Z</time>
      </trkpt>
      <trkpt lat="29.86066" lon="-6.53037">
        <ele>461.089478</ele>
        <time>2011-10-20T11:07:48Z</time>
      </trkpt>
      <trkpt lat="29.86081" lon="-6.53023">
        <ele>461.089478</ele>
        <time>2011-10-20T11:07:51Z</time>
      </trkpt>
      <trkpt lat="29.86257" lon="-6.52963">
        <ele>461.089478</ele>
        <time>2011-10-20T11:08:14Z</time>
      </trkpt>
      <trkpt lat="29.86545" lon="-6.5284">
        <ele>462.050781</ele>
        <time>2011-10-20T11:08:50Z</time>
      </trkpt>
      <trkpt lat="29.86737" lon="-6.52729">
        <ele>462.050781</ele>
        <time>2011-10-20T11:09:12Z</time>
      </trkpt>
      <trkpt lat="29.86891" lon="-6.52617">
        <ele>461.57019</ele>
        <time>2011-10-20T11:09:30Z</time>
      </trkpt>
      <trkpt lat="29.87095" lon="-6.52487">
        <ele>462.050781</ele>
        <time>2011-10-20T11:09:54Z</time>
      </trkpt>
      <trkpt lat="29.87347" lon="-6.52329">
        <ele>462.050781</ele>
        <time>2011-10-20T11:10:22Z</time>
      </trkpt>
      <trkpt lat="29.8756" lon="-6.52179">
        <ele>462.531372</ele>
        <time>2011-10-20T11:10:46Z</time>
      </trkpt>
      <trkpt lat="29.87569" lon="-6.52173">
        <ele>462.531372</ele>
        <time>2011-10-20T11:10:47Z</time>
      </trkpt>
      <trkpt lat="29.87586" lon="-6.52126">
        <ele>462.531372</ele>
        <time>2011-10-20T11:10:52Z</time>
      </trkpt>
      <trkpt lat="29.87654" lon="-6.51862">
        <ele>463.492798</ele>
        <time>2011-10-20T11:11:16Z</time>
      </trkpt>
      <trkpt lat="29.87714" lon="-6.5168">
        <ele>463.973389</ele>
        <time>2011-10-20T11:11:34Z</time>
      </trkpt>
      <trkpt lat="29.87757" lon="-6.51697">
        <ele>464.454102</ele>
        <time>2011-10-20T11:11:43Z</time>
      </trkpt>
      <trkpt lat="29.87783" lon="-6.51735">
        <ele>464.454102</ele>
        <time>2011-10-20T11:11:49Z</time>
      </trkpt>
      <trkpt lat="29.87794" lon="-6.51769">
        <ele>463.973389</ele>
        <time>2011-10-20T11:11:53Z</time>
      </trkpt>
      <trkpt lat="29.87927" lon="-6.52005">
        <ele>462.531372</ele>
        <time>2011-10-20T11:12:22Z</time>
      </trkpt>
      <trkpt lat="29.87941" lon="-6.52033">
        <ele>461.089478</ele>
        <time>2011-10-20T11:12:25Z</time>
      </trkpt>
      <trkpt lat="29.8797" lon="-6.5203">
        <ele>461.57019</ele>
        <time>2011-10-20T11:12:30Z</time>
      </trkpt>
      <trkpt lat="29.88014" lon="-6.51996">
        <ele>462.050781</ele>
        <time>2011-10-20T11:12:36Z</time>
      </trkpt>
      <trkpt lat="29.88043" lon="-6.5195">
        <ele>462.050781</ele>
        <time>2011-10-20T11:12:41Z</time>
      </trkpt>
      <trkpt lat="29.88124" lon="-6.51791">
        <ele>463.012085</ele>
        <time>2011-10-20T11:12:56Z</time>
      </trkpt>
      <trkpt lat="29.88135" lon="-6.51732">
        <ele>463.492798</ele>
        <time>2011-10-20T11:13:01Z</time>
      </trkpt>
      <trkpt lat="29.88132" lon="-6.51675">
        <ele>463.492798</ele>
        <time>2011-10-20T11:13:06Z</time>
      </trkpt>
      <trkpt lat="29.88152" lon="-6.5161">
        <ele>463.973389</ele>
        <time>2011-10-20T11:13:12Z</time>
      </trkpt>
      <trkpt lat="29.88211" lon="-6.51537">
        <ele>463.973389</ele>
        <time>2011-10-20T11:13:20Z</time>
      </trkpt>
      <trkpt lat="29.88231" lon="-6.5146">
        <ele>464.454102</ele>
        <time>2011-10-20T11:13:27Z</time>
      </trkpt>
      <trkpt lat="29.88225" lon="-6.51425">
        <ele>464.934814</ele>
        <time>2011-10-20T11:13:30Z</time>
      </trkpt>
      <trkpt lat="29.88269" lon="-6.51365">
        <ele>464.934814</ele>
        <time>2011-10-20T11:13:39Z</time>
      </trkpt>
      <trkpt lat="29.88335" lon="-6.51366">
        <ele>464.934814</ele>
        <time>2011-10-20T11:13:46Z</time>
      </trkpt>
      <trkpt lat="29.88369" lon="-6.51352">
        <ele>464.934814</ele>
        <time>2011-10-20T11:13:50Z</time>
      </trkpt>
      <trkpt lat="29.88408" lon="-6.51324">
        <ele>464.934814</ele>
        <time>2011-10-20T11:13:55Z</time>
      </trkpt>
      <trkpt lat="29.8844" lon="-6.51294">
        <ele>464.934814</ele>
        <time>2011-10-20T11:13:59Z</time>
      </trkpt>
      <trkpt lat="29.88498" lon="-6.51291">
        <ele>464.454102</ele>
        <time>2011-10-20T11:14:06Z</time>
      </trkpt>
      <trkpt lat="29.88538" lon="-6.51301">
        <ele>463.973389</ele>
        <time>2011-10-20T11:14:13Z</time>
      </trkpt>
      <trkpt lat="29.88626" lon="-6.51285">
        <ele>464.454102</ele>
        <time>2011-10-20T11:14:25Z</time>
      </trkpt>
      <trkpt lat="29.88705" lon="-6.51118">
        <ele>464.934814</ele>
        <time>2011-10-20T11:14:44Z</time>
      </trkpt>
      <trkpt lat="29.88827" lon="-6.50847">
        <ele>465.415527</ele>
        <time>2011-10-20T11:15:06Z</time>
      </trkpt>
      <trkpt lat="29.88972" lon="-6.50487">
        <ele>466.376709</ele>
        <time>2011-10-20T11:15:29Z</time>
      </trkpt>
      <trkpt lat="29.89124" lon="-6.49928">
        <ele>465.896118</ele>
        <time>2011-10-20T11:15:58Z</time>
      </trkpt>
      <trkpt lat="29.89239" lon="-6.49417">
        <ele>467.338135</ele>
        <time>2011-10-20T11:16:26Z</time>
      </trkpt>
      <trkpt lat="29.89341" lon="-6.49017">
        <ele>466.857422</ele>
        <time>2011-10-20T11:16:51Z</time>
      </trkpt>
      <trkpt lat="29.89467" lon="-6.4863">
        <ele>466.857422</ele>
        <time>2011-10-20T11:17:16Z</time>
      </trkpt>
      <trkpt lat="29.89638" lon="-6.48">
        <ele>467.818726</ele>
        <time>2011-10-20T11:17:50Z</time>
      </trkpt>
      <trkpt lat="29.89814" lon="-6.47496">
        <ele>467.818726</ele>
        <time>2011-10-20T11:18:18Z</time>
      </trkpt>
      <trkpt lat="29.89935" lon="-6.47263">
        <ele>467.818726</ele>
        <time>2011-10-20T11:18:36Z</time>
      </trkpt>
      <trkpt lat="29.90119" lon="-6.46957">
        <ele>466.857422</ele>
        <time>2011-10-20T11:19:01Z</time>
      </trkpt>
      <trkpt lat="29.90197" lon="-6.46748">
        <ele>467.338135</ele>
        <time>2011-10-20T11:19:15Z</time>
      </trkpt>
      <trkpt lat="29.90218" lon="-6.46706">
        <ele>467.338135</ele>
        <time>2011-10-20T11:19:19Z</time>
      </trkpt>
      <trkpt lat="29.9024" lon="-6.46681">
        <ele>467.338135</ele>
        <time>2011-10-20T11:19:22Z</time>
      </trkpt>
    </trkseg>
  </trk>
</gpx>